GFSSE_850_thetae_000.txt.gz
Theta_e
345 345 344 342 340 340 341 341 344 345 345 345 343 341 338 336 335 334 331 331 333 334 333 333 333 334 336 336 339 340 340 340 337 337 337 332 331 335 335 329 325 324 330
345 344 344 343 343 342 342 342 345 345 344 342 342 340 336 334 333 332 331 333 333 331 332 334 332 332 333 335 336 338 339 341 341 339 335 332 328 330 331 323 334 325 326
347 345 345 344 344 344 345 346 345 345 342 339 339 336 334 333 332 331 330 333 331 332 335 334 333 334 335 335 335 336 339 340 342 342 333 327 329 331 333 324 331 331 333
349 347 346 345 344 344 346 346 345 343 335 335 335 334 334 334 333 330 333 332 330 331 333 334 336 335 336 336 336 337 340 338 341 343 340 335 327 329 333 327 333 330 335
349 348 346 344 345 345 345 344 344 337 335 335 334 333 333 332 332 333 333 332 332 333 332 333 335 336 336 337 338 340 339 337 339 344 342 339 328 326 330 327 336 324 334
346 345 344 345 345 344 344 343 343 338 337 336 335 336 335 334 334 334 332 333 333 331 331 333 335 336 337 338 338 340 339 340 342 342 343 336 332 326 334 324 334 322 323
343 344 345 345 345 345 344 341 340 340 337 335 334 334 333 333 334 334 334 332 329 329 332 334 335 335 336 336 336 337 338 339 342 344 342 341 337 328 339 331 336 337 324
344 344 345 344 344 343 341 337 335 334 333 333 336 336 335 336 335 334 331 331 331 332 335 335 335 334 334 334 335 339 338 339 340 343 344 343 339 332 332 336 328 331 334
345 344 343 342 338 339 338 338 338 338 338 338 338 338 337 336 334 331 335 338 335 337 339 336 334 337 334 332 338 340 338 341 343 344 344 344 338 333 328 328 328 324 333
344 343 342 340 338 342 342 340 340 340 339 338 337 337 336 335 335 337 341 338 339 338 337 339 340 341 341 339 339 339 341 343 343 343 343 345 342 335 331 328 336 331 330
344 343 342 341 340 340 342 342 341 339 338 339 336 336 336 338 341 336 339 339 336 341 342 340 341 341 341 341 339 340 340 341 341 342 344 342 342 340 334 331 327 327 333
344 343 342 342 341 342 342 342 341 339 338 336 336 337 338 340 344 344 343 343 345 342 342 340 340 340 339 341 343 343 343 341 340 339 342 343 342 342 340 331 331 326 339
343 348 345 342 342 341 340 339 339 339 337 336 337 337 341 343 345 344 343 342 342 343 343 342 341 341 341 339 339 340 340 342 342 338 340 342 343 342 343 343 328 329 331
342 342 343 344 342 342 342 341 340 340 338 336 336 337 343 343 343 343 344 342 340 340 342 342 341 340 339 339 337 337 337 339 341 341 340 338 341 342 342 343 343 330 328
342 340 342 342 342 340 341 341 340 339 338 340 339 338 345 346 343 343 345 343 342 341 340 340 339 340 340 338 337 335 334 334 337 340 340 339 339 341 340 342 343 342 330
344 343 343 344 344 342 342 343 342 342 342 345 345 346 347 344 343 343 344 343 341 341 341 342 341 340 340 339 335 333 332 332 332 335 341 340 339 338 339 340 343 343 341
345 345 344 343 344 344 344 345 346 349 347 346 348 347 346 345 343 344 343 342 342 342 343 342 341 340 339 334 331 329 326 325 326 327 333 341 340 340 341 340 341 343 343
347 344 347 347 347 345 348 347 345 344 345 344 347 348 345 346 345 346 343 342 343 343 344 343 341 338 334 332 330 328 328 325 326 327 323 328 338 342 342 341 341 342 343
348 347 346 349 348 347 346 345 345 348 347 346 348 346 345 344 346 345 344 344 343 344 342 339 338 336 334 331 328 331 330 327 327 329 329 327 328 334 340 342 342 341 341
348 349 349 349 349 347 347 344 344 344 347 348 348 348 347 345 343 343 344 343 344 340 337 333 331 334 331 332 333 331 330 330 332 334 336 335 334 334 332 337 342 343 342
348 349 349 350 348 347 345 345 346 346 346 347 347 347 344 344 344 344 346 340 337 336 333 332 332 328 332 332 334 330 330 332 333 334 334 333 333 334 337 336 335 339 340
347 348 347 346 346 347 346 345 347 349 350 350 348 347 347 346 345 345 339 335 333 329 326 326 326 333 332 335 334 332 330 335 334 330 330 330 329 330 332 335 338 338 338
347 347 346 346 347 348 346 347 349 351 349 346 344 343 345 339 341 338 335 330 323 325 328 329 327 329 334 335 334 331 332 332 328 329 328 324 321 321 324 329 332 336 337
346 347 346 345 346 347 347 347 347 344 339 337 333 334 334 332 339 335 325 324 328 329 331 329 324 328 332 333 331 330 330 331 330 329 325 321 320 319 318 318 321 324 327
346 346 346 345 346 346 347 346 347 342 340 340 335 335 333 338 340 333 324 327 329 332 331 326 325 327 329 329 331 330 327 328 327 325 323 321 321 319 317 317 318 319 320
347 347 346 346 342 342 346 346 346 340 341 340 336 329 327 336 335 331 327 331 332 331 327 324 325 327 329 331 331 325 324 324 324 324 323 322 321 319 319 318 316 318 318

GFSSE_850_thetae_003.txt.gz
Theta_e
347 346 344 341 340 343 343 344 344 343 340 338 338 337 336 335 335 333 330 331 334 333 333 333 333 334 334 334 337 339 341 338 337 338 334 330 330 334 333 326 327 341 328
344 344 344 340 341 344 344 345 345 344 340 341 338 335 335 334 332 331 334 334 332 332 334 333 332 334 335 334 335 338 341 341 339 337 333 328 329 330 328 322 328 330 337
343 342 341 340 341 341 344 345 344 343 343 342 339 336 335 333 332 331 333 331 331 334 335 334 335 335 336 336 337 338 340 342 342 340 333 326 332 334 330 328 335 328 336
343 343 343 342 341 342 344 345 343 341 340 339 338 335 334 333 332 330 333 330 331 333 335 335 336 336 336 337 338 340 339 339 341 342 339 334 339 330 333 327 333 332 334
344 344 344 343 344 345 345 345 342 336 336 336 336 334 334 334 331 332 332 332 333 334 334 336 336 336 336 336 338 341 339 341 341 343 342 337 337 334 329 328 326 335 331
346 346 344 343 344 346 346 345 338 335 335 334 333 334 333 331 333 333 332 333 333 332 333 335 335 336 335 336 336 338 338 340 343 343 342 337 333 330 330 326 326 327 328
347 345 343 344 344 345 344 344 336 337 336 335 335 334 334 334 334 334 334 332 329 330 333 335 335 335 334 334 335 337 337 340 341 343 343 341 335 329 339 328 333 324 322
345 344 344 345 344 344 342 343 340 338 336 334 335 334 333 333 335 335 333 332 332 333 336 338 335 336 334 332 336 340 338 340 343 344 344 344 337 333 334 335 333 337 328
344 344 345 345 345 343 341 339 338 335 333 335 336 335 335 336 335 332 336 339 336 338 337 337 338 339 337 334 337 340 341 343 342 343 342 343 338 332 330 335 328 323 336
345 344 344 344 344 342 340 337 336 336 337 338 338 338 337 336 334 335 341 338 338 339 340 339 341 342 341 339 337 339 339 339 340 339 343 343 343 337 331 330 336 327 327
347 346 346 344 343 341 340 340 340 339 338 338 337 337 336 336 338 338 339 341 341 339 343 340 341 341 341 342 342 342 342 340 339 340 341 342 342 340 336 330 330 332 329
348 346 347 342 340 343 342 341 339 338 339 339 337 336 336 337 340 344 344 342 344 342 341 340 339 341 340 339 338 339 340 339 341 338 339 342 343 342 341 339 330 327 333
347 346 344 342 341 341 342 342 340 339 338 337 336 336 336 339 343 344 343 343 341 341 342 342 341 340 339 338 337 336 336 337 340 341 339 339 341 342 342 342 337 330 329
344 344 343 342 341 341 341 341 340 339 338 336 336 336 336 342 344 344 344 343 342 342 340 341 341 338 339 339 338 337 334 332 333 337 340 340 338 341 342 342 343 337 329
343 346 344 342 344 343 341 340 339 339 339 337 336 335 337 345 343 342 344 344 342 342 340 341 341 340 340 339 338 334 331 330 330 331 335 340 338 339 341 341 342 343 340
343 343 342 342 342 341 341 340 339 339 338 337 340 338 339 344 345 342 342 343 342 341 340 341 341 340 340 338 333 328 326 325 325 328 331 339 340 339 338 339 340 342 343
345 343 341 342 342 341 340 340 340 340 340 340 344 346 346 347 342 342 342 342 341 340 341 343 343 342 338 334 330 327 328 327 324 324 326 330 340 340 339 340 340 341 343
346 344 343 343 343 343 341 342 343 346 348 347 345 346 346 344 344 342 343 342 341 343 342 344 341 339 336 334 331 329 331 329 326 325 327 324 325 337 341 342 341 340 341
345 345 343 344 343 344 343 346 346 344 344 344 344 346 345 344 344 343 343 343 343 343 342 342 336 332 331 333 331 332 330 328 326 329 330 330 328 325 330 337 342 342 341
347 347 344 345 347 346 344 345 344 343 344 345 346 347 348 346 345 344 342 344 344 342 340 337 335 334 334 330 329 331 328 330 332 333 335 335 334 334 333 328 332 340 342
349 349 348 347 348 347 346 345 345 344 343 344 345 345 347 346 344 343 344 344 344 336 334 332 332 333 335 330 330 335 330 332 332 331 332 330 330 330 332 335 337 335 337
350 349 349 349 349 348 348 345 345 343 344 346 347 349 346 346 344 345 345 343 334 331 327 326 329 331 331 330 336 330 333 336 336 331 326 322 321 323 326 329 333 336 337
350 350 348 349 346 347 348 347 346 346 347 347 348 349 347 347 345 340 338 334 328 321 328 328 329 327 336 333 332 333 334 333 332 331 326 319 319 318 318 319 322 326 330
347 348 348 348 346 346 347 348 348 347 349 350 347 346 343 344 338 337 338 327 321 326 325 327 324 325 329 335 330 329 329 330 332 331 329 323 322 320 318 317 318 319 321
345 346 347 348 347 347 347 349 349 348 350 349 343 339 339 337 332 338 334 323 324 326 327 327 322 323 324 327 333 333 327 326 324 330 327 327 327 323 321 320 318 316 318
345 346 347 347 347 346 346 347 348 348 349 346 342 339 338 334 335 341 333 324 328 328 328 324 322 323 325 327 330 328 330 329 329 329 329 329 327 327 323 324 320 320 320

GFSSE_850_thetae_006.txt.gz
Theta_e
344 343 343 343 342 342 342 340 339 338 337 335 333 333 336 336 335 332 332 334 333 333 333 331 333 334 334 334 337 340 341 337 339 335 331 328 329 330 325 323 339 340 331
345 343 341 341 341 342 342 341 340 338 338 337 335 335 336 333 332 335 335 333 333 334 333 333 335 335 335 336 337 339 342 341 340 334 331 341 335 331 324 331 341 336 330
349 345 341 344 344 345 345 344 343 338 339 336 336 336 334 332 333 334 332 332 334 334 335 335 335 336 336 337 339 339 340 342 342 338 340 340 342 336 328 335 326 338 336
347 347 346 342 342 345 344 344 342 340 341 338 335 335 333 332 331 333 332 331 333 334 334 335 335 335 337 337 339 340 339 340 342 342 345 340 342 330 330 335 330 335 329
348 348 344 341 342 345 345 342 342 341 340 339 336 334 333 333 331 333 332 333 334 334 333 334 335 335 335 336 337 339 339 341 343 346 345 343 344 336 326 332 330 332 340
349 351 342 343 345 345 345 342 339 339 338 337 334 333 333 331 333 333 332 334 331 330 332 334 335 335 333 334 334 337 338 340 344 350 346 340 343 331 326 336 327 331 335
350 351 346 344 345 345 344 337 335 334 334 334 334 333 331 333 334 333 334 331 330 330 334 336 336 335 333 332 336 339 338 341 348 347 346 349 344 330 335 334 323 322 336
350 351 349 344 345 345 343 335 336 335 335 334 333 333 334 333 335 335 333 336 334 335 339 337 336 338 334 331 337 340 341 342 350 349 349 344 336 332 334 331 338 336 330
351 352 352 349 345 343 343 337 336 337 335 335 334 333 333 335 335 334 339 339 339 339 337 339 341 341 341 336 337 338 340 341 349 349 350 349 339 331 331 332 329 329 331
351 351 354 351 350 350 344 342 339 337 334 336 336 336 337 337 335 335 340 341 336 340 342 340 341 341 341 340 340 341 341 346 348 347 349 347 343 338 330 330 332 325 336
351 351 351 352 351 351 349 340 335 335 336 338 339 337 339 348 349 349 344 343 342 342 343 339 339 339 340 344 339 337 343 347 347 346 348 343 342 341 336 328 329 331 326
351 351 350 352 354 352 350 349 349 348 346 347 347 347 347 349 349 346 347 341 342 342 342 341 340 341 347 346 345 344 344 343 347 348 347 340 342 342 341 337 329 327 331
351 351 354 351 354 352 351 350 350 349 348 348 349 347 348 348 348 350 349 349 347 344 349 348 348 347 347 345 345 344 344 344 342 345 348 342 339 341 342 341 337 330 326
350 350 351 351 351 351 352 350 349 348 348 347 348 343 348 346 350 350 350 350 345 349 349 348 347 346 346 344 345 343 342 341 341 341 344 344 340 339 341 342 342 341 330
350 350 351 351 353 353 351 350 349 349 348 347 348 348 347 348 348 348 346 346 345 349 348 348 347 347 346 346 345 341 338 337 338 338 340 339 340 339 339 341 340 343 342
349 350 350 351 352 351 351 350 350 349 349 348 347 347 339 346 347 349 349 348 348 349 348 347 346 346 347 346 342 340 337 335 337 337 338 341 340 340 340 338 339 340 342
350 350 351 352 352 354 352 351 351 350 349 348 348 350 343 345 345 344 349 348 348 348 341 346 347 348 345 342 340 337 338 338 338 339 338 337 340 343 341 339 339 340 341
351 351 352 351 352 353 353 352 351 350 350 350 349 351 346 347 345 348 349 348 348 344 348 349 347 345 341 339 337 337 337 338 338 338 338 338 336 336 343 343 342 341 340
352 353 353 352 351 352 352 352 352 352 351 351 352 349 350 346 344 348 349 348 346 346 345 345 346 342 338 336 336 334 337 338 337 336 339 340 341 339 336 340 340 340 342
353 354 354 352 353 353 353 351 351 351 351 350 350 351 346 346 349 345 349 347 344 345 347 346 342 340 338 336 334 334 338 337 337 337 337 336 337 340 340 342 341 343 341
353 355 356 355 355 353 351 351 351 350 350 350 350 350 349 348 347 344 349 348 346 345 344 342 339 338 335 337 335 335 336 337 337 336 336 330 331 333 337 341 342 342 343
354 356 357 356 355 351 354 352 351 352 350 352 352 353 351 351 348 347 347 347 344 341 342 339 338 336 336 336 336 335 333 336 336 334 331 328 327 329 331 334 337 334 341
353 356 357 357 356 354 352 353 353 352 351 352 352 353 351 350 349 345 343 342 342 332 333 338 338 336 335 339 338 335 333 333 331 333 334 329 328 327 328 329 331 328 324
353 355 357 357 355 355 352 353 353 352 349 347 348 347 350 350 349 346 344 343 328 333 338 338 336 336 332 335 335 335 334 333 332 331 331 330 328 327 328 326 327 328 320
352 354 355 352 349 353 355 353 355 354 348 347 348 351 350 347 347 344 342 331 324 333 339 337 337 336 335 334 333 334 335 332 333 331 329 329 329 329 328 327 326 325 326
351 353 354 353 347 349 355 355 355 354 351 348 350 348 344 345 346 345 342 332 326 335 337 336 330 333 328 334 334 336 331 330 330 330 328 329 329 328 329 328 328 325 325

GFSSE_850_thetae_009.txt.gz
Theta_e
348 345 345 344 343 343 341 336 335 333 330 331 334 337 337 336 334 333 335 334 334 333 333 335 335 335 336 336 339 342 339 339 334 329 339 340 328 324 322 336 341 343 330
347 344 343 342 342 341 339 338 336 334 335 334 336 337 333 332 335 335 332 334 334 334 334 335 335 336 336 339 339 340 342 341 338 338 343 343 335 325 329 339 344 333 335
348 345 342 341 342 341 339 338 338 338 337 336 337 335 333 334 334 331 331 333 333 334 334 334 335 336 335 338 340 339 339 340 342 341 343 344 340 328 332 329 333 336 332
347 347 346 344 345 344 343 340 338 338 337 336 336 334 332 331 333 331 331 332 334 333 333 334 335 335 335 335 338 339 340 340 342 344 344 344 344 325 331 329 335 330 334
348 348 344 344 345 344 344 341 340 340 335 335 336 333 332 331 333 332 333 334 332 330 332 335 335 334 333 334 335 337 339 342 344 345 346 344 346 328 331 329 334 329 341
348 350 341 343 345 344 342 342 342 340 338 336 335 333 333 332 334 333 334 331 329 329 333 335 335 334 332 334 338 338 338 342 346 348 348 339 343 332 331 337 338 336 334
350 349 343 345 345 345 341 339 339 338 337 335 333 333 332 333 334 334 333 333 332 333 337 337 334 337 331 332 339 339 340 345 350 350 350 348 341 333 329 322 328 333 335
351 349 346 345 345 344 339 336 334 334 334 334 333 332 333 334 335 335 335 339 336 338 336 338 340 340 336 334 337 338 339 343 349 350 349 347 338 330 331 331 334 323 332
350 351 350 348 345 343 337 335 335 335 334 333 333 334 333 335 335 334 341 338 339 339 339 339 341 341 340 337 339 340 343 347 350 347 347 348 339 331 330 326 333 331 334
351 352 350 351 351 349 339 336 337 335 334 335 334 332 334 336 334 339 342 344 339 339 343 339 339 339 339 340 338 336 346 348 347 345 348 345 342 336 330 329 326 325 330
351 350 350 350 351 353 351 342 337 336 334 337 337 337 337 349 350 348 349 342 342 343 342 339 338 340 348 346 346 343 346 347 345 347 348 345 341 341 335 330 335 326 331
350 351 350 352 350 350 348 345 347 345 346 346 348 346 346 349 350 345 348 343 341 340 342 343 342 346 347 347 347 344 345 344 345 344 347 346 338 342 342 335 330 335 330
348 350 351 350 349 349 349 348 349 349 349 348 350 350 348 350 349 350 349 351 349 347 351 349 348 348 347 346 345 346 344 343 341 341 344 346 341 339 342 341 336 331 327
349 350 350 353 351 349 350 348 349 348 347 347 348 351 349 349 349 348 350 350 348 349 348 350 347 347 347 346 345 345 342 340 339 340 344 343 342 339 340 342 340 335 329
349 350 349 351 351 353 349 349 349 348 347 347 348 350 349 349 348 347 351 349 350 349 348 347 346 346 346 347 344 342 340 337 336 336 340 341 339 339 338 340 341 342 339
349 349 349 352 353 351 352 354 351 348 349 346 348 348 349 349 349 351 349 349 348 348 347 348 347 346 346 343 341 341 338 338 338 339 337 340 339 339 340 338 339 339 342
349 350 350 351 353 352 353 352 351 350 347 349 347 350 350 350 351 348 349 350 348 346 347 347 347 346 341 340 338 337 337 338 338 339 338 337 341 340 340 340 339 339 339
349 350 351 350 351 353 354 354 352 349 350 348 349 348 351 351 350 352 349 349 347 350 348 348 349 346 341 338 336 337 336 337 339 338 340 338 337 337 341 341 341 340 341
351 351 351 351 351 352 353 353 351 351 350 351 351 349 352 350 351 352 349 348 349 348 348 346 347 344 339 337 336 334 337 338 338 338 337 340 341 340 338 341 340 336 340
351 352 353 352 352 353 352 351 353 350 354 352 353 349 351 351 350 351 348 351 348 348 347 346 344 340 339 339 336 333 337 339 338 337 338 336 336 339 341 342 344 344 343
351 353 354 354 353 354 353 352 353 351 351 350 348 353 353 347 351 349 349 349 349 346 347 342 340 337 338 338 336 338 336 337 338 337 335 332 333 333 337 340 343 343 345
352 353 354 354 354 354 355 352 353 350 350 348 350 350 351 352 353 351 350 348 348 345 343 341 339 338 337 337 337 335 336 338 337 335 332 330 330 330 333 336 339 335 343
352 353 355 355 355 355 354 353 353 354 351 352 351 354 352 351 352 351 350 346 348 339 332 339 340 338 337 338 336 337 335 337 334 335 335 331 330 329 330 331 334 332 325
352 354 355 355 354 356 353 355 354 352 349 346 346 347 350 355 350 352 352 347 342 334 338 339 338 336 334 336 336 336 331 334 335 334 333 333 331 330 331 329 328 330 329
352 354 356 356 356 356 356 353 354 352 348 349 346 347 350 354 350 349 348 346 342 333 338 339 339 332 340 335 334 334 336 333 333 331 331 331 331 332 331 330 329 327 328
351 353 356 357 357 355 357 352 352 354 349 347 347 349 350 349 350 347 345 344 341 336 340 340 339 338 333 337 336 335 333 332 332 332 331 330 330 330 331 331 330 330 327

GFSSE_850_thetae_012.txt.gz
Theta_e
344 344 344 343 343 343 339 335 333 329 332 333 337 337 336 332 334 333 333 333 332 334 335 336 336 336 339 338 341 341 339 335 336 341 338 332 324 321 335 340 344 336 333
345 344 344 343 343 341 336 333 330 330 333 336 336 334 332 334 334 332 334 334 334 334 335 335 335 335 338 340 339 339 341 338 341 342 345 339 327 325 338 343 340 329 332
347 343 342 342 341 337 336 333 333 333 335 336 333 334 335 333 331 332 333 333 334 334 334 335 334 335 335 338 339 338 338 341 343 344 344 345 327 328 331 338 335 334 329
347 345 342 342 340 338 338 335 335 334 336 336 333 333 332 333 331 331 333 333 332 333 334 335 334 333 334 334 336 338 341 341 343 346 347 344 335 329 326 334 331 331 334
348 347 342 342 340 339 338 338 337 337 336 336 333 332 331 332 332 332 333 329 329 331 334 335 334 333 333 336 337 337 340 344 344 342 346 344 343 328 328 332 327 336 336
349 346 345 344 344 343 340 339 338 336 336 336 334 332 331 332 332 334 331 332 330 334 337 335 337 332 331 337 338 338 341 345 346 345 345 344 336 327 329 332 333 339 331
351 344 345 345 343 343 341 341 341 338 335 336 332 332 331 333 334 333 333 337 333 337 336 338 338 333 331 336 337 339 343 348 346 347 348 348 334 329 324 330 330 332 331
349 346 344 345 344 340 341 340 339 338 336 334 332 332 333 334 334 334 338 339 337 336 339 340 340 340 335 338 338 342 341 348 345 341 348 344 333 330 327 323 324 333 328
348 349 345 345 345 340 339 336 335 335 334 333 332 331 333 335 334 336 341 337 336 340 341 338 340 339 339 338 336 345 347 347 347 345 346 343 335 329 326 331 334 325 327
351 351 351 345 344 338 335 334 334 332 332 331 332 332 333 336 339 346 346 342 341 342 341 338 337 341 345 345 340 345 347 348 346 334 347 341 341 332 329 323 326 330 331
349 350 351 352 348 343 335 336 335 334 334 333 332 333 337 349 350 348 350 347 340 340 340 338 339 346 347 347 344 343 346 345 346 343 346 343 340 340 329 328 326 327 329
348 352 352 350 350 348 350 337 337 335 335 336 338 339 343 348 351 347 348 347 345 341 338 345 346 347 347 347 346 347 346 339 344 344 344 335 341 339 340 329 329 327 327
351 351 349 348 352 350 351 341 337 343 347 344 348 350 350 350 350 349 345 338 349 347 345 348 348 348 346 342 344 345 340 342 342 346 344 343 343 340 341 340 333 329 329
351 351 351 348 348 352 349 346 348 349 349 348 349 345 345 348 346 349 348 349 346 342 349 348 348 345 343 346 345 344 341 340 338 338 340 343 341 339 337 341 339 332 329
349 353 351 349 348 349 349 348 349 349 347 348 349 349 346 349 350 347 349 348 345 350 347 346 346 346 345 342 340 341 339 337 337 336 340 338 339 334 338 339 341 341 336
347 352 349 353 348 349 348 348 351 344 349 347 348 348 349 345 349 349 348 347 345 347 346 346 343 343 343 342 343 339 336 339 337 340 338 341 338 339 337 338 338 339 342
348 351 351 353 352 348 350 351 349 350 348 347 345 348 348 348 342 349 346 349 349 348 345 344 346 346 343 342 341 337 337 337 339 336 337 339 340 339 340 337 338 338 337
349 349 350 351 355 350 348 350 348 347 348 347 349 349 351 349 343 344 347 350 349 347 347 347 348 346 343 339 336 337 335 337 337 339 340 335 340 340 338 340 340 339 339
349 350 350 350 352 353 350 348 349 350 347 350 348 351 348 349 348 348 347 350 348 347 344 347 345 346 341 339 336 335 335 339 336 339 336 340 337 340 343 342 340 337 335
349 350 350 351 350 351 352 348 354 346 351 349 350 348 351 348 345 348 347 346 346 343 347 344 345 342 334 337 339 334 337 338 336 337 338 336 335 339 340 341 343 345 342
350 351 351 350 351 355 353 353 352 354 350 347 346 350 352 352 351 344 346 346 347 345 349 346 341 336 338 337 337 337 338 336 335 337 334 332 333 333 335 338 342 342 343
350 351 352 352 352 351 354 354 351 348 348 349 350 349 350 349 346 347 346 346 349 348 343 343 334 336 338 337 333 336 337 338 337 334 332 330 330 331 333 334 333 339 340
351 352 352 353 353 353 353 352 349 352 352 352 351 349 346 346 347 351 349 346 350 349 337 336 340 339 337 339 338 336 339 339 336 336 333 331 329 329 330 331 330 327 333
351 351 353 353 353 353 353 353 350 351 354 351 351 351 347 351 349 350 345 346 347 339 339 338 337 332 333 338 338 336 333 331 335 337 334 333 332 331 331 329 329 329 329
351 353 353 353 354 353 352 354 356 352 350 348 345 345 350 349 349 352 350 349 343 321 335 337 340 327 339 335 335 336 336 332 331 327 331 333 333 332 332 330 328 328 328
351 354 353 354 356 354 354 353 356 355 349 349 349 350 349 351 352 348 350 346 338 324 339 336 330 326 336 338 335 335 336 333 333 334 333 331 330 331 332 331 331 330 329

GFSSE_850_thetae_015.txt.gz
Theta_e
343 343 344 343 343 343 337 329 329 332 336 337 338 334 331 332 332 332 332 333 334 335 335 335 335 339 338 341 340 338 335 337 340 338 328 325 322 339 341 340 337 333 330
344 344 344 343 342 340 336 329 331 333 336 336 335 331 333 332 333 333 334 334 334 334 335 335 335 335 339 338 338 340 338 340 343 343 340 327 326 339 342 340 334 331 326
344 343 343 342 339 335 334 330 332 335 335 333 332 334 332 331 332 333 333 332 333 334 335 335 333 334 334 338 339 339 340 343 345 344 344 331 328 338 341 334 332 328 325
343 343 343 339 336 333 330 330 333 335 334 333 333 332 330 330 332 333 331 329 331 334 335 334 332 333 335 335 337 341 341 343 346 346 344 341 329 326 334 335 330 330 325
342 342 341 337 336 333 333 331 332 334 334 332 330 330 332 332 333 332 330 329 331 335 336 334 333 331 336 337 337 340 342 343 342 344 343 344 328 328 333 328 335 331 332
342 341 340 339 338 337 335 334 333 334 335 332 331 331 332 332 333 331 334 332 334 337 336 338 331 330 336 337 339 342 345 346 344 345 345 343 329 326 331 329 337 331 333
344 343 343 341 339 338 338 336 335 334 335 333 332 331 333 333 333 336 338 335 336 336 339 339 338 334 338 337 338 339 347 346 343 344 346 345 330 326 333 333 337 331 331
345 344 343 343 342 339 339 338 335 334 335 333 332 331 333 334 334 339 337 336 338 340 338 340 339 338 336 340 346 345 346 345 342 338 344 343 328 326 325 328 332 328 333
344 344 344 342 342 340 340 339 338 336 335 332 332 332 333 334 336 342 344 341 341 341 338 338 339 345 340 344 345 346 346 347 341 335 334 343 331 326 327 326 326 328 327
345 344 345 343 339 339 338 337 336 334 333 332 331 333 335 344 346 347 346 344 341 341 337 342 346 346 346 342 343 344 344 342 342 340 334 340 340 329 323 328 327 328 330
350 344 344 344 339 337 334 333 332 332 331 331 332 332 342 346 347 348 345 346 342 341 340 340 345 346 346 345 346 344 345 342 343 341 344 338 339 338 328 324 325 329 328
350 349 346 343 338 334 333 333 333 332 332 333 333 338 346 345 347 347 345 341 345 342 335 342 344 344 344 343 344 344 342 341 344 343 342 341 340 339 337 328 326 327 329
348 350 350 345 340 338 335 335 335 334 335 336 339 344 347 346 347 347 344 341 346 336 342 340 344 346 343 342 342 344 339 340 338 340 341 342 340 339 340 334 328 327 326
350 352 351 346 346 350 347 345 335 342 341 345 345 343 345 347 345 347 344 346 343 346 345 345 345 348 345 343 341 340 338 336 337 336 340 338 337 334 338 341 336 329 326
350 351 350 347 345 350 351 346 346 348 347 348 348 348 347 344 345 348 344 346 344 346 345 346 345 344 342 341 342 339 337 337 337 337 337 337 338 336 337 338 341 336 329
351 350 349 347 344 348 349 347 350 350 350 349 349 349 349 346 344 343 347 346 346 344 347 344 344 342 340 343 345 338 337 338 336 339 336 338 337 338 336 337 337 340 342
351 351 351 347 347 346 347 349 350 350 349 347 347 348 348 349 348 344 345 347 345 348 347 344 343 343 343 339 336 336 336 336 338 335 337 338 340 338 339 336 338 338 337
348 351 350 349 351 346 344 348 350 348 347 346 348 347 350 349 345 346 343 345 347 348 347 345 345 343 342 340 335 337 335 337 337 337 338 336 338 338 338 338 338 337 338
348 350 350 352 351 350 347 345 348 346 347 346 347 350 350 350 347 346 346 345 351 346 348 346 343 345 341 336 334 335 336 337 337 338 337 336 340 339 340 342 339 337 338
348 349 349 351 352 353 351 347 343 345 344 345 346 348 349 348 348 346 346 343 345 348 345 345 341 343 339 336 337 334 333 336 338 338 337 334 336 340 340 339 341 344 339
349 348 349 350 350 352 352 351 346 344 347 348 348 348 348 346 348 347 346 342 344 345 343 342 342 332 336 337 338 336 336 336 337 337 335 333 333 333 335 337 337 342 341
349 348 349 349 349 352 353 351 351 351 350 349 346 343 348 349 350 347 346 343 345 347 346 341 333 327 338 337 336 334 336 338 337 335 334 328 331 332 332 332 329 329 337
348 349 349 349 349 351 353 353 352 349 352 351 352 350 351 351 347 346 344 344 342 349 343 338 331 334 338 337 336 334 338 338 338 333 335 332 331 328 327 326 328 328 328
348 348 349 350 351 350 352 353 352 349 346 349 352 349 347 348 346 348 344 344 345 349 345 331 330 326 338 338 335 336 333 334 336 336 332 332 332 331 330 328 327 328 327
349 349 349 350 351 352 350 350 351 347 345 350 351 351 350 349 350 348 348 343 344 343 334 333 327 318 335 336 335 336 334 331 331 330 335 333 332 332 331 330 330 329 327
349 350 350 350 351 352 352 351 349 348 348 350 349 348 348 348 351 347 347 348 345 333 320 330 334 331 330 336 334 334 335 334 333 333 333 330 330 332 333 331 331 331 331

GFSSE_850_thetae_018.txt.gz
Theta_e
345 343 341 342 341 339 336 332 332 329 330 332 331 331 331 331 331 332 333 333 334 334 334 334 339 339 341 338 334 334 338 337 336 327 324 323 337 333 336 335 337 334 324
343 343 342 343 342 334 331 333 335 335 336 332 331 331 332 332 332 333 332 333 334 334 333 332 334 339 338 339 339 338 340 341 341 338 326 327 338 340 337 333 330 325 324
344 344 343 343 337 330 330 332 335 334 334 331 332 331 331 332 332 332 331 332 334 334 333 331 332 333 337 339 340 339 342 344 343 343 330 328 339 340 331 331 330 332 337
344 343 342 340 335 328 331 333 334 333 331 332 331 329 330 332 332 329 329 332 334 334 333 331 332 336 336 338 341 341 343 344 344 343 341 329 330 337 336 333 328 326 335
343 343 339 337 336 330 331 334 334 332 332 332 331 330 332 333 330 331 330 332 335 335 336 330 332 336 337 338 341 341 342 342 340 341 342 333 329 334 330 334 329 336 337
342 341 337 334 332 330 331 334 334 332 331 329 330 331 332 333 332 336 332 335 336 338 337 331 334 336 337 339 342 344 345 345 342 344 344 333 325 329 329 335 337 335 333
341 337 336 335 332 331 330 333 334 333 331 330 330 332 333 333 338 337 336 336 338 339 340 337 338 338 339 340 341 344 344 338 341 340 344 334 328 331 330 336 330 332 324
339 339 338 337 335 334 333 333 333 334 333 331 330 332 334 334 339 337 339 339 341 339 339 339 338 337 342 343 345 345 345 341 337 336 337 337 331 328 328 333 329 330 329
343 342 340 338 337 337 336 334 333 334 334 331 331 333 334 336 346 344 344 341 341 338 337 344 342 342 342 343 344 345 341 341 340 333 335 340 328 326 325 331 327 327 332
344 343 343 341 339 338 339 336 334 334 334 331 331 333 336 343 347 344 341 340 340 337 341 344 345 346 346 346 343 343 341 342 342 338 340 339 332 327 328 327 324 324 330
344 344 342 341 340 339 338 337 336 334 332 331 331 333 344 348 345 342 343 342 340 338 339 344 344 342 342 344 342 343 342 341 342 342 338 340 340 330 325 328 326 327 330
345 344 344 340 339 338 336 335 334 332 331 331 332 338 344 345 344 339 341 345 341 338 341 344 344 342 342 342 344 343 340 340 343 341 341 340 338 339 328 324 326 329 328
346 343 343 342 337 335 332 331 331 330 331 332 335 337 347 346 347 344 344 342 343 335 343 343 343 342 341 342 342 341 339 338 337 336 339 338 338 339 339 328 325 327 328
348 348 343 340 335 333 332 332 333 333 334 335 338 340 346 345 344 346 345 345 342 344 345 343 342 343 343 340 337 337 336 337 336 336 336 337 336 335 339 338 329 327 326
349 348 345 343 337 335 335 342 334 340 340 344 346 347 345 346 342 346 344 346 344 344 344 343 344 341 342 340 340 337 337 337 336 336 336 336 336 335 337 339 339 330 327
348 348 348 346 344 341 342 345 342 347 346 348 347 347 348 343 345 346 343 344 345 344 346 345 344 344 342 342 344 336 337 337 336 339 337 338 337 336 336 338 338 341 333
347 348 349 347 345 340 344 347 348 348 348 348 347 348 350 346 347 346 343 345 345 345 345 344 342 342 343 337 336 336 335 337 337 335 334 338 339 338 336 336 338 338 339
347 348 349 347 345 344 346 347 350 350 349 347 346 348 349 349 348 347 345 341 343 346 345 345 342 341 342 340 333 336 336 337 338 336 337 337 337 341 339 338 336 337 338
346 349 349 348 346 346 346 346 348 350 347 347 347 348 348 349 349 347 344 343 344 346 345 344 343 342 340 337 334 335 336 336 338 337 336 337 340 338 341 341 338 336 337
349 349 350 350 348 349 346 344 347 346 348 346 344 346 348 349 349 346 344 345 343 344 343 343 343 342 338 329 336 335 335 336 338 337 335 335 337 338 338 338 340 341 336
350 348 350 350 350 350 349 347 344 346 345 346 346 347 346 349 348 344 347 344 345 346 343 342 342 331 327 336 335 335 333 337 336 336 333 333 333 332 333 335 335 338 339
349 348 349 350 350 350 351 351 348 346 343 344 344 347 349 346 345 348 347 344 343 343 344 340 340 325 335 336 335 334 336 336 334 333 333 328 330 329 329 329 331 333 335
349 348 349 348 348 349 351 351 350 350 342 345 345 346 345 344 347 349 346 344 342 341 342 344 340 324 335 335 334 335 338 338 337 333 332 330 330 330 328 326 327 327 326
347 348 348 348 348 349 349 350 352 351 347 346 348 347 347 349 349 350 346 344 345 338 344 346 333 329 336 336 334 332 334 337 336 333 332 330 331 330 331 328 328 329 326
347 347 348 348 348 348 349 349 351 351 350 345 347 347 350 348 348 350 349 347 344 336 341 342 328 321 335 336 335 334 334 331 332 334 334 332 332 331 331 331 329 329 330
347 347 347 348 348 348 349 349 349 349 349 348 344 348 352 350 349 349 350 340 337 340 328 325 325 329 321 335 335 334 334 331 331 330 332 333 332 332 332 332 331 330 330

GFSSE_850_thetae_021.txt.gz
Theta_e
342 341 342 342 343 342 333 330 331 332 332 332 332 330 331 330 332 333 333 333 333 333 336 338 340 340 337 333 333 337 337 335 326 324 322 332 333 334 332 335 335 328 332
343 341 342 342 342 336 332 329 329 332 331 331 330 331 331 332 332 332 333 334 333 332 334 335 338 338 340 338 338 338 340 341 337 326 330 339 338 336 333 331 327 323 326
341 342 342 342 338 334 334 333 335 333 330 331 330 331 331 332 331 331 333 334 334 333 332 333 334 338 339 339 339 342 343 342 339 330 328 339 340 334 334 330 327 331 334
341 342 342 339 333 334 336 336 334 331 331 330 329 331 332 330 329 329 333 334 334 333 331 334 336 336 339 340 340 342 342 341 341 335 330 329 338 336 332 328 329 337 334
342 343 343 336 331 333 334 334 332 331 331 329 329 331 332 330 332 330 334 335 336 333 330 335 337 337 339 340 341 341 341 340 337 337 330 327 328 336 330 328 326 333 334
343 343 340 331 329 331 333 332 332 332 331 330 331 332 332 335 334 333 335 337 339 335 333 336 337 339 340 342 343 344 345 341 338 340 324 326 328 331 332 331 336 336 334
342 341 338 333 329 331 333 332 332 330 329 330 332 333 334 337 337 337 338 339 339 338 336 338 338 340 341 342 343 343 340 339 342 335 336 324 328 329 334 339 335 326 329
341 337 334 333 330 330 332 332 332 330 329 329 332 333 336 338 338 339 340 340 338 338 337 337 340 342 344 344 344 343 340 341 335 334 341 325 327 334 339 336 330 328 319
337 336 334 332 330 329 330 331 333 332 331 330 333 333 337 343 342 342 341 340 337 338 342 341 342 342 343 344 343 339 341 342 337 334 338 333 326 330 334 332 329 331 320
338 337 336 334 333 332 331 331 332 333 331 330 332 334 338 346 344 341 340 339 336 338 344 344 344 344 344 341 341 342 342 342 340 340 336 338 329 325 324 332 327 330 330
340 339 338 337 337 337 335 333 332 333 332 330 332 338 345 344 342 343 343 338 337 342 344 345 342 341 341 343 342 341 340 341 341 340 339 339 333 327 327 328 325 324 331
343 342 341 339 338 338 337 334 333 333 331 330 332 341 343 344 341 342 343 340 337 341 344 343 342 340 341 342 345 341 340 341 340 339 340 339 339 334 327 328 326 327 329
343 343 341 340 339 338 337 336 334 332 331 330 331 341 344 345 344 346 342 344 339 338 342 342 342 340 342 338 338 337 338 337 336 335 335 335 337 340 336 326 326 329 329
343 343 343 340 339 337 335 334 332 330 330 331 335 340 345 344 344 344 343 343 342 344 343 341 341 342 341 337 334 335 335 335 335 335 336 335 335 336 340 334 328 326 329
346 343 343 342 337 335 332 330 330 331 332 333 339 341 343 343 344 345 343 344 344 344 342 342 342 342 342 340 338 336 336 336 335 336 336 336 335 333 337 340 334 329 326
347 346 343 341 336 333 331 333 333 334 337 338 343 345 346 344 344 346 343 342 343 343 344 341 343 343 344 342 342 335 336 336 335 338 336 337 337 335 335 338 339 338 330
347 347 341 340 337 334 333 341 334 342 340 346 345 346 347 345 345 347 345 344 344 344 344 345 344 343 343 337 337 336 334 334 335 335 334 336 338 337 335 336 338 339 340
344 347 347 345 344 341 336 344 342 347 347 348 345 346 348 349 347 347 346 344 343 345 345 345 344 342 342 338 335 333 335 336 338 336 337 337 336 340 338 337 336 338 338
345 344 348 348 346 344 340 345 346 348 347 347 347 346 347 349 349 347 346 343 344 346 345 343 342 339 341 339 338 333 335 334 338 334 336 338 338 338 339 338 338 335 334
344 344 346 349 347 345 343 345 345 349 349 348 346 346 347 348 349 348 345 344 345 341 343 340 343 340 340 335 333 335 336 336 337 335 334 333 336 337 336 337 337 338 337
344 345 345 348 349 346 345 347 346 347 350 348 347 345 345 346 348 348 347 346 345 342 343 340 339 342 330 331 336 334 334 336 338 336 335 333 330 331 332 330 335 338 338
347 346 346 348 349 347 347 346 345 344 347 347 347 345 345 346 347 348 345 347 344 342 343 342 341 339 328 336 333 334 335 335 336 336 333 330 329 329 328 327 330 333 336
348 348 348 348 348 349 348 348 347 346 345 346 346 345 345 346 348 345 347 348 343 342 341 343 341 337 332 335 335 333 336 336 333 332 331 329 329 329 327 327 327 326 326
347 346 348 349 348 350 349 349 349 348 347 346 344 345 345 345 346 346 348 348 344 343 340 340 344 332 332 335 334 333 335 336 336 333 330 329 330 329 330 329 329 329 327
347 347 348 348 348 349 349 349 349 349 349 348 341 343 345 346 344 346 349 349 346 345 341 339 342 331 331 335 335 332 331 336 336 336 333 330 330 330 330 331 330 330 330
347 346 346 347 348 348 349 349 349 349 349 348 346 344 346 347 347 348 349 348 348 345 341 336 331 330 324 333 335 334 332 330 331 333 334 333 331 332 332 331 331 330 330

GFSSE_850_thetae_027.txt.gz
Theta_e
345 346 346 346 345 342 344 344 342 339 339 334 331 331 332 333 333 332 333 335 341 343 343 336 336 335 330 334 333 336 328 325 322 322 331 336 334 330 331 334 340 343 335
345 345 345 345 345 345 344 343 339 340 335 331 330 331 332 333 333 333 332 342 341 340 342 340 337 335 334 335 336 337 337 325 328 339 337 333 334 335 334 330 339 338 338
345 345 344 345 344 343 342 340 340 335 332 330 330 332 331 332 333 334 333 333 340 338 338 337 339 339 338 338 340 342 337 327 333 338 336 342 339 330 325 323 330 339 339
343 344 343 340 337 339 340 338 334 331 330 330 331 331 329 331 333 334 333 333 341 340 339 338 339 339 339 340 341 342 341 334 327 332 341 342 343 329 335 328 335 328 329
342 343 342 334 332 334 334 332 331 330 331 331 331 329 330 332 335 335 334 332 341 339 338 338 339 340 340 340 341 341 339 336 330 327 338 341 344 332 336 335 337 336 330
342 343 338 332 329 332 332 331 330 330 330 331 330 334 331 335 336 338 334 340 345 338 337 338 339 341 343 343 342 342 340 339 339 326 330 338 344 327 328 335 335 334 334
343 342 335 331 332 334 331 331 331 329 331 332 333 336 334 336 338 338 339 340 340 337 339 342 343 343 344 342 341 338 339 339 339 335 326 340 341 331 337 338 333 334 335
343 343 341 335 335 334 331 331 329 330 331 332 336 336 336 339 339 338 339 338 338 338 341 344 343 343 342 341 341 340 337 337 335 338 327 333 337 339 336 335 328 332 333
343 344 343 336 334 332 332 331 330 330 332 333 337 337 340 340 341 339 338 338 338 339 342 342 342 341 340 340 340 341 340 337 335 338 329 332 334 339 336 330 324 334 332
344 343 341 337 333 332 332 330 329 329 331 333 336 342 341 341 340 339 338 337 342 341 341 342 340 340 340 340 339 340 340 340 337 337 337 328 334 335 335 328 329 321 326
344 343 337 333 331 331 331 331 330 330 330 333 334 343 343 342 342 340 337 337 342 344 344 341 339 340 340 340 341 339 339 339 338 339 339 332 336 334 334 331 333 329 324
345 343 335 328 329 331 331 331 332 331 330 332 336 344 344 341 342 340 338 338 341 342 343 341 341 341 340 338 337 340 339 339 337 336 337 338 335 333 329 339 338 331 330
343 340 336 333 330 329 329 330 331 333 331 330 334 344 342 341 344 343 342 338 338 343 343 343 341 341 338 333 331 335 338 336 334 333 335 337 338 338 329 337 331 336 333
339 335 334 332 331 329 329 330 331 332 333 330 332 342 344 344 343 341 342 338 338 340 342 342 342 341 340 335 334 333 335 334 336 335 336 334 336 340 342 331 334 330 335
336 336 336 334 333 334 335 334 332 332 333 330 331 339 344 343 344 342 343 342 343 343 341 342 341 342 341 339 339 334 334 334 336 337 335 335 335 335 339 341 336 332 328
338 338 337 337 336 336 336 336 335 334 332 330 331 337 343 341 343 344 343 344 344 343 343 343 341 341 341 341 341 334 332 334 333 337 336 337 335 335 336 339 340 335 328
340 340 340 339 339 338 337 336 335 333 331 330 333 340 343 343 344 345 346 344 344 344 344 344 344 341 342 337 338 334 333 333 332 333 335 338 341 336 335 336 338 339 337
342 342 341 341 339 338 337 335 333 331 330 331 336 344 343 345 346 345 346 346 345 344 344 344 342 340 341 338 335 332 334 334 335 336 336 336 336 341 338 336 335 337 338
342 342 341 342 341 338 336 334 330 330 332 335 336 341 342 344 347 348 345 346 344 343 345 344 343 343 339 340 336 335 334 332 337 333 334 335 337 335 339 335 337 335 335
343 343 341 341 340 340 337 333 331 333 335 336 344 345 343 345 346 347 347 347 344 344 344 344 342 343 340 338 333 330 334 335 334 334 334 333 337 336 337 337 338 340 338
343 344 343 343 339 339 337 334 332 338 335 341 345 346 347 346 346 346 347 346 346 345 345 343 343 339 340 337 333 335 335 335 336 335 333 336 331 334 330 328 334 337 337
345 342 345 342 339 339 340 337 334 336 337 344 344 346 346 346 345 345 346 347 347 346 346 344 344 342 340 327 336 336 336 335 336 336 334 329 326 329 328 326 331 333 335
345 342 342 341 339 342 345 344 342 337 341 344 347 348 346 346 345 344 346 347 347 347 347 344 343 344 341 332 334 335 335 335 337 336 335 330 328 328 329 328 326 325 325
344 342 341 342 342 344 346 346 345 340 340 341 344 345 347 347 347 345 345 346 348 347 348 345 343 344 342 333 334 334 333 335 336 336 334 332 329 329 329 329 329 328 327
347 344 342 342 343 343 344 346 347 345 343 343 343 342 343 345 346 345 346 346 347 346 348 347 344 340 343 329 334 333 332 333 336 336 336 335 332 330 330 330 330 330 330
347 347 345 344 344 344 345 345 346 347 346 345 343 344 344 344 345 346 345 345 346 346 349 348 345 338 339 328 331 334 334 334 334 336 337 336 335 334 330 331 331 331 330

GFSSE_850_thetae_030.txt.gz
Theta_e
337 338 341 340 337 338 339 343 338 332 332 331 331 332 333 333 333 334 340 343 344 343 338 340 340 333 334 333 337 338 326 323 321 328 332 334 334 337 337 338 342 343 336
344 342 340 339 338 337 342 341 336 336 332 331 331 332 333 333 333 339 342 340 341 342 341 336 335 333 336 336 338 340 326 329 337 336 336 333 336 331 334 340 346 339 337
344 345 345 342 341 344 343 337 338 335 331 331 332 332 333 334 334 333 337 341 338 337 337 339 339 337 338 340 342 338 329 333 339 337 342 343 342 330 328 339 339 339 339
347 346 346 345 344 343 339 338 336 332 331 331 332 331 332 334 334 334 341 340 339 338 338 338 339 338 339 341 341 341 333 328 332 338 344 343 340 327 323 327 337 338 339
345 348 346 343 342 340 338 337 333 331 331 332 330 329 332 335 335 336 340 342 339 337 337 339 340 340 340 341 342 339 337 333 328 344 346 344 340 340 336 340 333 330 336
348 350 340 340 341 338 336 333 331 331 331 331 331 331 334 336 338 341 343 344 337 337 339 341 342 343 343 343 342 341 339 340 341 341 344 344 342 334 338 341 338 331 327
349 348 341 338 336 334 332 331 331 331 331 331 335 333 335 338 338 338 342 340 337 341 343 343 343 342 340 340 338 337 339 339 345 341 344 342 337 335 341 335 337 337 338
348 346 344 331 332 332 331 331 330 330 332 334 336 336 338 339 338 339 339 337 340 343 343 343 342 341 340 341 341 339 336 341 346 341 342 344 334 337 336 332 332 336 337
348 345 344 342 337 332 332 330 330 331 333 337 336 338 339 340 339 338 338 337 339 342 342 342 340 340 341 339 341 340 339 337 346 343 341 341 340 339 334 326 336 333 333
347 344 344 345 346 346 334 330 331 331 333 336 338 341 341 340 340 339 338 340 341 342 342 339 340 340 340 340 338 340 340 342 344 344 340 341 338 338 331 330 322 331 322
347 344 343 344 346 346 346 333 330 331 333 334 343 344 345 352 351 350 341 340 343 344 341 339 339 340 342 337 337 338 343 342 342 341 345 331 337 336 333 334 327 329 322
347 344 343 344 345 345 344 342 343 342 343 346 347 347 351 350 349 349 343 341 341 344 343 340 340 342 341 338 338 341 345 342 341 341 340 337 333 336 332 336 335 331 325
348 344 343 345 346 345 345 346 345 345 345 345 343 348 351 350 348 351 349 347 347 343 347 348 348 346 342 339 336 336 340 339 338 338 335 336 338 337 332 339 336 331 332
348 346 344 344 346 346 345 345 345 345 345 344 344 342 346 349 351 352 350 348 344 347 347 348 347 347 346 343 339 337 336 338 338 338 336 334 336 341 336 336 331 331 333
347 347 346 346 346 346 346 344 344 346 345 344 344 344 350 350 351 351 351 349 348 349 348 347 346 347 342 340 341 339 338 338 339 339 341 334 333 336 341 338 332 336 331
346 346 346 346 346 344 345 346 347 347 346 345 344 344 343 348 346 351 350 349 349 350 350 346 346 347 342 342 344 341 336 338 338 339 339 338 335 334 337 339 339 336 328
346 345 346 346 347 341 341 340 345 346 346 344 343 339 342 342 344 346 349 349 349 351 343 345 346 346 344 340 340 337 337 338 339 338 340 342 341 336 334 338 338 339 336
345 346 347 346 347 346 346 345 345 346 346 343 342 344 342 344 345 346 347 349 350 347 346 350 347 345 341 338 339 338 336 339 339 338 339 342 341 343 337 335 336 338 339
347 348 349 349 348 349 347 348 345 346 344 343 342 346 345 343 345 347 353 352 347 351 349 348 347 346 341 340 338 337 335 338 336 336 338 340 341 340 342 335 335 335 335
349 349 350 350 350 349 349 348 348 346 342 342 343 345 344 342 344 346 352 346 348 350 350 349 343 344 342 340 337 335 337 338 337 337 336 337 341 340 341 343 342 340 337
350 351 351 351 350 348 349 348 346 344 343 342 344 343 344 342 344 345 351 348 351 350 347 347 347 345 342 340 335 337 337 337 337 337 336 336 337 338 337 338 340 340 339
349 350 351 350 346 341 347 348 346 344 343 343 345 348 346 345 346 345 345 349 350 351 345 346 341 345 342 335 337 337 336 336 336 336 336 335 335 334 334 335 340 341 338
348 350 351 348 347 342 348 350 348 345 345 346 346 350 350 345 345 345 343 346 350 348 350 346 345 345 341 337 336 339 336 336 336 336 338 336 337 334 334 336 336 338 337
348 350 351 351 350 348 340 348 346 345 344 345 346 349 351 347 346 346 344 345 345 351 352 348 349 346 343 338 338 337 337 339 337 338 336 338 337 336 336 335 335 336 335
349 350 351 351 346 351 342 346 351 348 347 346 347 349 351 352 347 351 346 345 346 346 350 349 347 343 346 337 338 338 337 337 337 337 338 337 338 336 337 336 335 335 336
349 350 351 351 341 343 341 341 349 351 349 348 349 350 351 350 351 347 350 345 346 347 347 351 348 344 341 336 337 338 336 336 336 337 337 337 337 337 336 335 336 336 335

GFSSE_850_thetae_033.txt.gz
Theta_e
335 341 343 338 338 340 342 337 332 330 331 332 333 333 334 333 334 339 342 343 343 339 339 340 334 334 333 335 338 326 323 322 329 333 334 334 338 338 337 342 344 343 339
337 340 340 337 338 342 343 335 331 332 332 332 333 334 334 333 340 342 340 340 342 341 336 336 333 336 336 339 340 328 334 335 331 335 331 331 330 334 340 345 346 336 340
339 337 339 337 338 341 341 335 333 332 331 332 333 333 335 339 333 336 340 338 337 337 339 339 337 337 340 342 341 334 331 338 335 341 343 344 337 333 341 343 341 337 338
337 343 345 337 338 343 338 338 336 332 331 332 332 333 337 335 336 341 342 340 338 338 339 339 339 339 341 341 341 336 329 330 336 344 345 341 337 326 334 340 340 339 338
343 349 346 340 344 342 338 337 333 331 331 332 330 332 334 335 336 341 342 338 337 338 339 340 340 340 341 342 341 338 336 329 344 344 343 341 345 331 329 331 332 334 343
349 348 344 344 343 339 337 333 331 331 332 330 330 332 336 344 343 343 342 336 339 341 342 343 343 342 342 340 338 339 340 340 342 344 345 343 344 337 340 341 338 332 329
350 350 345 343 342 338 334 331 331 331 331 333 332 335 337 338 337 341 337 339 343 343 343 343 341 340 339 339 337 337 339 342 341 344 344 344 327 337 338 334 335 334 333
349 346 346 342 342 335 332 331 332 331 331 336 334 336 338 338 339 338 337 341 343 343 342 341 341 340 340 341 340 336 339 344 342 343 343 344 336 337 332 334 336 337 336
346 345 347 346 338 332 331 330 330 332 334 336 336 339 339 338 338 338 337 340 343 342 341 340 340 341 338 338 340 339 339 343 344 340 342 341 337 337 327 334 335 335 334
346 344 344 345 346 346 334 329 331 332 336 336 339 340 340 339 338 338 338 339 342 341 339 339 338 336 334 335 337 337 342 344 345 340 343 338 338 335 329 328 334 327 336
345 343 342 344 346 348 347 336 331 332 334 339 341 340 347 350 349 348 342 341 342 342 339 339 336 343 342 337 332 338 345 344 343 344 345 328 335 338 334 329 326 323 325
345 343 342 344 345 346 344 338 345 344 344 347 349 342 351 350 350 352 337 341 341 342 341 340 341 343 345 346 341 344 343 338 341 343 339 334 332 335 331 336 331 328 322
345 343 344 345 345 345 344 343 345 344 346 348 350 351 350 350 351 347 347 346 345 342 346 347 348 344 342 342 337 341 337 342 340 342 336 335 333 333 336 333 333 330 328
346 344 343 345 345 345 346 344 344 344 345 345 347 344 348 350 350 351 349 349 347 348 349 349 348 347 344 341 337 337 337 340 338 343 337 332 339 335 329 338 331 334 332
346 344 344 346 346 347 348 345 345 345 344 344 346 348 351 350 349 349 350 349 349 349 348 346 347 346 344 341 344 343 339 336 338 342 340 331 333 340 338 335 335 332 333
347 345 345 346 347 348 347 348 346 345 346 345 345 347 344 349 347 350 349 349 348 349 349 348 347 346 346 342 340 339 338 340 335 341 342 334 330 333 339 340 333 331 327
347 346 346 347 348 348 348 349 348 347 346 345 345 346 350 346 347 349 350 348 349 349 344 346 349 348 342 342 340 335 338 340 337 339 344 344 342 335 333 338 340 337 333
347 348 347 346 348 349 349 349 348 347 346 345 344 345 346 343 349 350 352 350 351 348 347 348 345 344 343 338 339 338 338 337 339 336 341 343 343 343 335 333 337 338 340
348 348 348 348 347 349 350 350 350 347 347 346 344 344 346 344 345 351 351 350 347 350 349 345 347 342 339 339 340 338 338 337 340 338 338 339 340 343 342 335 333 335 336
348 348 349 349 348 349 351 351 350 348 348 346 344 344 349 349 346 349 352 353 347 351 348 348 345 343 342 339 338 335 338 339 338 339 338 341 340 338 342 338 340 340 336
347 349 350 350 350 351 351 351 349 348 347 345 344 344 348 351 352 353 354 353 349 349 348 348 347 344 343 338 337 337 338 337 338 337 337 338 338 340 337 339 342 344 340
349 350 351 351 351 351 352 351 349 348 345 344 344 345 348 352 353 354 353 352 350 351 347 343 344 346 341 337 341 337 337 336 336 338 336 335 337 335 335 337 339 341 343
348 351 352 352 352 352 352 351 350 348 345 345 345 346 350 354 354 354 355 349 354 350 350 350 346 345 343 337 339 343 338 338 336 336 336 338 336 334 335 337 338 338 339
348 351 352 353 352 352 350 352 350 348 346 345 346 346 350 353 354 355 352 353 352 350 350 351 350 349 341 338 337 341 343 343 342 337 338 338 337 337 336 337 337 337 336
347 349 351 352 353 352 352 351 352 349 346 346 346 347 348 353 354 353 356 353 352 350 350 347 352 343 346 342 340 338 338 336 339 340 339 338 338 337 339 335 337 338 337
347 349 351 353 352 351 351 346 351 350 348 347 347 348 350 351 354 354 355 354 351 353 354 353 352 350 346 344 340 340 340 340 340 339 339 340 340 338 337 337 337 336 337

GFSSE_850_thetae_036.txt.gz
Theta_e
339 340 337 335 333 335 336 333 331 332 334 339 333 333 333 333 337 341 342 342 338 339 340 335 333 333 334 339 326 324 321 322 326 327 330 333 337 337 343 344 346 336 337
337 339 336 335 335 339 337 332 332 332 335 333 333 333 334 340 341 338 338 341 340 337 336 334 336 336 341 338 328 336 336 333 333 330 330 330 336 338 344 346 348 338 341
335 335 337 341 342 341 339 332 333 332 333 332 334 337 338 332 336 337 337 337 337 338 338 337 337 340 340 339 329 330 335 338 342 344 342 343 330 339 345 345 338 337 340
334 338 336 340 341 340 337 334 332 332 332 332 341 343 336 336 341 339 339 337 338 339 339 339 339 340 341 338 334 326 334 339 343 342 341 341 331 335 341 338 339 338 337
341 345 336 338 342 341 339 336 332 331 332 330 333 335 335 333 341 339 336 337 338 339 340 340 340 341 343 341 339 335 343 343 343 344 344 344 340 324 334 336 337 340 339
346 348 338 339 342 343 338 333 331 331 331 330 331 335 338 339 342 337 338 341 341 342 342 341 341 341 337 337 338 338 339 343 344 341 342 341 337 338 337 339 335 338 328
348 351 337 343 343 337 334 331 331 332 331 332 333 337 337 336 340 336 341 342 342 342 340 339 339 339 339 338 336 339 338 343 344 345 345 338 331 337 335 335 329 328 327
349 350 342 342 342 335 331 331 331 331 334 333 335 338 338 338 338 337 342 343 342 341 339 339 339 338 337 337 337 339 342 342 345 344 343 334 336 331 335 337 337 336 331
348 350 341 343 338 333 331 331 331 332 336 335 337 338 337 338 337 336 342 342 341 340 339 338 338 336 337 336 337 340 342 338 341 343 340 334 335 327 330 335 335 334 336
345 348 346 345 335 331 330 330 331 333 336 336 339 340 340 338 338 336 339 341 340 339 337 337 337 334 332 334 336 343 345 343 340 346 341 335 335 327 328 333 327 334 333
346 346 347 347 338 343 332 329 332 334 337 339 340 340 345 348 348 347 342 340 341 339 338 338 340 344 338 336 339 343 344 343 343 344 342 328 333 328 328 323 325 326 333
345 344 345 345 347 346 346 331 332 333 337 346 348 334 346 347 349 351 338 339 340 341 341 338 343 344 345 347 342 338 339 343 345 342 339 333 330 330 331 329 328 322 325
343 342 344 345 346 345 345 334 340 343 345 349 347 335 343 348 347 348 345 347 345 345 346 338 343 344 346 345 344 338 341 343 342 341 338 330 327 330 333 333 329 328 323
343 342 344 345 345 344 345 341 345 344 347 348 347 344 348 346 348 342 347 349 349 347 346 347 346 345 340 337 340 344 340 341 343 341 338 328 336 327 335 330 332 330 331
345 343 345 346 342 344 347 343 345 345 345 345 347 340 350 348 350 346 351 348 350 349 346 348 348 346 342 337 342 339 339 337 339 342 338 330 335 335 327 335 329 330 332
346 344 345 346 343 345 347 345 346 345 344 346 346 345 347 352 350 349 349 348 348 349 347 349 346 345 343 341 337 338 341 339 336 343 337 334 330 336 340 336 332 333 329
346 344 344 346 347 345 346 348 345 347 347 344 346 346 344 350 348 347 350 349 349 347 346 344 344 345 343 340 338 338 336 337 339 341 343 343 342 334 336 339 337 333 330
346 345 345 346 348 344 345 346 345 348 346 347 345 346 344 343 350 346 349 351 344 347 347 345 344 346 339 341 337 339 338 338 337 342 344 344 342 342 335 334 337 338 339
347 346 346 346 347 347 346 347 345 347 348 346 346 345 345 341 344 348 348 348 349 349 348 346 344 344 340 339 339 337 337 336 340 338 338 338 341 340 339 338 334 335 336
348 347 346 347 348 348 347 348 350 349 347 347 346 344 345 346 342 345 351 351 350 349 346 344 345 340 342 340 338 338 339 339 339 339 338 340 342 341 341 339 339 341 336
348 348 348 347 347 348 348 348 351 348 348 347 346 344 344 347 344 343 349 352 348 348 350 344 341 342 343 339 335 339 338 339 337 337 339 339 339 336 341 336 340 342 337
348 349 348 347 348 350 348 349 348 350 348 348 345 345 344 346 349 346 346 353 352 351 346 341 345 347 342 337 340 338 338 337 336 337 336 336 337 335 336 338 338 339 343
349 348 348 348 349 349 349 351 350 349 348 348 345 344 345 346 348 349 351 349 352 351 351 347 335 344 341 337 342 344 341 337 337 337 335 335 335 335 334 338 339 339 338
348 348 348 349 349 350 349 351 351 349 349 347 345 345 346 347 346 352 352 348 351 346 351 348 340 345 346 336 335 342 343 343 337 337 338 338 336 336 336 337 337 330 335
347 351 349 349 350 352 349 354 351 351 349 345 346 346 346 347 351 349 354 348 344 348 354 350 348 343 340 343 337 337 338 338 340 339 338 339 338 338 338 337 338 338 337
348 352 353 351 352 351 351 348 354 351 349 347 346 347 346 349 353 352 354 353 348 344 353 352 347 342 344 341 341 341 339 337 339 338 340 338 338 338 338 338 336 336 338

GFSSE_850_thetae_039.txt.gz
Theta_e
341 340 337 335 334 333 333 331 331 336 333 333 332 331 334 338 340 341 339 337 338 338 334 334 333 336 334 326 329 321 325 328 328 329 329 332 335 343 344 343 337 336 338
338 335 339 333 335 335 331 331 336 334 333 333 333 335 337 337 336 339 342 337 337 335 334 336 338 337 330 326 335 333 331 329 327 328 334 335 335 342 346 344 338 340 339
336 334 335 335 337 336 330 332 338 332 333 335 338 331 333 335 337 336 336 337 338 337 337 338 340 336 330 325 334 334 340 343 341 340 337 331 337 343 345 340 339 339 336
334 334 337 340 338 334 331 338 332 332 333 342 339 333 337 341 337 336 337 338 338 338 338 339 340 342 338 332 327 338 342 341 341 342 341 336 334 341 339 339 338 337 337
336 339 341 340 339 333 333 331 332 331 331 334 334 332 337 339 335 337 338 338 339 340 340 340 342 339 337 338 332 342 343 341 342 343 341 339 327 338 338 338 339 336 334
338 338 339 338 337 336 333 331 331 331 330 332 335 334 339 340 337 340 341 341 340 339 338 338 337 337 337 338 336 342 343 342 343 343 342 338 334 327 333 336 339 327 335
345 337 338 338 338 339 332 330 331 330 331 334 337 335 337 338 339 341 341 341 339 338 337 337 335 337 337 337 338 341 343 343 344 341 340 336 338 338 334 328 327 327 335
347 345 339 340 340 334 331 330 331 332 333 335 337 337 337 338 339 342 341 340 339 338 338 337 337 337 338 337 337 341 343 345 343 343 336 336 329 332 334 336 333 330 333
348 340 341 338 335 332 330 331 331 335 334 336 338 337 338 337 338 342 340 339 338 336 333 334 337 337 337 339 342 340 342 343 342 342 334 331 325 327 331 334 334 335 335
349 343 341 335 333 330 330 331 332 336 335 338 339 338 337 337 336 340 341 339 337 335 334 337 336 333 337 341 344 341 338 341 343 342 341 333 326 327 329 329 335 331 335
347 343 337 333 332 329 329 330 333 335 338 340 339 341 344 347 345 342 340 341 339 335 336 340 343 337 336 339 343 342 341 341 344 344 339 329 330 325 324 323 330 332 334
345 340 334 331 330 329 329 331 333 338 342 341 338 342 343 346 343 341 340 341 341 340 338 342 343 345 344 342 341 342 343 344 342 342 334 331 328 326 326 324 321 325 331
346 340 339 333 332 331 329 330 332 344 347 343 337 336 341 344 342 344 341 341 343 346 343 342 344 343 341 342 344 340 342 343 343 340 333 333 326 326 328 328 326 321 324
345 341 343 342 341 340 337 330 342 345 344 348 343 342 343 336 344 344 347 348 346 345 345 344 345 340 339 343 342 342 342 344 342 340 331 332 333 325 327 329 327 327 323
343 341 343 344 343 345 346 341 344 344 346 348 345 342 345 344 347 349 348 347 349 345 344 344 345 340 336 336 339 339 340 342 341 341 332 331 338 327 331 329 332 329 329
343 342 343 344 341 344 346 342 345 346 345 348 346 343 344 345 347 347 349 348 348 347 343 343 343 338 334 338 336 339 340 338 338 341 341 332 334 339 337 333 329 326 329
345 343 344 344 340 344 348 347 345 347 345 347 346 346 344 348 346 349 348 348 348 346 345 344 343 341 339 339 335 338 336 338 338 342 342 342 341 333 337 339 333 329 325
347 344 345 345 344 343 346 346 345 344 346 346 343 345 345 344 347 347 346 347 346 349 345 345 345 341 340 341 337 338 338 337 338 339 338 340 340 340 335 333 338 338 337
347 346 346 345 346 345 342 343 344 343 345 346 347 345 345 340 346 343 346 348 345 347 345 346 344 344 340 339 338 338 337 337 336 339 338 340 340 339 338 335 334 335 336
346 346 344 344 345 345 343 339 341 344 344 345 348 346 344 344 341 343 348 345 347 348 346 345 344 343 340 339 340 339 337 338 339 338 339 340 340 340 339 337 340 338 336
343 347 344 345 345 345 346 338 338 337 346 347 347 346 344 344 346 343 345 349 348 350 347 344 341 337 338 338 337 339 338 339 339 338 340 339 338 336 338 338 340 338 337
349 347 345 345 346 345 346 345 339 341 345 343 346 346 344 344 344 344 342 351 349 351 344 343 341 341 342 336 338 337 335 336 337 338 339 339 335 335 336 338 337 337 339
348 347 346 346 346 345 344 347 344 346 349 348 347 344 346 344 343 343 345 347 352 351 350 345 341 344 339 337 342 341 339 337 337 337 335 336 335 337 334 335 336 336 334
348 348 347 347 347 345 345 347 347 343 350 348 348 345 343 345 344 343 344 348 347 351 346 348 336 344 341 336 340 343 344 339 336 336 336 335 336 336 335 336 336 331 334
348 348 347 347 348 347 347 347 347 346 347 348 349 346 344 343 346 343 343 350 346 348 345 349 341 344 343 337 335 340 340 339 337 338 338 338 336 337 337 337 338 337 337
348 349 348 347 348 348 347 348 347 347 347 348 347 347 345 345 346 349 348 351 347 345 347 352 347 341 337 340 340 340 335 339 339 339 338 339 338 338 338 337 336 338 335

GFSSE_850_thetae_042.txt.gz
Theta_e
341 341 335 337 332 333 329 332 332 332 331 331 334 338 340 340 339 339 336 336 337 333 333 333 337 327 331 324 322 325 325 327 329 332 334 337 340 343 342 338 337 341 338
341 339 336 339 333 331 331 334 332 332 332 336 338 337 336 339 340 337 338 337 333 335 336 337 335 326 334 333 327 329 328 329 332 334 335 338 342 344 342 337 339 338 338
338 336 333 334 330 330 333 332 332 333 336 332 332 335 335 336 339 343 345 336 336 336 339 337 331 326 332 332 333 337 337 335 335 332 333 338 342 345 342 339 337 336 337
336 334 334 336 329 330 334 331 332 336 343 333 336 338 337 337 337 337 338 338 338 338 339 341 341 334 327 339 342 341 340 339 337 334 330 334 343 342 338 337 336 336 335
336 333 335 333 330 332 331 332 331 334 334 333 334 338 336 336 337 338 339 339 339 339 341 339 336 338 331 337 341 340 340 340 338 341 335 331 339 339 337 336 335 335 334
334 337 339 332 330 330 330 331 330 331 334 334 335 345 336 339 339 340 340 338 338 337 337 336 337 336 336 341 342 342 342 340 341 342 337 327 330 335 337 339 328 335 336
340 339 339 333 331 330 330 330 330 331 335 335 334 338 337 341 340 340 338 337 337 338 337 337 337 336 337 340 343 341 343 342 340 340 338 336 336 332 330 330 328 335 335
339 339 336 337 335 330 330 331 332 332 336 337 335 337 337 341 341 339 338 337 337 338 337 337 337 337 338 338 342 343 342 342 342 335 334 330 332 331 331 329 332 334 335
337 338 337 339 332 330 330 331 334 333 336 336 337 336 337 341 341 339 338 336 336 336 335 335 336 338 338 340 342 343 341 342 338 334 331 325 328 333 334 332 333 334 335
343 338 336 333 330 329 330 331 335 334 337 337 336 336 336 339 340 339 338 337 335 336 337 331 334 338 341 340 340 341 339 342 342 340 331 328 327 328 330 330 334 334 335
342 338 336 331 330 329 330 333 335 336 338 337 336 337 337 336 340 340 339 338 337 337 340 342 339 336 341 342 339 340 340 341 343 340 333 330 324 324 322 329 330 331 332
344 339 334 330 329 329 331 334 335 338 339 337 341 344 339 337 337 339 339 340 340 338 341 343 344 343 340 341 341 341 342 340 344 340 332 330 327 325 322 323 327 331 329
343 341 333 329 328 328 331 334 339 341 338 336 340 343 344 339 337 338 339 343 345 343 340 343 343 340 343 344 343 342 343 342 342 335 331 329 329 326 327 322 322 326 329
345 338 332 329 328 328 330 333 344 345 343 342 341 341 339 345 345 343 345 345 346 344 343 344 341 339 343 343 342 342 343 343 340 333 329 333 329 327 326 326 325 322 324
344 336 330 329 329 329 330 336 343 343 346 345 343 341 337 343 345 345 346 346 345 344 344 342 342 337 338 339 338 338 338 341 339 334 330 336 332 327 329 329 328 328 326
345 341 330 332 331 330 340 341 344 345 346 347 345 341 345 346 346 344 346 346 347 344 343 340 338 340 338 339 340 339 338 338 339 339 336 333 337 337 332 331 328 328 330
345 340 335 336 336 340 340 343 345 346 346 346 346 344 344 344 344 345 346 346 343 344 342 341 340 336 335 335 338 336 338 338 340 340 340 340 337 335 338 337 330 329 326
344 340 341 340 338 342 344 343 345 347 345 345 346 345 345 344 342 346 346 347 345 344 346 344 341 338 336 338 338 338 338 336 340 338 340 339 339 336 333 337 338 338 336
344 341 342 343 342 342 343 343 346 346 346 346 344 344 345 343 342 342 346 349 343 345 344 343 344 340 339 338 338 338 337 336 338 338 338 340 338 337 336 334 336 334 335
345 344 342 343 343 341 342 341 344 346 345 346 348 346 345 344 339 342 344 347 344 344 345 344 345 341 341 339 338 338 337 338 338 338 338 340 339 339 336 338 339 336 334
348 347 345 343 344 343 343 342 342 346 344 345 347 348 345 344 344 342 345 343 345 344 346 346 344 341 340 338 339 339 339 338 339 338 339 339 336 337 335 338 340 336 337
347 347 346 344 345 345 344 342 339 343 342 344 346 347 346 345 343 344 342 347 346 346 348 343 342 340 339 336 338 338 338 337 337 339 339 339 334 335 335 333 335 335 336
347 347 347 345 344 344 344 342 338 336 339 341 344 346 345 345 344 343 342 346 347 347 349 345 340 341 336 336 338 337 336 337 338 339 338 338 335 335 334 336 334 333 331
346 346 346 345 344 344 344 343 342 335 334 336 340 345 346 345 346 344 342 342 345 350 349 348 340 342 336 336 337 339 339 337 337 339 337 336 336 336 334 336 337 336 335
349 346 343 346 345 344 345 345 340 341 335 337 342 345 345 344 346 344 344 343 347 346 349 348 336 344 341 337 339 342 343 338 337 336 335 335 336 336 336 336 337 337 336
350 349 347 346 345 345 345 346 344 341 340 339 345 347 348 344 343 343 346 342 347 345 345 345 346 339 344 336 337 337 340 339 337 337 337 337 338 337 337 337 337 336 336

GFSSE_850_thetae_045.txt.gz
Theta_e
340 336 331 336 331 334 334 332 333 340 341 343 341 341 340 341 341 340 337 338 333 331 331 335 329 326 323 326 325 328 332 333 332 336 334 335 339 338 337 335 339 337 335
336 336 331 334 330 333 332 332 331 333 335 339 340 342 342 341 338 336 337 334 334 335 337 331 326 334 325 323 326 328 328 328 331 333 338 342 342 338 335 338 338 337 334
334 334 335 333 330 333 332 332 333 338 335 337 340 341 343 338 338 341 334 335 336 338 333 327 328 333 336 331 328 328 331 333 334 334 337 340 343 342 337 338 336 336 334
333 336 334 330 331 332 331 333 338 331 334 339 342 339 341 343 344 343 336 337 338 340 340 336 329 336 338 339 339 337 336 333 331 334 337 340 343 339 338 337 339 335 335
334 334 332 329 332 331 331 334 342 333 334 342 341 344 344 342 338 338 338 338 339 340 338 338 336 334 339 340 339 339 335 334 331 329 333 340 339 338 337 335 335 334 332
333 335 330 330 333 331 331 332 339 332 333 343 341 337 337 338 340 340 339 338 338 337 337 336 337 335 340 341 339 340 338 340 338 332 331 337 337 336 336 334 333 332 332
333 333 330 330 330 331 330 330 332 334 334 345 341 339 339 339 337 336 337 337 336 336 336 336 336 337 340 340 340 339 338 339 337 337 331 328 333 338 336 327 336 336 335
334 333 330 330 330 330 330 331 332 335 333 338 336 340 340 339 338 338 337 336 335 335 335 336 337 336 338 341 342 340 340 340 333 332 334 336 332 328 327 330 334 336 335
337 336 331 330 329 330 331 332 333 336 336 336 336 340 340 338 338 337 334 334 334 333 335 336 337 336 337 341 342 339 340 336 333 331 326 329 332 333 329 336 336 335 335
337 333 336 332 329 330 331 334 334 336 336 336 336 338 340 338 338 337 334 335 336 335 332 335 339 339 340 341 341 338 342 340 339 332 326 325 328 331 331 334 336 337 335
339 336 333 330 329 330 331 334 334 337 336 336 335 336 339 338 338 338 336 335 339 341 341 338 337 341 339 338 338 339 341 342 342 334 331 326 328 326 329 331 335 333 335
337 339 334 330 329 330 332 334 335 337 336 336 337 336 337 338 338 339 339 338 337 339 342 344 342 339 341 340 339 339 339 343 343 335 331 328 326 323 331 335 331 330 333
338 339 332 329 329 330 334 334 337 338 337 339 343 338 336 336 337 339 340 341 340 341 342 343 341 343 341 341 341 341 341 342 342 334 331 329 326 325 321 324 329 330 334
337 338 331 329 328 330 334 337 339 337 336 339 341 343 342 336 338 339 343 344 344 343 343 340 340 344 343 341 341 341 342 342 339 332 332 331 328 327 327 323 322 324 326
340 338 331 328 328 329 332 339 342 342 341 341 340 339 342 345 344 342 344 345 343 343 343 342 339 339 340 340 340 339 340 341 334 331 332 334 327 329 328 327 326 323 322
341 338 332 328 328 328 332 341 343 345 345 344 341 343 342 345 345 345 344 345 345 345 342 341 342 341 339 338 337 337 337 340 337 334 334 336 335 331 331 329 328 328 327
342 336 332 328 328 328 333 339 344 345 345 346 342 342 345 346 344 344 344 342 341 341 339 339 338 337 339 339 338 336 336 339 339 339 339 336 335 337 338 334 329 327 327
343 341 332 328 329 330 337 342 344 345 345 346 345 344 343 344 342 344 345 345 342 342 341 338 338 338 337 337 338 337 336 340 339 340 339 338 336 333 335 337 337 337 333
342 343 339 329 331 330 338 343 344 345 345 345 346 345 345 344 342 344 346 345 344 341 341 342 338 337 339 338 337 338 336 337 338 337 340 338 337 336 334 335 335 334 335
344 344 337 335 335 337 339 342 343 346 345 345 344 345 345 343 340 341 342 348 342 343 343 343 341 340 337 338 337 338 337 338 338 338 340 338 338 335 336 338 336 334 334
345 344 340 340 340 339 341 342 344 346 345 345 344 346 345 344 343 340 342 345 343 343 344 344 343 340 341 339 338 337 337 338 339 339 338 338 336 334 333 338 337 335 335
346 346 343 341 341 342 341 341 341 344 345 345 345 346 347 344 344 343 343 344 345 344 343 346 343 340 339 337 339 338 339 337 337 339 338 339 334 334 333 333 333 334 333
347 347 346 344 343 342 343 342 343 342 344 344 345 345 346 346 345 344 343 342 346 343 343 344 341 340 339 336 338 338 337 336 337 338 339 338 334 335 334 335 335 329 331
345 347 347 345 346 344 343 343 343 342 340 342 344 345 345 345 344 344 343 342 345 346 343 347 341 341 339 335 338 338 334 336 336 338 338 337 336 336 334 336 336 335 335
346 345 347 347 347 346 343 344 344 343 338 337 340 339 344 345 344 343 344 342 342 344 348 348 346 342 337 335 336 339 338 337 336 335 335 336 335 336 335 335 336 337 335
346 345 345 346 346 346 344 344 344 343 339 334 332 334 342 344 344 342 343 344 342 344 345 347 345 341 343 337 337 339 341 339 337 336 336 336 337 337 337 337 336 336 336

GFSSE_850_thetae_048.txt.gz
Theta_e
338 335 334 330 337 332 334 334 335 333 334 334 333 332 332 332 332 336 340 338 331 329 332 333 326 324 330 327 332 336 339 338 338 336 333 341 337 335 336 339 338 341 337
334 333 333 334 340 332 332 341 338 339 340 340 339 339 340 338 339 340 337 332 332 340 335 326 333 325 323 326 327 329 330 331 332 333 337 342 340 334 339 339 343 335 338
333 334 335 337 336 333 331 332 334 339 340 341 340 341 340 339 340 337 338 334 340 338 327 330 339 336 328 329 331 335 335 332 331 335 340 341 342 336 340 340 335 336 333
332 335 333 340 333 332 332 339 339 340 340 339 343 341 339 341 339 334 337 339 341 339 336 331 332 332 330 328 329 331 330 331 332 335 338 340 342 339 340 339 335 334 334
334 335 330 341 332 332 338 339 332 339 340 340 340 341 343 342 341 337 337 339 341 339 338 331 339 341 340 339 337 333 330 329 334 334 340 342 338 340 337 336 334 332 335
335 331 330 340 331 332 342 342 332 342 341 342 343 343 340 339 338 338 339 340 337 336 336 335 334 339 339 338 338 335 336 335 328 334 338 337 337 339 334 333 331 330 335
334 329 332 336 331 331 340 336 332 340 342 337 343 340 341 341 339 340 338 335 336 336 335 336 337 340 340 340 336 337 336 336 334 328 329 335 336 337 336 336 335 335 335
331 329 333 332 332 330 332 333 333 338 343 339 343 338 337 343 338 336 336 335 334 335 336 336 337 339 340 340 339 339 337 332 331 335 335 332 338 332 332 336 337 335 335
331 329 331 330 335 330 331 333 334 333 338 341 340 338 337 336 335 334 334 333 334 335 337 337 336 336 341 340 339 338 338 333 330 327 331 332 328 331 335 334 335 334 332
332 329 330 330 330 331 332 333 336 335 336 338 339 338 337 336 334 334 334 334 333 334 337 339 336 336 339 341 338 339 339 337 332 327 325 329 336 331 338 335 335 335 333
336 331 331 329 330 331 333 334 336 336 336 336 339 337 337 336 334 334 337 339 339 339 338 340 340 339 337 337 338 340 342 341 335 330 327 333 328 332 331 333 335 333 334
338 335 334 329 330 331 334 334 336 336 336 335 336 338 337 337 337 336 336 338 338 341 344 340 340 339 338 338 338 339 341 342 339 332 330 335 335 337 331 336 331 333 333
333 334 332 329 330 331 334 335 337 336 335 335 335 336 337 337 338 339 339 337 341 343 343 341 342 341 339 341 340 341 341 341 341 333 329 332 325 323 325 328 331 334 334
334 333 331 329 329 331 334 335 338 337 338 341 338 336 335 336 337 340 342 343 343 342 342 341 342 341 341 339 340 342 340 341 338 332 331 331 326 326 323 327 333 328 329
334 333 330 329 329 332 334 337 337 335 338 341 341 341 339 337 340 341 343 343 343 342 342 340 341 341 339 341 339 340 341 338 335 331 333 328 328 327 326 325 323 322 324
334 333 329 328 328 331 335 339 338 339 339 340 339 339 342 342 344 343 344 343 343 343 342 340 339 339 337 337 337 337 340 338 334 333 335 335 330 331 329 329 327 327 326
334 334 330 327 327 330 334 342 344 344 343 342 343 342 344 344 344 344 343 344 343 342 340 337 340 338 337 337 336 336 339 338 338 338 337 336 337 338 336 332 329 327 329
336 336 333 328 327 329 333 341 343 345 346 346 342 344 343 343 343 345 345 341 341 341 340 339 337 337 337 338 337 336 339 339 339 338 338 336 334 335 336 337 337 336 332
337 337 335 329 328 328 331 338 344 344 345 345 345 343 344 344 343 345 345 343 341 341 341 339 337 337 339 339 337 336 338 339 338 340 337 337 335 335 334 335 334 334 335
340 337 334 330 328 328 334 342 343 344 345 345 346 344 344 344 344 343 345 344 340 340 341 340 338 339 340 338 337 338 337 338 340 339 339 337 336 335 337 336 334 335 334
343 341 339 333 328 329 336 340 342 343 345 343 343 344 345 344 342 341 342 346 341 341 343 343 341 339 338 337 337 337 337 338 339 339 338 337 337 333 336 338 336 334 332
345 341 342 342 330 332 332 338 342 342 344 345 345 344 345 344 343 342 342 343 343 341 342 344 343 341 340 338 337 334 338 337 337 338 338 338 335 333 333 334 334 334 332
346 344 342 341 332 335 336 339 341 343 345 345 345 345 345 345 344 343 344 343 344 345 343 345 341 340 339 337 339 338 337 337 336 338 338 338 335 334 335 335 332 330 330
345 346 344 342 338 340 341 340 341 341 342 344 345 344 344 344 344 344 344 343 342 345 343 345 342 340 340 339 337 338 335 335 336 336 337 336 336 335 334 336 336 335 333
344 345 346 344 343 341 341 342 342 342 342 342 343 344 344 344 344 344 344 344 342 342 347 345 347 339 341 335 336 337 336 335 336 336 335 336 336 335 336 335 336 336 334
345 345 345 344 345 344 344 344 342 342 343 342 342 342 342 343 343 344 343 344 344 343 344 345 347 341 342 335 335 337 339 339 337 336 336 336 337 337 337 336 337 336 336

GFSSE_850_thetae_051.txt.gz
Theta_e
343 336 333 337 331 332 332 333 335 335 333 337 342 343 342 333 330 330 336 333 330 329 332 329 325 326 327 331 336 338 341 340 337 336 341 341 341 342 342 342 342 343 337
339 332 337 335 339 338 333 334 333 333 333 332 333 334 332 331 333 337 334 332 339 339 326 332 328 333 326 327 332 334 335 333 335 337 340 341 336 339 340 340 339 342 334
334 332 343 334 336 342 337 335 339 339 338 337 338 339 337 337 336 336 333 338 339 328 329 340 337 329 338 338 337 333 331 331 338 340 342 345 342 341 342 338 340 332 333
335 341 340 335 337 333 335 337 340 339 340 339 339 338 338 339 336 340 339 341 339 339 333 332 334 329 329 330 332 332 332 331 335 338 344 347 345 340 340 335 339 335 339
335 341 338 340 332 341 342 339 341 341 340 343 341 339 341 340 334 338 341 341 341 338 333 337 339 338 337 336 332 330 332 334 336 340 343 342 346 340 337 338 333 336 334
335 342 339 340 333 337 331 336 338 340 339 340 340 342 342 341 341 338 340 338 336 336 334 338 340 338 338 334 332 334 332 331 336 341 342 339 344 335 334 331 330 333 331
342 343 341 333 339 343 338 335 341 340 342 342 342 340 342 344 341 339 337 336 336 335 335 333 339 339 338 336 337 335 336 330 336 338 341 341 340 339 337 335 332 333 333
337 344 339 334 337 342 335 333 341 338 341 341 342 345 344 339 337 335 334 333 334 336 335 338 339 339 339 337 338 335 333 333 331 336 339 342 334 330 335 335 334 334 328
339 343 339 342 333 340 333 332 342 340 341 342 343 343 338 336 335 332 334 334 336 337 336 336 338 341 339 338 337 335 332 327 328 336 340 340 329 336 333 336 334 332 332
341 342 333 342 331 335 334 333 336 340 340 341 341 338 335 334 333 333 334 335 336 339 337 335 336 339 339 337 337 338 335 331 326 329 339 337 332 338 336 335 335 335 333
341 342 334 342 331 331 334 336 334 336 339 339 337 336 335 333 335 336 338 339 338 338 340 339 338 337 337 338 339 340 341 336 333 334 340 334 336 335 337 336 333 333 332
342 342 335 332 331 332 335 336 336 340 338 339 337 337 336 333 334 337 339 339 341 343 339 340 338 337 340 340 339 340 341 339 332 334 340 337 336 330 331 337 331 334 333
342 340 330 329 331 333 334 336 336 336 335 337 338 337 337 337 336 337 338 341 342 343 342 342 340 339 340 340 340 341 341 339 335 338 339 333 329 335 338 330 329 336 330
343 334 330 329 331 334 333 336 335 335 335 335 335 337 336 337 339 340 339 343 341 341 341 341 341 340 338 339 341 340 340 338 334 335 332 328 326 324 325 331 331 333 331
341 333 329 329 330 333 334 336 337 337 339 339 335 335 335 336 338 342 343 343 342 342 341 341 341 340 340 338 339 341 338 336 331 334 338 327 328 327 325 327 324 323 325
334 329 330 329 330 333 334 337 337 337 341 339 341 341 338 340 343 343 344 343 343 343 340 339 340 338 338 337 337 340 340 336 335 335 337 333 331 332 329 328 327 326 325
330 329 329 329 330 333 336 337 337 337 339 340 338 341 343 344 344 344 345 344 344 343 340 340 338 338 337 337 336 338 339 337 338 337 336 337 339 338 336 330 329 326 329
332 330 328 329 329 333 337 339 340 342 342 342 342 343 345 344 343 344 343 343 342 340 338 338 337 338 338 337 336 337 339 339 338 337 337 338 334 339 337 337 338 337 333
333 331 328 328 328 331 335 342 344 345 345 344 343 344 345 344 342 345 344 342 342 339 335 336 336 337 338 337 337 337 339 339 339 337 337 336 335 335 340 335 334 334 334
335 334 331 327 327 328 332 341 344 344 344 345 344 343 344 344 344 345 344 344 342 341 342 337 336 339 339 337 337 336 337 339 339 339 337 337 335 335 336 335 335 340 333
339 336 335 329 327 327 330 334 342 343 344 345 344 344 344 344 343 343 344 345 341 340 340 342 340 339 339 337 337 337 337 338 338 338 338 336 334 333 336 338 336 334 333
342 339 338 334 328 328 329 334 341 341 343 344 343 343 344 344 342 342 342 346 342 340 342 343 342 340 340 337 337 336 340 338 337 338 337 337 335 334 334 335 332 331 328
344 341 340 335 331 328 328 335 341 342 342 345 344 344 344 344 344 343 343 343 343 343 343 343 345 343 339 338 337 337 337 338 337 337 337 337 335 334 335 335 332 331 328
344 340 340 338 337 330 329 332 335 339 341 341 344 344 344 345 344 344 343 344 343 344 343 344 342 340 339 339 337 338 338 335 339 339 336 336 335 335 335 335 336 334 333
345 342 343 341 341 342 330 331 332 337 339 340 342 344 344 344 344 344 344 344 344 343 345 344 345 339 340 340 336 337 336 334 336 338 339 340 336 336 336 336 336 336 334
347 345 344 343 342 341 333 335 336 338 340 340 341 343 344 344 344 344 344 343 344 343 343 346 345 347 340 340 335 337 338 341 341 338 338 338 338 337 337 337 337 336 336

GFSSE_850_thetae_054.txt.gz
Theta_e
347 342 341 345 344 343 342 343 342 342 342 342 341 341 342 333 329 330 336 331 330 332 332 327 328 332 338 337 337 341 341 341 339 341 339 339 341 341 340 343 346 343 338
348 343 336 337 340 338 339 340 339 335 334 341 342 342 338 330 332 339 332 339 338 326 330 330 338 327 331 337 338 340 340 339 339 340 339 337 339 343 339 343 341 338 335
344 345 338 337 336 336 335 333 333 332 333 335 336 335 333 335 338 333 337 340 330 330 342 340 328 342 340 335 334 332 337 338 340 343 346 347 345 340 338 339 332 335 333
343 345 344 340 341 341 340 339 339 339 337 338 338 338 338 337 336 334 340 338 340 335 333 336 331 329 331 333 334 335 333 336 339 343 348 347 347 340 337 338 338 334 337
343 345 341 337 335 334 339 341 339 340 339 339 339 338 340 337 340 341 341 341 340 337 337 336 337 337 336 333 331 334 333 336 339 348 350 345 346 339 337 336 337 340 340
343 344 339 334 344 343 339 341 342 339 342 341 339 341 339 335 338 340 340 337 336 335 339 340 338 338 334 332 334 331 335 337 348 346 349 346 345 335 332 334 335 333 328
343 345 345 336 339 332 338 338 340 340 341 339 341 341 342 342 340 339 336 338 335 335 333 338 339 337 336 337 335 334 330 342 346 345 346 349 342 338 335 335 338 333 338
343 344 344 340 343 338 339 341 340 341 341 341 342 344 342 340 338 334 333 335 336 335 338 339 339 336 337 336 334 334 332 340 343 344 346 343 336 336 337 335 337 329 326
343 343 344 346 343 335 334 341 337 341 340 343 342 341 338 335 332 332 333 337 337 336 338 339 341 339 337 337 334 330 329 341 344 344 343 342 337 334 336 334 332 331 331
343 343 345 345 349 346 337 343 339 342 340 342 341 336 334 331 331 334 336 338 338 335 334 339 340 339 336 336 336 332 333 339 340 341 342 338 340 337 337 335 334 332 333
343 343 345 343 345 346 346 342 343 341 342 341 338 334 345 345 345 347 339 338 340 339 338 337 339 337 339 339 339 337 341 340 340 341 339 332 338 338 336 336 333 332 332
342 342 344 344 345 346 346 341 348 348 347 348 347 346 346 347 347 346 342 341 340 339 339 337 337 342 346 345 344 344 342 342 340 341 339 335 331 331 338 331 333 333 334
341 341 343 344 346 346 348 347 348 348 348 348 344 346 346 346 345 347 347 348 347 346 345 346 343 345 345 345 346 344 343 343 340 340 330 336 338 338 333 328 334 331 330
341 342 343 345 347 346 348 347 347 347 347 346 345 337 342 346 347 347 348 348 348 347 347 347 346 346 347 347 346 345 344 343 340 339 330 325 325 324 328 330 335 335 332
341 343 342 345 347 347 348 347 346 346 345 345 343 340 346 347 349 347 347 349 348 347 346 347 346 346 347 346 345 346 344 344 343 340 342 326 326 326 331 335 324 325 327
340 342 343 345 345 347 348 348 348 348 348 346 345 343 337 347 348 350 344 349 349 346 345 345 346 343 341 342 346 346 345 345 344 344 343 335 331 328 328 328 327 325 325
342 342 344 345 344 346 348 347 348 348 347 348 347 339 340 344 343 349 350 349 349 348 343 343 342 342 340 341 344 346 345 345 344 345 346 345 342 338 335 330 328 327 329
341 342 344 343 343 345 347 346 346 347 347 347 347 346 343 344 344 343 346 348 349 347 344 344 343 341 341 340 342 344 345 343 344 344 345 346 345 344 341 336 337 337 335
343 343 345 344 343 344 344 346 347 347 349 349 349 351 345 345 343 346 349 346 346 345 344 342 341 340 340 338 340 342 343 341 342 341 342 344 344 344 344 339 334 334 333
343 344 345 344 344 341 343 342 346 347 348 349 349 350 344 347 343 346 350 342 344 346 344 344 343 342 341 339 338 341 342 342 342 341 340 340 340 341 341 343 343 344 334
344 345 345 345 345 337 340 345 347 347 348 349 349 346 344 344 343 344 346 345 346 347 349 345 342 341 341 341 338 340 339 340 342 341 340 339 341 341 340 340 341 340 341
346 345 345 345 345 330 339 343 346 347 347 349 349 346 344 344 340 348 348 347 347 346 347 345 344 344 343 340 341 338 339 337 339 340 340 341 341 341 341 340 340 340 339
346 347 346 344 342 329 340 341 345 348 349 351 351 348 347 344 343 343 342 346 345 349 346 344 344 345 342 343 339 340 336 339 338 340 341 341 342 342 342 342 341 339 338
345 348 348 346 335 329 329 340 342 346 346 346 348 348 349 344 344 344 343 343 343 348 346 346 348 347 342 341 343 340 338 339 341 341 341 341 342 342 343 342 341 342 340
345 346 349 348 340 337 328 336 341 344 343 345 347 350 351 346 345 348 343 343 343 342 345 348 345 342 343 343 341 342 343 340 338 340 340 341 341 340 341 342 341 341 342
347 346 348 349 339 336 332 328 335 341 342 344 347 349 349 349 349 345 344 343 343 346 343 346 349 343 345 343 341 342 342 342 342 341 340 341 340 340 340 340 340 340 341

GFSSE_850_thetae_057.txt.gz
Theta_e
347 348 345 345 343 342 344 343 341 341 341 340 340 340 337 330 330 339 332 333 334 331 328 329 334 341 334 337 339 340 340 338 338 335 339 341 340 342 345 345 344 343 338
349 348 348 347 343 343 344 342 342 342 342 341 341 342 333 330 338 333 340 338 326 332 331 335 328 333 335 337 340 340 340 339 339 336 336 341 341 341 345 342 336 337 333
345 348 346 344 341 340 340 339 336 332 338 342 342 340 331 336 336 334 343 334 333 343 338 329 343 337 332 335 336 339 339 339 343 346 348 347 342 340 339 331 334 335 337
344 342 344 333 332 333 338 333 333 333 334 336 336 334 337 337 334 339 339 342 338 334 335 330 330 332 334 335 333 330 335 339 344 346 347 347 345 338 334 337 335 335 334
342 344 342 339 340 340 343 343 343 339 337 338 339 338 337 339 340 341 341 341 337 336 336 337 337 333 332 332 333 333 337 341 346 348 346 345 344 335 339 338 341 339 338
343 346 337 336 334 340 341 340 340 340 339 339 339 341 337 338 340 341 338 336 335 340 340 338 335 332 332 331 333 334 337 345 346 348 348 346 342 338 340 337 335 333 331
344 346 340 342 341 341 342 342 338 341 342 341 342 340 338 339 339 336 339 335 334 336 338 338 336 335 334 332 329 333 344 344 345 347 345 345 341 335 336 335 335 337 325
343 344 345 339 332 338 338 340 340 341 339 340 342 342 340 337 334 333 335 336 334 338 339 337 335 335 333 333 333 334 341 345 347 345 345 343 336 338 336 337 328 326 329
343 344 347 347 338 341 341 340 340 340 341 345 340 337 337 332 332 334 337 336 337 339 340 340 338 335 334 331 329 336 344 344 343 345 344 344 336 337 336 335 334 334 336
344 342 346 348 348 347 345 340 341 341 342 341 336 332 330 331 336 340 339 336 336 337 340 339 337 336 336 334 331 338 340 341 341 343 344 339 337 337 335 334 333 335 331
343 341 342 345 346 347 348 341 341 340 341 339 334 343 345 346 347 346 340 339 336 335 337 339 337 338 338 336 339 341 342 341 341 341 341 339 338 335 336 335 333 332 331
342 342 340 342 344 345 346 346 348 346 348 347 342 347 348 347 346 345 340 339 339 337 336 336 343 345 347 346 346 344 341 340 342 342 335 331 331 337 334 333 333 333 333
342 341 341 343 344 344 346 348 346 348 349 348 346 348 345 345 346 347 346 345 341 343 343 340 346 346 345 346 345 342 342 340 341 343 338 336 337 337 329 334 331 330 330
342 341 342 344 345 348 345 346 347 347 348 345 346 347 346 347 348 348 347 347 347 347 345 346 347 345 347 343 345 345 344 341 339 342 324 326 324 326 329 335 335 333 333
342 340 342 344 346 349 345 348 347 346 344 345 347 347 347 347 347 348 349 347 345 345 343 343 344 347 343 344 346 346 343 342 341 344 334 325 324 328 336 336 323 325 326
342 341 343 344 347 347 347 347 346 345 346 343 344 346 347 349 348 349 348 347 346 347 345 344 345 344 344 343 343 345 345 343 344 345 343 331 327 326 326 326 326 326 324
342 342 343 346 347 348 350 347 346 345 345 345 344 345 348 349 347 350 347 348 348 349 345 342 342 339 340 342 343 346 343 345 345 346 345 346 344 338 336 330 326 326 327
341 342 345 344 346 347 348 348 349 346 346 348 347 348 350 350 345 349 348 346 346 346 347 345 343 342 340 341 344 346 344 343 344 344 345 345 344 347 344 336 336 337 336
342 343 345 345 346 347 349 348 348 348 347 346 347 349 351 351 344 350 346 349 347 346 344 343 342 342 338 339 342 343 343 342 344 342 342 344 342 345 343 341 336 335 332
343 343 345 345 346 348 349 350 348 348 348 348 348 349 350 350 345 351 348 345 349 346 343 343 342 342 339 340 340 342 342 342 341 342 340 341 340 342 345 339 342 341 338
344 344 345 346 346 347 348 348 348 348 348 350 348 352 351 353 346 345 351 342 348 349 345 346 337 340 340 340 338 340 340 340 341 340 339 340 340 341 339 341 345 345 344
345 345 345 346 346 347 347 347 348 348 347 348 347 350 351 350 350 351 350 349 346 348 350 347 348 343 342 339 340 341 341 339 340 341 339 339 340 341 342 341 341 338 339
345 345 345 346 346 346 345 346 349 348 348 347 349 350 352 352 352 354 346 350 345 347 349 348 343 346 344 340 341 342 340 342 341 339 340 341 342 343 342 341 341 341 341
345 347 346 346 345 345 343 345 347 347 346 347 349 349 351 352 353 352 351 351 350 351 349 349 348 348 346 341 340 341 342 342 342 342 341 341 342 342 344 343 344 343 342
345 348 348 347 345 345 335 343 345 347 347 347 347 350 349 351 354 352 353 352 350 347 350 351 349 344 343 346 341 341 342 340 341 342 344 342 342 341 341 344 342 342 344
346 347 348 348 346 341 339 334 343 344 346 345 346 351 348 352 352 353 353 351 352 351 346 352 352 342 349 345 345 342 342 341 342 341 339 340 339 341 340 341 342 341 342

GFSSE_850_thetae_060.txt.gz
Theta_e
347 339 340 341 342 343 342 342 341 339 339 339 340 337 330 330 337 333 336 332 330 330 329 336 339 333 336 338 339 339 337 335 336 339 338 338 343 344 345 345 338 335 335
349 345 343 342 344 343 343 341 341 341 340 341 341 337 330 337 334 342 331 327 333 336 334 328 335 335 334 335 339 340 339 338 334 340 340 338 342 343 341 340 334 336 334
350 346 346 346 343 343 342 342 340 343 343 341 342 333 337 337 334 341 337 333 342 334 333 342 331 334 338 338 339 338 340 345 347 348 346 339 340 335 332 332 334 335 333
350 349 345 342 340 340 337 333 332 335 340 341 336 335 337 335 338 339 341 335 338 336 330 335 337 335 333 332 335 336 340 345 347 347 347 344 341 336 334 335 334 330 326
344 347 337 333 334 337 337 336 334 335 336 338 337 338 338 338 341 341 339 337 336 337 337 336 331 330 333 331 332 337 342 345 346 346 344 342 336 337 339 340 339 337 337
346 344 332 338 339 341 342 340 345 344 342 338 340 339 340 340 340 337 336 335 340 339 338 332 332 331 331 332 335 339 344 346 348 346 345 344 338 340 337 332 334 330 336
349 337 336 335 340 341 340 340 341 339 339 340 341 338 338 339 335 340 338 334 338 338 338 335 333 333 330 333 337 344 343 343 345 346 344 336 332 335 331 334 330 328 334
347 345 337 341 342 343 341 337 341 341 341 341 340 340 337 334 333 334 335 333 338 338 334 335 333 332 331 329 339 344 345 344 345 343 341 334 337 335 334 326 326 333 327
345 348 342 334 339 341 341 341 340 339 341 344 337 335 331 330 334 337 335 337 339 339 338 335 333 329 330 332 340 344 341 344 345 345 336 335 336 335 333 335 334 334 334
345 346 348 343 346 343 342 340 340 341 339 335 330 328 334 340 342 339 335 336 337 339 334 334 332 329 326 329 340 342 343 345 344 344 340 335 337 334 333 333 336 330 333
343 346 346 347 349 346 340 340 339 338 335 334 337 341 347 347 344 341 334 332 336 338 335 336 335 333 334 340 341 342 343 344 342 339 334 335 336 336 335 334 332 331 331
341 343 343 346 347 348 347 344 338 338 340 343 346 346 347 349 346 339 338 336 335 336 337 341 339 340 346 344 342 339 340 342 343 338 326 334 337 335 331 332 332 332 329
340 339 345 346 344 348 344 344 343 348 348 343 347 346 348 347 346 346 341 341 339 336 341 344 345 345 346 346 344 341 339 343 343 337 328 329 335 327 332 329 330 329 330
341 340 342 344 345 347 341 348 347 345 350 343 344 346 345 346 346 341 345 347 347 347 347 345 346 347 343 345 346 345 343 343 342 340 323 326 328 326 333 334 330 329 330
340 342 343 342 348 348 344 346 345 346 345 345 342 348 346 349 347 348 346 343 347 347 343 344 338 346 346 342 341 343 342 344 344 343 325 324 324 333 335 323 323 324 324
339 343 343 342 345 347 344 348 349 346 347 346 341 346 347 347 348 349 348 345 346 345 348 349 342 344 343 346 343 344 343 343 345 345 342 329 327 326 325 324 324 324 323
340 342 343 346 342 347 345 348 346 345 348 343 345 346 349 350 346 346 350 346 347 344 345 340 340 342 343 340 346 345 344 344 344 345 344 344 343 340 340 335 331 325 325
342 341 344 344 346 343 346 347 341 346 348 344 349 345 338 351 349 347 342 347 348 346 340 341 343 342 343 343 345 343 344 343 344 344 343 342 345 344 344 338 333 336 337
343 342 343 345 346 345 349 344 346 347 347 345 348 346 342 348 344 347 341 345 348 345 345 341 343 342 339 342 341 341 341 344 342 341 343 343 341 340 340 340 341 340 335
343 342 344 346 346 346 350 345 348 346 347 347 347 347 346 346 343 348 350 343 349 346 345 345 343 342 342 341 343 340 343 341 342 342 341 344 338 342 342 340 340 342 343
343 343 345 346 346 345 349 346 347 347 347 349 349 347 346 348 345 347 350 341 347 343 344 344 341 341 342 340 339 338 339 340 341 342 341 341 341 342 339 341 342 342 345
344 344 344 346 347 345 349 348 349 347 348 345 350 352 345 350 345 346 348 344 347 347 340 346 339 342 342 337 341 344 343 340 342 341 341 339 342 342 342 341 341 340 341
344 344 343 346 348 346 350 347 349 349 349 347 351 351 346 350 347 350 347 347 344 346 347 344 343 345 345 339 339 343 342 342 342 339 338 342 342 342 343 343 342 337 335
345 345 344 346 348 346 347 346 349 349 349 343 351 349 344 349 351 351 347 348 344 346 349 342 341 346 344 341 341 342 342 342 341 342 343 343 340 341 341 343 344 343 343
346 346 345 344 347 346 344 348 347 349 347 349 347 349 350 347 349 353 348 343 343 349 350 345 345 345 350 345 344 340 341 341 341 341 343 342 342 342 343 340 343 343 343
346 346 346 346 344 344 340 346 346 345 347 348 345 352 351 350 346 351 352 346 343 345 350 345 346 340 342 344 347 342 340 341 341 341 342 340 343 340 340 341 341 341 342

GFSSE_850_thetae_066.txt.gz
Theta_e
335 337 339 340 340 340 339 336 334 335 337 329 329 334 333 332 329 329 330 329 330 335 338 336 335 334 334 334 333 333 336 335 339 341 343 343 341 333 333 338 334 335 325
336 338 340 341 341 340 338 336 338 339 339 330 330 334 337 331 327 326 332 340 331 335 338 335 335 337 338 337 336 336 336 337 336 342 340 343 340 333 333 326 334 337 324
338 341 341 341 341 340 339 339 339 340 340 335 336 334 338 337 335 341 335 329 332 328 338 334 332 335 338 337 335 341 343 343 338 339 335 333 332 333 339 331 337 332 333
340 341 341 342 341 341 341 342 341 340 340 339 336 335 338 341 336 340 341 341 339 338 340 336 335 338 338 339 345 346 346 344 339 335 333 332 335 330 325 324 333 319 337
340 341 342 342 341 340 342 342 342 341 338 338 336 335 340 341 341 334 341 338 337 340 335 335 333 337 337 342 345 345 346 345 340 336 332 335 336 335 336 336 333 326 318
341 343 341 341 338 332 332 335 336 339 341 340 339 339 341 336 340 339 338 336 333 333 337 332 330 331 338 341 344 344 344 344 342 337 338 338 339 331 327 333 334 324 319
343 341 337 342 335 340 335 336 341 341 339 338 338 339 336 339 333 337 337 337 331 328 329 328 329 332 337 343 344 344 343 343 340 332 332 330 326 329 328 333 333 323 329
338 332 334 339 339 338 343 342 340 339 338 337 337 334 338 337 334 334 337 332 331 332 330 330 332 337 343 344 343 344 344 342 334 332 332 332 334 328 335 336 326 330 332
330 332 334 337 339 338 339 339 339 338 337 334 330 334 335 335 332 337 334 334 333 332 331 330 336 343 344 344 344 342 343 335 333 331 333 332 327 327 329 328 331 334 331
331 332 336 338 337 338 339 339 338 334 330 328 336 337 335 334 336 338 338 333 331 329 329 329 337 343 344 345 344 343 343 343 339 332 332 332 331 331 332 329 331 330 330
331 334 335 336 336 338 337 338 331 328 335 340 341 340 336 335 335 337 334 333 333 330 326 332 338 342 343 344 343 344 343 342 338 332 331 330 330 333 332 338 329 330 332
334 332 334 336 337 339 337 331 329 336 343 343 340 340 338 337 332 335 335 335 334 331 337 337 341 342 343 342 342 344 345 342 334 331 331 333 329 332 332 331 329 329 330
330 331 335 336 336 337 334 335 339 342 345 345 344 339 340 338 336 335 335 338 338 340 341 340 340 340 341 342 342 341 342 340 328 324 327 331 325 327 327 329 327 329 332
336 334 336 335 336 335 332 338 343 341 345 346 346 343 343 344 339 336 335 340 340 341 343 344 341 342 343 344 341 342 342 337 330 325 327 326 325 329 328 327 328 327 326
342 342 338 338 338 336 339 340 342 340 345 346 345 343 344 345 341 341 342 340 342 340 341 342 341 341 343 343 343 342 343 341 340 327 323 325 327 327 323 322 323 323 323
343 343 340 340 342 339 344 344 344 341 341 344 344 342 344 345 343 343 343 342 342 341 343 342 344 343 344 343 342 342 343 340 342 341 341 335 337 337 329 325 324 324 324
344 344 341 340 345 343 343 344 345 346 345 344 344 343 342 345 344 345 343 343 342 345 342 343 343 344 342 342 342 341 341 341 341 342 341 342 342 341 337 333 335 333 332
345 343 342 347 346 344 346 345 346 347 346 344 344 342 345 342 344 342 344 343 343 341 341 343 343 343 342 342 341 340 341 339 341 341 339 340 339 338 339 340 336 334 330
342 342 341 345 346 345 345 346 346 347 344 344 346 345 343 341 344 345 344 342 343 344 340 342 342 342 343 343 343 341 342 341 340 338 340 337 340 340 338 339 341 339 332
341 342 341 339 341 343 347 346 347 346 344 347 346 340 340 343 344 342 345 345 344 342 343 343 342 342 341 339 341 342 342 342 341 341 341 339 341 340 339 339 340 339 335
342 342 342 341 338 339 344 344 343 348 344 346 347 347 344 341 345 344 342 342 343 343 343 342 341 341 342 343 342 342 342 344 342 341 341 341 341 340 341 340 334 331 334
342 342 342 340 339 338 344 342 342 347 344 346 348 347 347 344 343 345 341 343 344 342 341 342 341 341 341 341 341 342 341 340 340 341 341 341 341 341 342 342 342 340 335
340 341 341 340 339 340 344 343 345 347 347 347 347 348 344 345 343 348 340 344 344 343 342 340 341 340 338 340 341 342 342 339 340 340 340 340 340 339 341 342 341 343 342
342 342 341 341 340 339 340 339 345 344 347 346 345 347 345 341 341 346 340 342 344 343 341 338 339 342 338 338 338 341 340 341 341 339 339 339 342 340 342 342 341 342 342
342 342 342 341 341 337 343 338 344 345 343 346 345 347 347 341 341 345 345 344 343 343 337 337 339 343 341 341 337 338 340 339 341 341 341 341 342 341 341 342 340 340 339
342 342 342 341 341 339 344 340 343 346 345 347 347 348 348 343 344 342 343 343 343 342 345 343 338 339 344 343 340 339 340 341 342 343 343 343 342 341 340 341 341 342 343

GFSSE_850_thetae_069.txt.gz
Theta_e
339 339 339 338 337 335 334 330 333 333 327 328 330 332 332 330 328 328 328 333 334 337 340 336 333 333 334 335 333 333 335 339 341 342 340 331 332 339 340 338 326 335 338
338 339 340 339 338 336 334 333 336 335 328 333 334 335 328 326 328 329 329 330 342 340 337 335 335 339 334 332 337 339 338 340 342 341 341 336 337 332 325 337 328 324 334
338 339 340 340 339 337 336 337 339 337 330 333 334 336 333 332 333 332 335 330 330 339 335 335 338 337 336 335 337 341 339 341 340 335 340 340 340 340 336 337 327 326 321
337 339 340 341 339 338 338 339 339 339 336 334 334 338 341 338 337 336 338 338 329 335 337 336 337 338 337 338 344 344 341 338 333 332 331 344 344 323 332 327 331 339 340
339 340 341 341 340 340 341 339 339 340 335 334 339 338 342 338 339 342 338 340 336 339 338 338 337 337 343 345 345 344 342 336 333 331 334 332 331 335 333 337 319 327 333
340 341 342 341 340 340 340 341 340 338 337 335 338 340 340 339 335 340 336 337 339 332 336 336 336 339 342 344 345 343 342 339 336 337 336 340 338 331 332 334 321 317 324
340 342 342 341 337 339 342 340 338 341 339 339 340 339 334 338 338 337 339 333 331 336 332 331 334 339 343 343 343 342 342 339 333 334 331 328 328 329 334 333 324 326 324
341 341 340 338 337 333 335 340 340 339 338 339 338 337 338 334 338 340 339 336 335 329 329 330 337 341 342 343 343 341 340 336 331 331 330 331 326 332 338 326 333 333 332
340 336 341 339 341 344 342 341 339 337 338 334 335 337 337 339 338 334 338 338 332 329 331 336 341 342 342 342 342 337 336 335 333 333 333 327 326 334 327 330 333 332 325
331 331 337 339 339 342 340 339 340 336 334 331 336 337 336 334 335 334 336 330 330 329 333 341 342 343 343 342 343 341 342 340 334 333 332 330 330 331 331 334 333 335 330
334 333 335 340 343 339 339 338 333 328 334 338 337 341 338 337 338 333 331 329 328 329 333 341 342 343 343 342 342 342 342 341 335 332 331 329 330 336 335 332 331 331 337
333 336 336 335 336 338 338 331 328 337 340 340 338 333 334 336 336 333 333 330 327 330 333 340 341 342 343 342 343 343 341 336 333 331 331 330 330 331 334 329 328 329 328
332 334 335 336 337 336 331 328 341 340 341 340 337 335 332 334 336 334 333 332 336 336 340 340 341 341 341 341 341 342 339 332 328 327 330 325 327 327 327 326 327 331 331
330 331 334 336 337 333 328 333 341 343 344 342 338 338 337 334 335 335 337 339 340 342 341 342 342 340 343 341 340 341 341 331 324 325 326 324 328 328 326 326 326 324 325
330 332 335 335 335 332 337 339 343 344 344 342 342 342 342 339 335 337 341 340 342 342 342 342 343 343 343 342 342 342 341 340 336 325 323 326 327 324 323 322 323 323 322
332 334 335 335 334 331 338 340 338 345 344 345 343 343 344 342 341 339 339 341 340 340 341 340 341 342 343 342 341 342 340 342 341 340 337 339 338 334 330 327 326 326 325
340 336 337 337 335 338 342 341 338 341 342 343 343 344 344 343 342 343 341 340 340 342 342 343 343 341 341 342 341 342 341 342 341 341 341 341 340 337 334 334 333 333 333
342 340 338 341 339 343 343 344 343 345 345 343 344 344 344 344 344 343 341 342 343 341 342 341 343 341 342 341 341 342 341 341 340 340 339 339 338 339 339 337 339 331 327
342 342 338 341 342 343 343 344 344 345 345 343 343 343 343 341 344 342 342 343 342 341 341 342 343 341 343 342 342 342 341 341 339 339 338 338 340 338 337 339 340 334 326
342 343 341 340 343 344 344 345 345 342 345 343 345 344 344 342 342 343 343 342 343 343 341 342 342 342 343 343 342 342 342 342 341 340 340 340 340 340 339 338 337 335 332
342 344 341 340 343 345 342 346 346 345 344 345 346 343 342 343 344 342 344 343 344 341 342 341 340 341 341 340 341 341 341 342 342 340 341 341 340 340 341 341 334 332 332
341 343 341 341 342 340 343 346 345 345 345 345 347 346 344 342 345 343 344 343 344 343 342 341 340 341 341 342 342 342 341 339 340 340 340 340 340 340 341 342 342 341 334
343 342 341 341 340 339 342 345 344 344 346 345 346 347 345 344 342 344 341 343 342 342 342 341 340 341 340 341 341 343 341 338 339 340 340 338 340 339 341 341 341 342 341
341 342 342 341 340 338 335 341 342 343 346 345 345 345 347 346 343 345 343 341 344 343 342 340 341 340 338 339 339 341 341 341 340 339 339 339 341 340 341 341 340 339 339
341 342 341 340 340 340 337 337 342 343 345 344 345 345 347 344 344 344 342 342 343 343 341 342 339 341 340 337 338 338 339 340 340 341 341 341 341 340 340 340 341 341 338
341 340 341 341 341 341 338 336 339 341 344 343 345 346 347 344 341 342 345 344 343 343 342 337 338 339 342 339 339 336 339 340 341 343 343 341 341 341 340 340 342 342 342

GFSSE_850_thetae_072.txt.gz
Theta_e
338 338 338 338 335 331 328 329 327 326 326 327 328 330 330 329 328 328 329 330 334 339 334 341 337 333 337 333 333 335 338 341 342 332 330 338 341 342 327 332 341 323 333
338 337 337 336 334 332 330 334 332 327 329 332 332 332 328 328 328 328 333 339 335 339 336 342 336 333 333 335 340 338 341 341 341 340 333 339 326 330 337 323 335 340 331
338 338 337 337 335 333 332 336 334 328 330 334 336 330 328 327 339 341 332 336 338 338 335 340 339 342 340 343 341 340 342 341 339 338 338 341 338 337 328 328 320 318 318
339 339 339 338 336 334 335 338 338 332 333 334 337 338 339 337 332 338 335 329 341 337 333 337 338 341 339 341 343 338 335 332 331 331 339 330 336 339 324 341 340 338 325
339 339 340 339 336 336 337 339 339 338 334 338 338 343 339 338 343 341 337 337 337 338 338 339 339 337 340 344 343 340 335 332 331 333 329 332 332 337 327 324 327 337 329
339 340 340 339 338 339 339 339 339 339 335 339 338 340 338 334 341 336 339 338 338 338 338 339 338 342 343 344 342 340 337 336 336 335 338 339 338 332 336 320 318 328 337
340 341 340 340 339 338 338 338 337 339 336 339 340 340 339 339 340 340 334 337 337 338 336 337 339 342 343 343 341 339 336 334 335 332 330 328 337 339 327 326 322 324 328
340 341 341 340 336 342 340 338 341 338 338 339 339 338 333 337 339 339 330 329 330 330 333 336 340 343 343 341 339 337 334 331 331 330 330 326 338 338 325 336 329 333 335
341 341 339 335 332 335 336 341 340 338 338 339 335 336 336 337 338 336 338 339 338 329 330 336 340 341 342 340 339 337 334 333 332 333 329 329 337 327 329 331 331 325 324
340 340 339 343 341 342 342 340 338 338 336 335 335 335 337 337 338 338 337 337 331 331 334 339 341 342 341 340 340 341 339 334 333 332 329 330 330 331 336 331 333 329 324
337 337 339 340 343 340 340 340 337 336 331 337 338 335 336 337 337 334 338 331 330 333 340 341 342 341 342 341 341 341 337 334 332 332 331 331 335 332 335 329 330 332 329
333 335 337 340 338 338 339 334 329 334 335 335 338 335 337 336 332 332 334 329 329 336 341 342 342 342 342 343 340 341 337 329 331 331 331 329 335 334 329 327 328 328 326
332 335 337 338 338 337 330 328 336 338 336 333 332 334 335 333 333 332 329 329 332 335 339 341 341 341 341 340 341 340 334 328 327 330 327 326 327 327 327 326 328 330 328
332 335 334 335 336 334 327 337 338 337 337 337 335 333 333 334 333 332 335 337 339 340 340 340 340 341 341 340 340 341 336 326 325 327 324 327 328 326 325 325 324 323 323
332 332 334 336 335 329 332 341 340 341 338 339 339 337 334 334 335 337 338 340 341 342 342 341 340 342 343 342 342 341 338 331 328 323 325 326 326 324 323 323 323 323 323
331 333 334 335 333 328 332 340 342 342 340 341 342 343 342 336 335 340 340 340 341 341 342 343 343 343 342 341 342 341 340 337 339 337 338 338 335 332 329 328 327 327 327
330 333 334 334 331 332 337 339 341 343 343 343 342 343 343 341 342 338 339 341 339 341 341 342 341 342 342 341 341 341 341 341 340 340 341 340 339 336 334 333 332 331 331
331 333 334 334 331 333 337 339 338 342 342 342 342 343 343 343 343 343 340 340 341 341 342 342 342 341 341 340 341 341 340 340 340 339 338 339 339 338 338 339 333 327 323
333 334 335 334 334 338 343 342 341 343 344 341 342 343 344 344 343 343 341 341 341 341 341 342 341 341 342 342 341 341 341 340 339 339 338 339 339 337 336 338 336 333 330
339 337 336 336 336 342 343 343 344 344 345 343 343 343 341 341 343 342 342 343 342 340 340 342 342 342 342 342 341 341 341 341 341 340 340 340 340 340 338 336 334 333 332
341 340 338 338 340 342 342 344 344 342 341 343 343 345 342 344 343 342 343 342 342 340 339 341 341 342 340 340 341 339 340 339 340 340 340 341 340 340 341 341 339 333 330
340 342 341 339 341 341 343 342 344 343 344 343 344 345 344 341 342 342 343 343 343 339 340 341 340 340 340 340 341 341 340 337 338 339 339 339 340 340 341 341 342 340 332
341 341 342 341 341 341 342 342 345 344 344 344 345 346 346 343 343 343 344 342 343 342 341 340 340 341 340 339 341 342 342 340 338 338 339 338 340 339 340 340 340 338 337
342 340 341 342 341 341 342 344 345 342 342 344 343 346 346 345 343 343 342 342 342 343 341 341 340 341 340 339 340 339 341 340 340 340 340 339 339 340 340 340 339 338 337
343 342 340 341 341 341 340 342 343 344 340 340 344 345 345 345 345 342 344 341 342 343 342 341 340 340 339 337 337 338 338 339 339 341 342 341 339 339 340 340 340 339 339
343 342 341 341 341 341 339 340 340 341 341 341 344 344 344 347 344 342 344 340 342 344 343 341 341 338 340 340 337 338 337 340 341 342 343 340 340 340 340 341 341 342 342

GFSSE_850_thetae_075.txt.gz
Theta_e
339 339 337 335 330 328 327 326 326 326 326 326 326 327 327 328 328 328 328 330 339 338 337 336 335 346 343 337 338 340 342 337 329 339 342 343 329 330 341 323 340 341 338
338 338 338 341 330 329 330 327 327 327 330 332 332 331 329 328 328 333 333 332 336 336 341 335 333 330 338 339 340 341 340 342 335 342 329 326 340 324 334 341 330 339 338
338 338 336 339 331 330 334 332 328 330 333 335 330 327 325 338 336 330 337 339 336 336 340 340 342 345 343 341 341 341 340 339 336 335 340 344 339 327 321 319 318 321 318
337 337 335 334 333 332 336 335 330 330 334 336 335 340 337 334 338 337 330 339 340 335 341 340 341 340 341 341 338 334 332 332 332 328 336 344 336 337 340 339 331 326 335
337 337 337 335 334 335 337 338 336 335 334 338 342 342 340 342 341 341 336 336 337 336 341 341 336 339 343 342 336 333 332 332 332 331 331 338 341 321 329 336 330 337 324
339 338 338 336 334 336 338 338 338 335 337 337 340 338 336 341 337 339 337 339 338 338 337 338 341 343 344 342 339 335 335 336 336 339 338 338 339 324 318 323 338 328 328
339 339 338 337 338 339 338 339 337 335 337 339 341 339 336 340 339 337 337 335 338 337 338 338 341 343 342 339 337 333 333 335 335 334 331 340 340 324 327 324 326 332 335
340 340 339 338 338 339 338 337 339 338 339 340 338 334 338 338 338 331 330 336 338 336 337 339 342 341 339 337 335 332 332 332 330 330 335 340 335 327 337 328 330 334 330
340 340 339 338 341 340 341 340 339 338 338 337 337 336 336 338 337 338 338 336 334 338 338 341 342 341 339 338 338 334 333 333 333 336 341 341 327 329 332 330 325 323 325
341 341 338 333 336 338 341 340 338 337 335 339 336 336 337 336 337 337 337 335 333 333 337 339 341 340 340 340 339 334 332 333 337 331 334 333 333 332 329 330 328 324 326
341 340 339 339 341 341 341 339 337 337 335 337 339 338 336 337 337 341 337 330 332 337 340 341 341 342 341 340 339 334 329 332 336 338 342 338 333 337 328 329 331 332 326
343 341 340 340 344 343 345 341 339 334 340 340 338 337 335 331 332 338 338 331 338 340 342 342 341 341 342 343 340 336 332 329 331 334 339 340 332 335 328 327 328 327 326
335 337 336 339 338 340 337 330 334 335 338 335 335 335 333 332 330 333 331 333 337 340 340 341 341 341 340 341 341 337 328 326 329 335 329 328 329 327 327 327 329 328 326
332 335 338 339 338 335 327 334 337 333 332 332 333 334 333 333 331 331 333 338 339 340 340 340 340 341 342 340 341 338 329 325 327 333 334 328 327 326 327 326 324 324 324
332 335 334 337 337 329 336 337 336 336 335 335 334 333 334 334 333 337 339 340 340 341 341 341 340 342 342 342 341 339 336 332 325 327 334 327 326 324 324 324 324 324 325
332 334 334 335 336 328 338 337 339 337 338 339 339 337 334 335 337 338 340 341 341 342 341 341 342 342 342 341 341 340 340 338 336 338 338 337 334 332 332 331 330 331 331
331 333 335 336 333 329 340 341 342 339 341 342 343 343 340 337 337 339 339 341 341 342 342 341 341 342 342 341 341 341 341 340 339 340 340 339 338 337 335 335 331 329 327
330 332 334 335 331 329 337 340 342 342 342 343 343 343 343 342 342 339 341 341 339 340 342 343 342 341 341 340 341 340 340 340 339 339 339 339 338 337 338 337 330 328 324
329 332 333 333 330 335 339 337 340 342 341 342 342 343 344 343 343 343 342 340 341 341 342 342 341 342 341 341 341 340 340 339 339 339 340 340 340 337 337 337 335 332 328
329 333 334 333 331 336 338 338 339 342 343 340 342 343 341 343 342 341 341 341 341 340 340 342 342 341 340 340 340 340 340 340 340 341 341 340 340 340 339 337 334 333 328
330 333 333 333 332 337 342 340 342 343 344 343 343 344 342 343 343 343 342 342 343 340 340 341 341 340 339 340 338 339 339 338 338 339 340 340 340 340 341 341 340 333 329
333 336 336 335 334 340 342 342 343 339 340 343 343 343 342 341 342 343 342 342 342 341 338 340 340 340 340 340 341 342 342 340 338 338 338 339 339 340 340 341 341 338 331
339 339 338 337 337 340 341 343 344 344 342 343 343 344 345 342 342 343 343 344 343 341 339 340 340 341 341 340 341 342 344 342 340 339 339 338 339 339 340 340 339 338 337
340 340 341 340 339 340 341 344 343 344 343 342 343 343 346 345 342 342 343 343 342 343 342 341 340 340 339 339 339 339 340 340 343 343 342 339 338 339 339 339 339 338 337
342 341 341 341 341 341 342 342 343 344 343 340 342 344 346 345 344 344 343 341 343 342 343 341 341 340 340 338 337 337 338 339 341 343 344 344 339 339 340 340 339 338 340
343 343 341 341 342 341 341 341 342 343 345 342 339 343 345 345 345 344 342 345 340 344 343 343 341 341 340 340 339 337 338 341 343 345 346 344 341 341 342 342 341 341 342

GFSSE_850_thetae_078.txt.gz
Theta_e
348 344 336 332 335 337 337 337 337 336 334 331 327 327 327 327 327 327 328 335 337 341 337 342 345 342 340 342 342 340 335 339 342 341 329 331 341 326 342 344 343 343 341
348 346 335 329 328 327 326 326 327 328 330 332 331 330 328 328 329 331 329 333 337 342 335 334 335 343 340 340 341 342 339 341 329 336 340 325 335 340 334 340 340 336 324
347 346 340 330 330 331 328 328 331 342 335 330 327 326 338 335 330 336 340 336 336 340 340 343 345 342 340 341 341 340 335 335 340 342 344 340 334 319 318 322 318 319 324
346 346 346 330 331 335 332 329 331 335 336 336 339 336 335 336 336 332 337 338 334 339 339 341 341 341 340 336 335 332 332 330 332 345 341 339 344 340 337 326 339 339 328
347 346 344 337 333 337 336 341 334 335 337 341 342 339 342 341 339 332 339 339 335 342 340 337 341 343 341 337 333 332 333 330 340 342 346 342 335 333 339 338 332 326 333
346 346 335 334 335 337 339 340 337 334 339 339 339 338 341 338 338 339 339 338 337 338 338 339 343 344 341 336 334 336 335 341 344 343 343 342 332 319 329 333 326 330 337
347 348 343 335 336 338 338 339 337 335 338 340 339 337 341 340 338 338 336 337 337 336 338 342 343 341 337 335 332 334 334 342 342 343 345 342 327 327 326 329 337 337 328
348 348 347 339 339 341 340 338 339 338 340 339 336 339 338 338 331 332 336 337 337 337 340 342 341 338 336 334 331 332 333 342 341 345 344 340 335 334 329 336 337 328 331
348 348 349 348 342 340 339 340 339 339 339 338 337 336 338 337 336 338 332 336 337 339 341 342 339 337 337 334 332 332 333 340 341 344 343 339 334 336 332 326 324 327 330
348 348 348 348 349 348 346 340 337 338 339 336 336 337 336 337 336 337 337 333 334 339 341 340 339 340 338 336 330 331 336 340 339 341 340 340 337 331 333 330 326 325 335
348 346 345 346 347 350 351 340 339 334 336 339 339 339 345 344 345 345 334 330 336 338 341 340 341 341 341 339 335 335 341 340 340 342 342 336 338 329 331 332 335 328 325
346 346 347 349 350 351 347 347 345 348 349 346 349 346 344 344 345 341 336 336 338 341 341 341 341 344 346 344 344 342 339 341 340 340 342 334 339 328 328 329 329 327 326
345 345 347 351 351 347 349 347 345 345 346 346 348 345 344 344 345 342 344 346 345 346 346 348 347 346 347 345 342 340 340 339 340 340 330 333 327 327 333 326 326 325 325
345 346 346 349 349 347 345 346 345 344 344 344 345 344 345 343 344 345 345 347 347 346 347 347 346 348 347 348 346 343 339 337 339 340 328 325 325 325 331 324 323 323 323
344 346 347 348 349 346 347 347 346 344 343 344 344 344 344 344 346 346 347 347 347 347 346 348 348 349 348 347 347 346 342 338 339 340 341 329 325 324 324 325 326 327 329
344 346 347 348 347 347 348 348 347 346 346 345 345 342 341 345 347 347 348 348 348 347 347 348 348 349 347 348 347 347 345 343 343 344 344 342 334 333 333 332 332 331 330
344 346 347 347 346 347 346 347 347 347 348 347 346 342 337 345 341 347 347 348 348 343 344 348 348 348 345 345 346 346 345 344 344 344 343 344 344 340 337 330 326 323 322
343 346 347 346 344 347 348 348 348 348 349 349 349 348 341 339 339 343 348 347 347 348 348 347 348 345 345 344 344 344 343 343 345 345 343 343 343 342 341 333 330 328 323
343 346 347 347 344 345 342 348 349 349 349 350 350 349 343 343 343 347 349 347 343 348 346 347 347 346 345 344 343 343 343 343 344 342 345 345 343 343 342 336 332 330 327
343 344 346 347 345 343 344 346 348 347 348 349 349 349 343 347 343 346 347 346 347 348 346 346 347 346 345 344 343 342 342 342 343 343 343 343 344 346 344 345 345 343 328
342 343 346 347 345 343 347 345 346 346 347 348 349 343 341 344 343 341 348 345 347 346 347 342 344 344 342 343 340 340 340 341 341 341 342 342 343 344 344 345 345 345 344
340 343 345 346 339 341 346 346 347 347 347 348 350 346 345 344 343 344 344 345 345 348 340 340 345 344 341 341 343 343 340 341 340 339 340 340 342 342 342 343 344 343 341
340 343 344 342 341 337 347 348 349 350 349 349 349 349 349 343 341 343 341 348 344 346 346 342 343 343 342 345 341 345 344 341 343 341 342 340 341 341 341 342 342 344 337
343 342 345 339 340 337 343 350 350 349 346 347 349 349 351 344 346 341 343 343 343 347 346 344 345 345 343 343 344 344 340 343 343 342 341 340 340 340 341 342 342 343 341
346 345 346 340 338 344 340 346 349 347 348 348 348 350 352 347 343 349 342 342 341 347 345 343 341 341 345 343 342 343 343 345 347 345 341 339 339 340 342 343 343 343 346
347 347 348 347 340 340 341 341 343 350 349 348 348 350 350 351 350 347 345 342 341 349 344 346 340 341 343 345 344 341 343 343 344 345 344 343 343 344 345 345 344 346 347

GFSSE_850_thetae_081.txt.gz
Theta_e
349 344 343 344 343 340 338 338 338 338 337 332 328 327 328 328 329 330 336 342 339 338 342 341 339 341 341 340 336 338 341 333 330 328 336 325 340 343 344 344 345 333 332
349 345 335 338 338 335 332 330 328 327 329 331 330 329 329 338 332 331 333 338 340 334 335 342 339 340 341 341 339 338 328 339 340 336 331 338 336 340 341 339 328 324 337
347 345 337 328 327 327 331 330 343 335 330 327 328 338 333 332 339 339 336 337 341 341 345 344 340 341 340 340 336 334 338 342 340 340 341 335 321 321 322 319 325 330 338
346 345 343 330 332 330 339 332 337 336 341 342 336 339 338 335 337 338 337 339 340 339 342 341 340 337 337 336 333 330 336 344 340 338 344 345 343 332 339 340 330 336 338
348 346 334 333 335 334 342 333 342 339 342 342 340 342 341 336 332 340 338 335 340 339 341 342 341 338 336 332 332 330 337 341 344 343 339 339 344 338 340 333 335 338 339
347 349 333 334 337 338 343 339 338 339 340 341 338 340 338 338 338 336 335 336 340 337 339 343 343 339 336 335 335 340 343 342 343 343 339 336 335 338 330 330 336 334 333
349 348 346 339 338 339 340 340 338 338 340 339 335 339 340 337 337 337 338 338 337 341 343 342 340 338 333 333 334 338 342 341 346 344 340 339 326 328 335 338 332 329 330
347 348 345 341 338 339 339 339 336 339 340 337 337 337 339 332 336 338 339 338 338 341 342 340 337 335 332 331 332 336 341 343 343 343 341 344 336 333 336 334 329 331 340
350 346 348 348 343 342 337 339 339 339 337 336 335 337 336 335 334 333 340 340 340 342 339 337 337 334 331 331 331 336 340 342 344 343 341 342 338 333 327 324 328 336 337
347 346 349 348 348 349 346 338 338 337 335 335 336 334 335 337 337 336 336 338 341 341 339 339 338 335 327 328 333 340 338 339 342 341 344 336 331 333 330 330 325 332 328
347 347 348 349 351 348 346 339 335 336 337 336 341 344 345 344 345 345 339 338 339 340 340 341 343 344 331 334 338 340 342 341 343 343 342 339 330 329 332 340 327 326 325
344 344 347 348 347 348 345 347 346 347 346 346 344 345 346 346 342 341 335 339 340 341 341 342 345 347 346 348 344 340 339 340 341 344 337 340 328 327 328 328 327 326 325
344 348 349 347 347 348 345 345 347 345 347 344 345 343 340 344 343 344 341 342 345 345 348 347 347 344 345 343 340 339 340 340 341 340 325 325 326 326 324 324 323 323 323
344 345 350 347 346 345 345 346 345 345 344 345 344 344 344 343 344 345 346 343 346 347 347 347 346 346 346 344 341 339 339 340 341 341 323 323 323 324 323 323 323 324 326
344 345 348 347 349 345 348 344 345 343 345 344 346 346 344 346 346 346 347 346 346 346 345 347 347 349 346 346 344 343 339 340 341 343 338 331 328 329 329 329 330 331 331
344 345 348 347 347 347 348 348 346 345 344 345 344 346 348 346 347 347 347 348 347 347 347 348 347 347 347 344 345 344 343 343 345 347 347 344 334 333 331 329 328 327 325
344 346 347 347 347 350 347 346 348 346 345 345 346 348 348 348 352 348 346 348 348 342 345 348 349 346 346 345 345 345 344 345 344 345 345 347 344 340 327 324 323 322 321
344 346 347 345 346 348 349 346 346 348 347 347 346 346 348 345 349 348 348 346 345 349 347 347 347 344 345 344 344 344 343 344 344 344 343 345 343 345 343 327 326 323 321
344 347 347 347 345 348 350 349 348 348 349 349 348 348 351 350 341 349 347 347 347 346 345 346 347 346 345 344 343 342 342 342 345 343 344 344 340 344 344 333 333 329 325
344 347 348 346 345 349 349 349 349 347 348 348 348 351 344 351 351 347 347 346 349 347 346 347 347 347 345 344 343 341 342 341 341 342 344 344 344 346 345 346 347 344 329
344 346 348 348 347 347 348 347 344 345 347 348 349 347 349 351 351 343 348 345 348 347 347 347 345 344 343 340 343 342 339 341 342 341 342 342 343 344 343 345 348 346 343
343 345 348 349 349 348 348 347 345 345 344 347 349 351 352 352 349 348 350 347 348 348 344 349 347 345 339 342 345 344 343 341 340 340 340 340 342 342 342 345 343 345 347
341 343 347 349 350 350 349 348 350 349 350 347 350 349 351 351 352 352 344 352 347 347 347 342 342 343 347 341 343 345 346 343 344 341 342 340 340 341 341 342 343 346 346
342 344 347 349 350 348 349 347 348 347 345 346 347 348 351 352 351 351 351 351 344 349 352 343 343 347 346 345 342 342 341 343 348 343 340 339 339 342 342 343 344 344 346
342 344 349 351 351 347 345 350 350 350 348 348 347 351 349 350 351 351 352 351 343 348 345 350 347 342 345 346 343 343 340 341 339 345 340 339 340 341 343 345 343 344 347
343 343 347 351 351 350 348 344 352 352 349 350 346 350 349 351 350 350 351 352 347 351 352 348 351 344 344 348 349 341 344 344 347 346 343 343 343 344 345 345 345 346 347

GFSSE_850_thetae_084.txt.gz
Theta_e
347 344 344 344 343 342 337 337 338 338 335 328 328 328 328 328 330 334 340 334 336 340 339 337 339 339 336 337 338 326 329 330 332 327 340 341 342 342 344 339 336 339 333
347 344 344 344 342 338 337 333 328 328 330 330 329 329 331 330 330 333 340 336 334 338 341 338 340 340 338 335 328 341 336 338 335 332 331 339 340 340 341 323 338 336 332
348 340 340 335 329 328 328 334 334 329 327 328 331 330 332 337 336 336 337 340 341 344 340 340 340 339 340 333 337 340 339 342 342 337 329 322 326 320 325 328 337 336 327
346 343 328 327 337 333 340 339 336 340 339 336 339 335 333 338 341 336 339 340 342 341 340 337 336 337 336 330 340 341 338 339 341 346 342 341 340 337 331 334 339 339 331
345 344 331 331 339 336 334 340 338 342 340 339 341 341 332 335 339 340 339 339 341 340 342 339 335 332 331 327 333 342 341 344 341 341 343 341 340 332 337 340 337 338 338
346 333 335 334 339 342 336 338 339 340 340 339 340 340 342 339 339 339 340 340 338 342 343 341 336 333 333 335 341 341 342 343 338 331 338 336 332 328 331 331 328 328 336
348 330 337 337 340 340 338 338 338 340 339 339 342 339 338 342 338 337 338 338 341 340 335 337 332 332 333 334 337 339 343 344 341 338 330 326 332 337 337 331 328 336 326
349 346 340 340 340 340 341 337 339 340 338 338 338 337 335 339 336 336 335 339 342 341 337 334 331 330 331 332 337 342 345 345 341 341 340 332 333 335 328 329 336 339 328
349 348 344 344 342 341 339 338 339 336 333 333 334 332 333 329 338 340 337 341 341 336 335 329 327 330 330 330 336 340 343 341 341 343 338 337 331 326 324 329 339 335 326
347 348 347 343 343 340 338 337 335 333 333 334 334 338 336 332 333 338 338 341 338 337 335 335 324 324 327 336 338 341 343 344 342 339 334 333 332 331 330 325 328 325 326
347 348 350 349 348 345 336 335 335 334 340 343 343 344 347 342 343 345 340 341 339 338 343 345 333 336 336 338 339 341 344 343 343 340 336 329 329 332 339 326 325 325 325
349 349 348 346 345 345 344 343 339 339 341 345 348 344 345 343 338 336 338 339 339 340 346 345 344 336 347 344 340 341 342 343 344 336 335 328 326 328 328 327 326 324 324
348 350 350 344 347 347 345 348 346 343 341 345 347 345 341 332 334 337 339 340 342 346 349 346 347 344 347 346 343 339 341 342 341 328 323 324 323 323 323 323 323 323 324
347 350 347 348 349 344 343 348 345 344 344 343 345 341 346 345 346 346 348 347 344 347 334 346 346 347 343 342 340 339 340 342 342 338 325 323 324 324 324 325 326 328 330
349 350 344 350 345 348 347 349 347 345 346 339 341 345 347 345 345 347 341 346 346 349 346 346 347 342 347 346 343 340 339 342 344 344 343 334 333 333 332 332 331 329 328
348 348 347 349 344 349 346 344 343 345 345 345 345 345 346 344 347 348 346 348 348 348 345 341 346 345 343 342 342 344 343 340 346 347 345 344 342 326 323 323 322 321 321
346 348 346 346 348 348 345 344 346 343 347 345 341 350 348 347 346 344 341 347 348 343 349 346 349 346 346 346 344 344 343 344 341 345 345 346 346 344 328 322 321 320 321
347 347 344 345 346 343 346 349 346 346 347 346 342 342 349 346 349 349 348 344 349 345 348 346 347 345 345 344 343 345 344 342 344 345 342 345 344 346 344 324 323 322 322
346 348 348 345 348 347 344 348 347 346 348 347 347 348 346 339 346 347 347 345 350 347 347 346 346 346 346 344 343 343 344 343 345 344 342 345 341 346 344 332 345 330 325
346 348 348 345 347 349 346 349 349 349 349 348 349 348 346 348 343 347 349 345 346 348 348 345 343 343 345 342 343 343 342 342 341 343 345 345 343 346 346 335 346 345 330
346 347 348 345 345 351 341 347 347 345 348 350 347 350 348 349 348 347 349 343 346 341 343 347 345 344 345 344 347 346 340 340 341 341 343 345 342 345 341 343 348 345 341
346 346 348 347 345 350 345 346 345 348 347 346 348 347 350 348 342 349 348 349 348 345 348 342 345 349 341 342 343 346 344 341 342 341 341 341 342 342 343 345 342 337 343
345 346 348 349 347 348 346 348 346 346 349 348 348 349 349 350 347 348 349 348 345 343 345 339 349 343 342 341 344 344 347 347 346 342 341 342 340 342 342 339 344 337 345
345 346 347 350 346 347 349 347 346 348 347 343 347 350 348 350 351 346 344 350 351 348 345 345 344 343 347 344 345 341 342 343 347 345 340 336 339 341 339 343 344 345 345
342 344 347 349 347 347 348 347 347 345 349 350 349 349 348 349 352 346 349 349 348 346 345 350 347 346 343 346 350 344 343 344 342 347 341 339 341 342 343 345 344 345 347
343 345 348 349 347 343 342 347 347 349 348 347 349 344 350 350 349 351 349 349 344 343 346 347 342 337 342 346 347 343 344 342 346 347 345 344 342 344 345 345 346 346 348

GFSSE_850_thetae_090.txt.gz
Theta_e
341 341 342 340 340 340 341 341 336 332 330 328 328 328 332 336 339 339 339 339 338 338 335 337 334 326 328 325 327 335 335 336 339 341 341 335 335 338 337 338 339 339 339
341 342 342 339 338 337 337 331 327 328 333 333 329 328 333 336 332 335 339 338 338 338 333 333 329 329 328 330 329 331 331 338 339 339 335 327 332 337 329 336 338 340 337
342 343 341 336 334 327 329 331 329 328 327 335 338 329 332 336 335 333 339 338 339 337 333 329 336 334 336 341 340 341 340 338 325 321 320 326 337 337 334 324 326 336 336
342 342 338 330 327 332 331 333 332 336 332 329 332 335 338 339 340 341 341 340 341 337 335 334 337 338 339 341 344 344 344 341 337 335 333 329 338 339 340 331 328 338 330
341 332 326 332 339 334 338 338 333 335 339 334 333 336 333 337 339 341 339 339 335 332 330 331 339 337 339 341 340 341 342 340 336 335 329 336 339 338 334 335 331 324 325
328 329 329 334 335 336 338 340 338 340 340 335 334 337 337 336 336 339 340 339 338 332 331 326 338 340 340 342 340 337 336 340 338 328 327 331 327 325 329 335 339 325 323
328 334 333 332 335 336 336 338 337 339 339 343 340 339 336 340 337 340 341 341 334 330 332 331 334 337 340 341 340 339 339 331 326 325 333 332 328 327 337 325 328 325 324
330 337 338 337 334 336 336 339 335 337 336 334 340 337 335 337 337 339 340 335 334 330 331 333 339 337 342 342 342 339 338 334 329 330 333 326 327 333 337 327 325 324 324
332 336 337 337 335 334 338 338 334 333 332 330 334 334 337 340 338 341 335 331 327 330 330 331 336 340 342 342 340 339 339 337 332 330 324 323 325 332 337 326 326 326 328
335 335 336 336 336 337 335 331 330 332 331 330 328 334 335 334 340 337 333 328 324 328 328 330 335 341 342 342 341 340 341 342 332 329 326 325 324 324 325 324 325 325 325
338 336 337 336 335 332 330 331 332 334 333 332 328 333 335 338 339 336 339 330 327 329 334 337 338 339 340 341 342 343 343 342 335 331 325 329 328 324 324 324 324 324 325
344 344 345 336 330 330 332 335 338 342 342 339 337 337 336 340 337 337 343 342 340 338 339 339 339 340 340 341 342 343 342 338 326 323 322 323 323 322 322 322 322 323 325
346 342 338 337 333 333 341 341 343 344 343 340 337 337 338 340 338 340 339 337 341 343 343 341 342 345 341 340 342 342 342 332 336 324 323 323 323 324 325 326 327 328 328
344 342 343 345 339 336 339 341 344 341 340 339 336 335 337 338 338 340 341 341 335 339 342 345 343 341 342 340 341 341 341 341 344 335 330 330 331 331 330 329 327 326 324
343 343 343 343 345 343 340 342 341 341 342 342 342 339 339 342 342 342 342 343 340 340 337 343 340 343 341 341 339 342 343 344 343 344 343 335 321 323 323 323 322 322 322
344 342 344 344 345 343 343 343 342 340 343 344 344 345 344 343 340 343 343 344 343 337 342 344 344 343 342 341 341 341 340 341 341 342 343 344 337 321 320 321 321 322 322
345 344 344 345 346 346 347 346 340 341 342 345 345 344 343 342 342 344 344 345 345 340 342 343 343 343 340 342 344 343 342 340 341 341 342 341 342 324 324 322 322 324 326
344 344 345 348 345 342 345 346 344 343 343 344 344 343 343 341 342 343 343 342 341 345 342 342 343 343 341 342 343 343 343 341 343 339 339 341 337 334 335 328 326 329 336
346 344 341 345 344 344 344 345 345 346 345 344 345 345 342 343 344 344 345 344 343 344 343 344 344 344 345 344 343 344 344 343 344 342 342 342 341 336 337 338 331 336 340
346 342 339 344 343 346 346 346 345 347 345 345 342 341 343 344 344 345 346 344 346 344 344 345 344 345 342 343 343 344 344 343 344 343 344 344 344 341 341 338 334 337 340
344 342 340 342 343 344 345 345 345 346 345 347 347 347 344 344 345 344 344 344 344 344 343 343 344 345 342 341 343 344 341 340 342 343 344 343 344 342 343 338 333 336 342
344 344 344 342 341 344 344 345 345 345 347 346 346 346 345 341 343 347 345 341 344 343 342 344 345 342 341 342 342 343 340 339 340 341 342 343 342 342 342 337 338 344 347
345 344 344 343 342 342 344 346 346 347 347 346 348 344 345 346 343 346 341 345 346 340 341 343 344 343 341 343 342 345 345 343 342 341 339 341 342 340 341 342 343 345 346
342 344 342 343 344 343 341 346 348 348 347 345 343 345 345 347 345 345 345 344 342 338 342 345 344 343 343 343 342 343 344 345 345 342 340 341 339 341 340 343 343 344 347
341 342 341 342 345 343 340 345 347 349 347 346 345 349 345 346 348 345 345 344 345 341 338 345 344 345 344 343 344 343 343 346 347 347 345 340 340 341 342 344 343 345 347
341 342 342 341 342 345 340 346 347 349 348 348 348 347 348 345 347 349 346 343 344 343 342 339 342 344 343 344 345 344 344 346 346 347 346 342 340 341 344 345 344 345 347

GFSSE_850_thetae_093.txt.gz
Theta_e
340 338 339 339 340 341 342 339 333 330 329 330 333 338 339 341 340 340 340 338 340 334 341 327 328 324 322 324 326 334 337 340 338 334 337 336 337 338 339 339 337 338 338
339 340 340 341 342 342 340 333 332 335 328 329 335 336 335 336 339 337 339 339 338 340 330 327 329 325 335 336 337 339 339 341 335 327 332 338 330 337 339 338 338 340 339
341 341 341 341 338 335 329 329 329 336 338 330 331 333 336 332 339 341 339 341 339 332 332 336 328 330 332 335 332 329 326 328 320 322 337 337 340 324 324 336 337 335 334
342 340 336 335 328 330 329 328 327 328 340 342 338 338 336 333 338 338 341 342 335 329 334 339 339 342 340 341 342 339 334 328 334 328 330 338 339 339 328 336 334 338 340
342 337 330 328 333 333 335 342 338 332 331 339 336 338 340 338 340 340 339 335 334 331 338 340 340 339 342 341 340 339 336 332 332 328 335 336 336 336 335 325 324 328 336
339 327 328 337 339 341 338 339 343 340 332 336 339 335 339 341 338 339 336 338 333 330 338 337 338 341 340 339 336 336 339 337 329 330 330 327 326 335 334 340 323 324 325
326 327 337 337 340 340 340 340 341 342 336 339 339 340 337 340 339 340 339 331 332 328 336 340 338 338 338 337 338 337 331 330 324 331 329 325 330 332 324 331 324 323 323
329 329 332 337 336 340 338 336 337 339 341 342 340 337 339 337 339 340 337 332 331 330 331 337 337 341 341 338 339 337 333 329 330 331 326 327 336 338 325 324 324 324 325
334 336 335 337 340 336 339 336 335 334 335 342 341 335 338 336 340 337 335 331 330 331 334 336 339 341 341 340 340 339 337 334 330 324 323 325 331 337 326 326 326 328 339
337 337 336 335 335 339 340 335 334 333 335 340 339 338 334 340 336 328 326 329 329 330 332 336 340 341 341 340 340 340 342 338 330 328 325 323 325 327 324 325 325 325 325
338 337 337 336 337 336 332 332 332 330 330 332 339 342 339 339 333 326 325 327 329 330 334 338 341 342 341 341 341 342 342 338 332 325 326 332 324 324 324 324 324 324 325
336 337 336 336 334 332 330 333 334 335 329 328 338 337 339 336 337 332 334 330 334 336 336 338 339 340 341 341 342 342 337 331 325 322 323 323 323 322 322 323 324 326 327
341 343 337 331 330 332 334 340 342 342 335 336 336 338 339 336 340 341 341 339 337 339 340 340 342 342 341 341 342 341 338 339 329 327 326 325 325 325 326 327 327 327 326
340 336 334 332 332 339 342 343 343 341 338 337 338 339 339 337 340 339 340 342 341 343 343 344 344 340 340 340 341 341 342 343 343 335 328 328 330 329 328 326 325 324 323
340 342 337 336 337 338 343 342 341 340 337 334 336 337 338 338 338 339 340 340 338 340 342 340 340 340 340 340 338 340 342 340 341 343 343 329 321 322 321 321 321 322 322
341 343 344 342 340 339 342 340 342 342 342 342 339 340 342 342 343 342 342 340 338 339 342 339 342 342 341 341 341 342 341 342 341 341 342 341 321 321 321 321 322 323 326
340 342 344 343 342 340 342 339 340 342 343 342 344 344 343 342 340 343 343 342 340 341 342 343 343 342 340 343 343 343 343 341 341 342 342 340 329 328 323 324 326 330 336
341 341 343 343 344 345 345 340 339 342 342 344 344 343 342 341 341 342 342 341 343 342 343 343 343 343 340 343 342 343 343 342 342 342 340 336 334 335 333 328 334 339 340
343 342 343 345 341 344 346 343 341 343 343 344 344 342 343 341 342 343 342 343 343 341 342 343 343 343 344 343 343 342 343 343 343 342 342 341 337 334 335 333 337 339 342
343 342 345 346 344 342 344 343 344 345 345 343 343 342 341 342 343 343 345 342 342 343 344 344 344 344 342 342 343 343 343 344 343 343 343 344 342 341 338 334 336 340 342
344 344 345 346 343 342 344 346 344 346 344 344 343 342 342 342 343 343 345 344 344 344 343 343 344 345 343 341 342 343 340 339 340 341 343 343 343 342 341 333 333 343 345
345 344 343 345 343 344 344 345 344 346 346 346 347 348 345 341 343 345 343 343 344 343 341 343 343 341 342 342 342 342 339 339 340 340 342 341 341 341 341 338 344 345 347
344 341 340 343 341 344 344 344 345 346 346 346 346 345 344 343 344 343 345 341 344 343 343 343 344 342 343 342 343 343 344 344 341 340 340 340 340 340 341 342 344 346 347
344 343 342 342 339 341 342 344 345 345 345 345 345 346 346 345 345 343 345 342 345 342 343 342 342 343 344 343 342 343 344 346 345 342 339 340 339 340 340 343 343 344 346
344 343 343 343 342 343 340 344 343 345 345 346 343 344 345 345 344 344 344 344 345 342 339 344 341 344 343 345 343 343 346 347 346 346 345 340 339 341 343 343 343 345 346
345 344 343 343 342 343 341 344 344 345 345 345 346 347 346 345 346 346 347 344 343 346 342 339 342 341 343 344 344 344 346 347 347 346 345 345 340 341 343 344 344 344 346

GFSSE_850_thetae_096.txt.gz
Theta_e
337 337 337 337 338 338 338 332 331 335 338 335 337 339 339 339 341 339 335 334 340 335 327 324 322 324 325 332 335 335 333 334 339 335 336 338 338 339 337 336 337 337 339
337 337 340 340 340 342 340 334 330 330 330 338 334 339 339 338 338 338 340 340 341 331 328 324 335 337 335 336 337 339 338 330 332 339 334 330 337 339 337 337 339 340 336
338 339 341 342 342 340 331 328 339 331 335 336 337 336 335 339 338 338 340 340 333 339 341 328 331 329 330 335 333 332 324 321 326 335 339 332 324 329 335 337 337 332 334
340 340 341 338 333 329 329 329 334 341 334 333 334 334 332 339 339 342 340 340 337 340 337 340 340 338 336 334 331 326 329 332 327 331 334 338 335 329 338 336 340 338 338
340 338 335 328 330 329 332 331 328 336 342 336 341 340 337 339 340 340 341 339 338 340 340 340 341 342 340 339 337 333 333 329 328 333 334 337 336 334 325 325 330 335 333
337 332 328 332 335 339 339 337 336 332 338 337 337 337 339 339 340 335 335 340 336 340 338 338 339 337 335 334 336 338 335 327 329 330 327 326 337 339 339 323 324 325 326
331 326 334 338 340 340 342 343 338 332 338 338 336 339 340 340 339 341 340 333 331 337 337 337 339 337 337 337 335 331 328 325 331 330 325 333 331 325 332 324 323 323 326
326 338 339 340 339 341 341 341 342 340 340 339 339 338 338 340 340 334 334 340 328 335 335 338 339 340 338 337 335 332 329 329 331 328 327 336 339 327 325 324 324 325 326
329 332 339 341 340 340 340 339 337 340 342 339 336 338 337 339 340 339 332 334 330 332 334 339 340 339 339 340 339 339 335 330 326 323 325 330 337 330 326 326 327 333 336
335 337 337 342 339 339 340 337 337 337 340 339 336 339 339 341 339 332 330 330 331 334 336 339 339 340 340 340 341 341 337 331 329 326 326 324 333 327 324 324 324 325 325
338 337 336 335 337 338 340 338 338 333 339 338 338 339 340 332 326 328 329 328 330 334 339 340 341 341 341 341 341 338 334 329 325 325 328 326 324 324 324 323 324 324 325
336 336 336 336 334 331 332 334 332 336 332 339 339 340 336 332 327 328 329 332 333 336 338 340 340 340 341 340 340 339 336 329 324 323 323 323 323 323 324 324 326 327 327
336 336 336 333 330 331 333 336 338 330 330 337 337 338 336 335 338 336 335 336 337 338 339 340 342 341 340 341 341 342 341 336 330 328 328 327 326 326 327 327 327 326 324
340 339 332 330 331 334 339 341 340 338 336 336 339 336 337 341 340 340 340 338 340 341 342 343 341 338 339 341 340 342 342 342 342 341 324 325 328 328 326 324 323 323 323
340 333 330 332 339 341 343 340 338 337 337 337 339 337 337 339 339 341 340 338 341 342 342 342 341 340 340 339 340 342 340 342 342 343 342 324 321 321 321 321 322 323 325
338 333 334 337 338 342 341 337 336 335 335 336 337 337 337 339 341 341 340 339 338 341 340 341 341 341 341 341 342 340 342 342 342 342 342 330 324 322 322 323 325 330 337
339 340 339 338 338 340 340 341 341 341 342 341 341 342 342 341 343 341 342 340 340 340 342 342 342 341 340 342 342 343 342 341 342 341 340 336 336 331 327 329 336 340 340
343 342 341 340 339 341 339 341 340 341 343 343 343 342 342 342 342 342 342 342 342 342 342 343 343 342 340 342 342 343 343 343 343 340 338 336 336 337 334 336 339 340 342
342 343 343 343 343 343 342 338 340 342 342 343 342 342 341 342 341 342 342 342 343 342 342 343 343 343 343 342 342 343 343 343 343 342 342 338 335 335 335 337 339 342 344
341 342 343 343 344 345 345 342 340 343 344 342 343 343 342 342 342 342 343 341 342 342 343 343 344 343 342 341 341 341 342 340 341 343 343 343 341 340 337 335 338 343 346
343 342 342 344 342 343 343 343 343 344 344 341 342 340 341 341 342 344 343 342 343 343 343 343 344 343 341 340 341 338 338 339 340 341 342 342 342 341 338 334 341 346 347
343 342 343 344 343 342 342 344 344 345 345 344 344 346 346 341 344 342 341 342 344 343 340 343 343 341 342 341 341 339 339 339 340 340 340 340 340 339 340 343 345 346 347
344 343 343 343 343 342 343 344 344 346 345 345 346 346 344 342 340 341 344 343 343 343 341 343 343 341 342 342 343 341 343 344 340 339 339 339 338 340 342 343 344 345 346
345 343 342 343 344 342 343 343 344 345 345 346 346 344 344 344 345 342 344 341 344 344 342 342 342 341 343 343 343 343 345 346 346 343 339 339 338 339 341 342 343 344 346
345 343 341 341 344 343 342 342 343 343 343 344 343 344 345 343 343 343 343 343 342 343 339 342 342 342 341 344 343 345 345 346 346 345 343 339 340 341 342 343 343 344 345
346 343 341 342 342 340 342 341 343 343 343 344 344 344 346 345 345 345 344 344 342 344 340 339 343 340 343 343 343 343 345 346 346 346 344 344 341 341 342 344 344 345 345

GFSSE_850_thetae_099.txt.gz
Theta_e
337 339 337 338 335 333 334 338 340 335 335 334 338 338 339 338 337 333 340 339 339 325 324 328 327 334 338 336 336 333 338 337 337 339 338 339 338 337 337 338 343 342 340
337 337 339 338 339 339 332 330 330 335 336 335 339 338 338 338 337 340 339 340 328 325 330 338 335 337 337 338 340 337 337 339 339 329 332 340 339 339 339 340 333 338 334
337 340 339 340 341 339 334 331 328 331 336 335 335 336 337 337 338 338 339 333 337 327 335 334 334 336 337 338 331 321 323 334 336 336 327 339 340 338 337 333 338 339 336
338 341 342 342 341 332 328 334 339 331 333 334 333 331 338 338 341 340 338 340 336 335 336 338 337 333 331 328 328 333 329 328 333 337 343 342 337 337 333 340 338 339 338
340 341 339 332 329 329 329 329 338 339 335 337 335 332 338 340 341 339 337 339 338 339 340 341 339 338 337 337 334 332 329 332 334 335 339 338 341 325 324 331 334 332 331
339 336 328 331 330 341 340 331 331 340 334 340 338 339 340 340 340 340 339 339 339 337 338 338 336 334 333 334 335 330 326 329 329 326 328 339 338 337 323 323 325 332 342
333 329 334 340 341 337 342 340 332 337 337 334 338 339 339 338 342 342 336 337 338 337 338 337 336 336 336 332 330 327 328 332 328 327 336 332 325 326 324 324 324 326 330
326 333 340 340 341 341 342 340 338 339 338 338 340 339 341 341 334 339 338 332 336 336 339 338 338 338 336 335 333 330 327 326 326 327 335 341 330 326 325 324 333 336 337
337 339 338 338 340 340 340 341 341 341 339 338 338 339 341 340 338 339 339 331 335 336 338 338 338 339 339 338 337 333 330 326 323 324 330 341 335 325 326 326 327 329 329
333 339 344 340 340 340 338 336 337 341 338 336 338 338 340 339 337 339 336 331 332 337 339 339 340 340 340 340 337 334 330 327 327 330 324 330 335 324 324 324 324 325 325
336 337 338 338 339 339 338 339 339 338 338 338 339 341 339 338 340 341 330 330 334 338 340 341 341 341 340 340 338 335 329 325 324 325 327 325 324 324 323 323 324 326 327
338 336 336 337 338 337 339 336 333 338 337 337 340 336 328 327 330 334 331 334 338 339 340 340 340 340 340 341 341 337 333 328 326 324 324 323 324 325 326 327 327 326 325
337 336 336 334 332 332 332 332 331 331 338 338 339 333 328 331 334 336 336 337 338 339 341 340 339 340 340 341 342 341 340 338 332 326 328 328 328 327 327 326 324 324 323
337 336 334 331 332 334 339 336 328 331 336 338 336 334 338 339 338 337 338 339 341 341 340 340 339 339 339 340 341 341 341 342 342 340 323 324 325 324 323 322 322 324 326
340 334 330 331 334 339 341 337 336 336 337 338 336 339 339 339 341 341 339 341 342 342 341 341 340 340 339 340 342 341 341 341 342 342 330 322 321 321 322 323 326 332 337
339 330 332 337 340 343 339 337 337 337 338 339 336 337 338 339 339 341 339 339 340 341 340 341 341 341 342 342 340 341 340 341 342 340 333 330 325 324 326 331 337 339 340
334 331 336 339 342 341 338 337 336 336 337 337 338 338 339 342 342 341 342 338 340 341 340 342 341 340 342 342 343 343 343 342 341 336 335 336 334 331 334 338 339 340 343
336 335 337 338 340 339 341 341 341 341 342 342 343 341 340 341 343 343 342 341 341 341 342 342 341 340 341 342 342 343 343 343 341 339 337 336 336 336 338 339 341 343 345
340 340 337 338 339 339 341 340 341 342 343 342 342 341 341 341 341 342 341 343 342 342 343 343 342 342 342 341 341 341 342 342 342 342 339 338 336 336 337 339 342 346 347
342 341 341 340 341 340 338 339 342 343 343 343 343 342 342 342 341 343 342 342 342 343 343 343 343 342 340 339 339 339 338 341 342 343 342 341 340 337 335 337 343 346 347
342 343 343 343 344 344 342 339 341 343 343 342 341 341 342 342 343 343 344 342 343 343 343 343 343 341 340 340 338 339 339 340 340 341 341 341 339 336 334 340 346 347 348
341 341 343 344 343 344 341 342 343 344 344 343 342 343 343 341 343 341 342 343 342 342 341 343 342 341 341 341 338 339 343 342 339 339 339 340 338 339 342 344 346 346 347
345 342 342 343 343 342 342 342 345 344 345 344 345 346 343 342 339 341 340 342 344 343 341 343 342 341 342 342 341 342 346 345 341 339 338 338 337 342 342 343 343 344 347
345 343 342 343 343 342 342 344 343 344 344 345 344 343 343 342 343 342 343 341 342 344 342 342 342 342 344 343 342 344 345 346 349 344 341 339 337 340 341 342 343 344 345
346 344 342 343 343 343 343 344 343 344 344 345 345 343 343 343 344 341 343 340 342 342 340 342 342 341 343 343 344 345 345 346 345 347 345 345 340 341 343 343 343 344 345
346 344 343 341 342 344 343 343 343 344 343 344 344 343 345 344 344 343 344 342 342 343 342 340 344 340 342 343 343 342 344 347 348 350 348 345 342 342 342 343 344 344 345

GFSSE_850_thetae_102.txt.gz
Theta_e
344 342 340 338 339 341 341 342 339 337 337 338 338 340 338 336 338 341 339 329 324 327 330 337 339 339 339 333 338 339 338 340 340 339 338 339 337 338 343 345 347 344 338
345 344 338 337 338 335 331 334 336 335 336 337 337 337 337 339 339 341 337 329 329 337 338 338 337 337 340 340 336 337 339 331 330 337 341 341 340 340 333 337 335 337 340
345 345 338 340 341 336 331 331 331 334 330 333 336 336 337 338 339 335 338 332 341 339 338 336 338 339 335 321 322 335 334 336 331 338 341 344 343 338 340 341 340 333 330
346 346 347 342 340 333 334 336 329 330 332 332 331 337 338 341 340 337 339 331 333 338 339 335 333 331 332 332 329 328 331 336 341 346 342 340 341 338 340 337 339 341 339
347 349 343 340 331 329 329 336 336 329 333 333 332 339 340 340 338 337 338 338 340 340 340 338 338 337 337 333 329 330 334 335 340 342 344 345 339 327 331 338 338 335 341
349 348 329 329 330 335 327 329 340 334 340 338 338 340 340 341 340 339 339 338 337 338 335 334 334 333 335 335 327 328 330 329 340 343 342 343 335 324 323 325 339 338 336
343 341 340 337 339 338 338 331 338 335 337 337 339 340 339 338 340 340 339 339 338 338 335 336 336 334 332 329 328 331 330 332 342 345 342 339 326 324 325 326 327 328 327
341 346 346 340 341 342 336 332 338 336 334 340 339 340 341 337 341 332 336 336 336 338 337 338 337 337 336 333 330 326 324 335 341 344 344 341 327 326 329 340 341 338 333
343 346 348 347 341 341 341 339 340 339 339 340 340 341 340 335 339 338 333 334 338 338 338 339 337 338 337 334 331 329 326 328 338 342 343 344 326 325 325 325 325 325 325
346 346 346 347 348 347 346 340 341 338 338 338 339 340 340 337 339 334 331 333 338 339 340 340 340 340 337 334 330 327 331 336 338 339 340 334 324 324 324 324 325 325 326
346 348 346 346 347 348 346 339 339 337 336 339 340 341 344 346 344 345 335 334 338 341 341 341 340 340 342 339 336 337 340 337 336 339 337 323 324 324 325 326 326 325 324
345 345 345 346 346 346 345 349 346 346 349 347 348 344 343 344 344 344 337 339 340 340 340 340 340 341 346 345 346 345 341 342 339 338 333 325 326 326 326 325 324 324 324
345 344 344 344 344 344 345 344 344 345 346 347 344 343 344 345 345 344 344 345 344 344 345 345 346 345 348 347 344 344 344 342 339 337 330 328 326 325 324 323 324 327 332
345 344 343 343 344 344 343 342 342 345 345 344 342 345 347 346 346 346 345 346 346 345 342 347 345 345 346 346 346 345 344 342 339 337 324 322 322 322 323 326 332 338 339
343 343 342 343 346 345 345 342 342 344 346 344 344 347 347 346 348 347 347 348 347 346 345 347 347 346 344 345 345 345 344 344 341 339 334 322 323 324 330 337 340 339 340
343 343 343 345 345 345 345 345 345 345 346 344 345 344 345 347 348 347 348 347 347 347 346 347 347 345 344 343 344 344 344 343 342 342 340 331 328 334 339 340 339 340 343
343 343 345 346 347 346 345 345 345 346 345 344 345 338 342 347 343 348 347 347 348 343 344 347 347 346 343 343 345 345 344 343 341 343 343 343 340 339 339 338 341 343 346
343 344 345 344 345 345 345 346 346 346 345 345 346 346 344 343 343 348 347 347 347 347 348 346 345 343 345 344 345 345 344 343 344 344 344 345 346 345 341 341 345 347 348
345 345 345 345 344 346 346 347 347 345 348 347 347 348 341 342 342 348 348 349 347 348 347 345 345 345 344 344 343 343 343 344 344 342 344 346 344 347 346 344 347 348 348
346 346 346 345 347 348 347 347 348 348 349 348 348 348 343 345 342 345 348 348 348 348 347 347 344 346 343 344 343 342 342 343 344 344 344 344 344 346 345 344 350 350 348
347 347 347 347 348 348 347 347 348 347 349 349 349 342 342 348 345 346 349 347 349 349 346 348 348 345 343 343 344 342 341 342 342 343 343 343 343 344 346 348 349 349 349
348 348 349 349 341 347 348 348 348 346 347 347 348 348 349 348 342 345 349 349 349 349 345 344 343 346 345 343 344 344 342 341 342 341 342 342 343 344 346 348 348 347 348
348 349 349 350 346 348 349 350 346 350 349 350 348 348 349 348 349 344 342 348 344 347 348 347 346 344 345 348 342 348 343 344 342 340 342 341 342 345 346 346 347 348 347
349 349 349 349 343 344 343 350 350 347 348 350 350 349 348 345 349 346 342 343 343 349 345 347 348 349 347 347 348 350 347 348 345 342 341 342 341 342 345 345 345 348 349
350 350 349 350 344 348 342 349 345 348 348 349 350 347 348 344 347 351 346 341 342 348 342 344 348 347 349 348 348 349 351 352 348 345 343 344 341 343 346 347 346 348 351
350 350 350 351 343 342 343 342 348 347 350 349 349 349 348 348 347 347 346 341 340 350 343 344 342 342 346 348 349 348 348 348 349 347 346 347 346 347 348 351 351 350 352

GFSSE_850_thetae_105.txt.gz
Theta_e
346 341 341 341 340 341 341 340 338 338 338 339 339 339 336 341 340 332 324 327 331 333 338 337 336 337 336 338 338 340 339 339 338 338 337 338 343 344 346 347 346 343 339
346 345 338 338 338 337 338 336 336 336 338 337 340 339 340 340 336 328 327 333 336 339 337 337 339 339 337 336 339 336 328 335 341 344 342 341 334 336 335 333 341 340 338
345 343 338 339 337 331 331 332 336 334 335 335 338 338 339 339 336 331 341 341 340 339 339 340 339 326 322 329 336 336 335 340 342 344 345 345 342 340 339 336 332 332 334
345 346 345 341 337 335 334 329 334 336 334 335 338 338 341 339 342 329 331 335 337 336 333 331 331 338 331 328 330 335 339 343 341 341 340 340 344 337 336 338 341 341 337
347 350 342 339 330 329 338 336 331 334 332 331 337 340 339 339 340 338 340 340 340 338 338 337 337 337 331 329 332 332 336 341 345 346 345 340 340 332 340 341 340 340 341
348 348 332 329 329 328 332 339 335 338 334 335 339 340 340 340 338 338 338 338 338 340 337 335 337 335 333 328 330 328 335 342 342 343 343 332 324 324 329 331 330 330 331
344 341 338 339 339 332 330 337 334 338 338 339 340 340 339 340 339 338 338 338 336 336 335 335 332 330 328 329 330 329 340 343 343 342 340 338 324 330 339 333 338 332 328
341 345 347 338 341 336 332 336 333 336 340 340 340 341 340 339 338 337 336 337 337 337 337 337 337 334 331 328 324 326 339 342 343 343 342 331 326 331 337 333 331 327 326
347 346 347 348 341 339 338 339 337 339 340 340 341 338 336 339 330 334 335 337 338 339 337 336 336 333 331 328 327 330 335 338 343 346 345 333 324 325 325 325 325 325 325
346 347 348 347 348 349 346 340 338 338 338 340 340 339 335 336 330 333 336 338 338 340 340 340 338 336 332 326 330 337 338 339 340 339 339 324 324 324 324 325 325 324 324
345 347 346 346 347 346 347 340 336 337 337 338 342 345 345 347 345 347 340 338 340 341 340 340 341 343 344 339 341 341 339 338 338 339 332 324 325 325 325 324 324 324 327
346 346 346 346 346 346 345 345 346 349 350 346 347 346 348 345 343 342 338 340 340 340 340 341 342 345 346 348 346 342 341 340 338 338 328 326 325 324 324 324 326 332 337
344 343 346 344 345 345 344 344 345 347 346 345 345 344 344 344 345 343 342 344 343 344 347 344 347 346 343 346 341 340 342 340 337 336 325 324 323 323 325 330 337 340 339
343 343 343 343 344 344 342 343 345 345 346 344 345 347 347 344 345 346 344 343 347 345 346 346 343 346 345 345 343 342 342 340 338 333 322 322 324 326 333 339 339 339 340
343 343 342 344 344 345 344 341 345 345 345 344 347 348 347 346 345 347 347 347 345 345 344 345 344 344 345 345 343 344 343 342 340 335 323 325 330 337 340 338 339 342 344
342 342 343 346 345 346 344 345 344 346 344 346 346 346 349 346 347 346 346 344 346 347 346 346 348 343 343 342 344 344 344 342 343 341 339 333 338 340 338 339 342 345 347
343 343 346 347 345 345 344 344 346 344 345 345 347 348 348 348 347 346 345 347 346 343 346 347 344 345 343 342 345 345 343 343 344 345 345 345 340 337 339 342 346 348 348
344 344 344 345 344 344 346 346 345 346 346 345 346 347 349 347 349 348 347 346 345 348 346 345 343 342 343 344 345 345 343 342 345 346 346 347 347 345 343 347 348 348 348
345 345 345 345 345 346 346 347 345 347 346 346 347 348 351 350 346 348 349 345 349 347 345 344 341 346 343 344 344 344 344 343 345 344 347 347 346 347 347 347 348 348 347
346 346 345 345 346 346 349 346 346 349 346 346 347 349 347 350 350 350 348 347 350 348 347 347 349 344 344 345 345 343 344 344 345 346 345 344 345 348 346 351 352 351 347
346 346 345 347 346 348 346 347 347 348 347 348 349 348 349 350 350 348 350 347 350 348 348 349 351 344 343 341 347 342 342 344 345 345 344 344 341 344 346 349 349 350 351
346 346 346 349 348 349 347 347 347 347 347 348 349 350 351 350 351 347 350 350 350 350 351 353 348 350 343 343 346 345 342 343 343 343 343 342 343 344 347 349 349 350 351
346 347 348 349 349 349 348 349 350 348 350 347 348 350 350 351 350 353 350 355 344 349 349 352 346 349 345 343 346 352 346 346 342 342 342 343 343 346 346 346 348 350 352
347 347 350 350 352 346 354 348 349 349 347 348 349 348 350 350 351 350 351 352 349 352 349 346 348 348 351 344 344 346 345 349 353 343 341 343 342 344 345 345 345 350 351
348 347 348 351 351 351 350 350 351 347 350 350 349 350 352 351 350 349 351 352 351 349 347 352 346 352 348 349 347 346 343 347 340 347 345 345 342 342 347 347 346 347 352
348 347 348 351 351 351 352 352 351 350 350 350 349 350 351 349 351 350 350 351 350 350 348 348 352 344 353 350 350 345 347 348 349 349 346 344 345 347 347 350 350 349 350

GFSSE_850_thetae_108.txt.gz
Theta_e
346 340 339 339 340 340 339 337 339 338 339 339 336 339 339 329 324 333 334 331 340 336 334 336 335 337 337 337 336 337 338 338 338 338 341 343 345 345 345 344 340 338 339
346 340 340 341 341 338 334 336 335 338 339 338 339 339 336 326 323 325 332 338 338 338 338 339 339 338 338 334 327 337 342 345 344 344 335 334 335 334 340 340 338 340 340
344 336 335 333 331 332 335 336 334 336 338 337 339 338 336 330 341 341 338 339 337 339 339 330 322 324 335 333 335 341 342 342 345 345 343 340 339 336 332 333 334 336 337
345 346 339 337 334 331 335 336 336 336 337 337 340 339 340 337 336 334 334 331 332 330 330 338 334 328 328 333 336 342 341 343 343 341 342 342 334 335 339 342 341 333 333
348 346 340 335 331 338 335 331 338 335 336 338 341 339 340 339 340 340 339 338 338 337 337 336 336 328 330 331 334 341 343 342 345 340 337 333 334 343 343 340 342 340 334
350 345 332 329 329 333 338 334 337 337 338 340 340 339 337 338 337 338 338 340 337 337 336 337 337 329 329 327 334 342 343 344 343 336 327 324 326 331 329 329 328 328 328
346 333 331 335 328 330 338 338 340 338 339 340 339 338 337 337 337 341 338 339 336 335 332 330 331 328 329 327 337 342 341 342 341 329 325 326 340 344 340 341 330 326 326
343 346 340 339 337 332 337 335 337 339 339 338 340 340 338 336 336 337 336 336 336 335 334 332 329 326 324 324 333 341 344 346 343 341 326 326 329 335 327 326 325 325 325
347 347 346 342 333 333 338 333 338 338 339 340 334 337 332 336 339 337 337 338 335 334 332 328 326 325 326 330 334 337 342 343 345 345 326 324 324 324 324 324 325 324 324
347 347 347 347 346 337 338 337 337 338 340 339 336 333 330 329 334 337 337 338 338 337 335 329 329 328 332 333 337 339 340 341 342 337 324 323 324 324 324 324 324 325 328
346 348 345 347 348 343 341 337 336 337 339 342 344 345 347 339 340 341 338 339 340 340 337 339 344 343 342 342 342 338 340 339 339 337 324 325 324 324 324 325 329 334 338
347 346 348 343 347 344 345 340 345 347 345 345 347 345 349 345 342 337 340 339 340 339 341 346 346 344 347 347 341 341 340 338 338 330 324 324 324 324 327 334 339 339 338
343 345 345 343 346 344 342 346 346 349 344 343 347 347 346 338 338 339 339 341 346 344 346 347 346 348 344 348 344 342 340 337 337 324 323 323 325 330 337 339 338 339 342
346 346 345 343 346 345 343 346 347 347 343 345 344 343 345 346 346 346 344 346 348 346 341 344 341 338 344 342 342 342 340 338 336 323 323 325 332 339 338 337 340 344 345
344 344 345 344 343 342 344 346 346 344 346 344 343 346 349 344 344 347 334 346 347 345 346 345 344 342 346 344 345 343 342 341 337 329 328 334 340 337 337 340 343 345 346
344 344 344 342 341 344 342 346 346 345 345 348 345 346 346 346 348 344 347 346 344 349 345 341 345 345 342 340 345 345 343 341 342 340 339 339 335 336 340 344 346 347 347
344 345 343 341 342 344 343 344 343 345 347 347 348 345 347 346 346 350 345 347 340 341 342 344 345 342 343 343 344 344 343 343 342 345 346 343 337 340 345 347 347 347 346
344 343 346 345 345 342 340 345 346 345 345 346 346 348 349 344 344 345 348 347 343 349 350 344 346 346 345 344 346 345 343 342 344 346 347 348 347 346 344 346 346 344 344
344 342 347 344 343 345 347 348 347 347 345 347 345 348 348 343 347 347 347 344 347 350 342 348 342 345 345 344 344 344 344 344 346 347 345 346 347 349 348 347 350 347 349
345 344 346 345 344 341 347 346 348 342 346 349 348 348 344 345 347 350 350 343 348 351 347 346 344 343 344 345 345 345 345 345 345 345 346 345 344 347 348 351 353 351 351
346 345 345 345 344 343 346 346 347 344 347 346 347 349 350 349 347 350 348 346 342 346 342 340 350 346 343 343 348 342 341 344 346 345 345 344 343 347 346 348 349 350 352
346 345 345 346 342 344 346 348 347 346 347 348 349 348 350 348 344 350 351 350 350 349 340 345 350 353 344 343 348 349 342 344 344 344 344 344 344 344 347 349 349 341 351
346 347 342 347 341 344 349 347 348 347 349 348 348 349 348 348 344 350 350 346 347 349 349 343 348 350 346 340 348 351 352 349 344 342 341 343 340 346 347 345 348 347 350
347 346 345 349 341 347 349 346 346 350 350 349 348 347 349 348 349 345 349 351 348 349 348 348 346 348 349 350 344 344 345 342 345 340 343 344 343 346 344 345 348 348 350
346 347 347 349 346 346 344 349 347 347 348 347 349 349 351 347 350 349 347 347 349 352 348 348 343 348 350 350 349 347 342 349 348 347 344 345 342 343 346 345 345 350 352
346 347 349 346 346 346 347 346 348 350 341 348 347 348 348 348 342 348 351 351 346 349 346 344 344 346 349 347 347 345 350 345 347 344 342 345 346 341 342 350 347 346 348

GFSSE_850_thetae_111.txt.gz
Theta_e
340 340 339 340 339 338 338 338 338 338 337 338 340 331 326 337 333 337 332 333 335 338 335 335 335 336 336 335 336 337 338 338 340 341 344 343 343 343 342 339 338 337 337
339 339 339 341 338 337 336 338 338 337 339 339 336 327 323 326 332 337 337 338 336 336 337 337 335 329 330 337 343 344 342 342 336 333 334 333 339 340 340 338 341 340 338
339 340 341 338 334 335 335 335 337 337 338 340 333 328 339 338 338 338 336 337 338 331 321 323 333 330 336 342 341 343 344 344 343 341 338 334 330 331 333 338 338 338 340
335 334 331 330 330 331 333 336 336 336 338 339 338 330 339 337 338 336 333 326 323 335 337 328 327 331 340 341 341 343 343 343 343 344 334 335 337 340 341 335 331 336 336
337 337 336 334 335 334 333 333 332 336 338 339 338 331 331 337 339 337 337 335 334 332 332 327 329 331 339 341 342 345 344 341 339 339 330 340 341 342 341 343 337 333 331
344 339 329 329 334 333 332 335 334 337 340 338 338 338 338 338 337 337 336 335 334 333 331 331 327 325 336 342 343 343 341 340 334 325 325 332 328 328 328 328 328 327 327
341 331 329 328 332 336 338 335 336 339 339 339 338 340 339 341 335 339 336 338 330 328 329 329 328 325 336 342 341 341 342 341 332 324 326 339 339 341 339 327 325 325 325
330 336 331 329 333 334 338 337 337 339 338 338 339 338 340 339 338 335 333 331 330 329 327 325 324 325 333 342 343 343 343 344 335 325 327 330 332 326 325 324 324 325 325
338 337 337 331 333 335 333 338 338 338 339 334 336 335 333 335 334 334 333 332 330 327 326 325 325 327 331 341 343 342 343 345 340 330 324 324 324 324 324 324 325 326 328
345 342 341 334 337 334 336 339 338 339 335 336 335 329 331 335 335 336 333 331 328 327 326 325 330 335 337 338 340 341 344 342 338 332 323 323 324 324 324 326 330 333 336
347 344 343 343 341 337 336 336 338 338 337 336 337 333 333 336 336 338 339 338 335 339 343 342 341 341 340 338 339 339 341 341 339 327 324 324 324 326 329 335 337 338 338
345 347 344 344 341 334 337 335 340 344 344 342 343 346 346 338 337 340 339 339 340 342 345 345 344 345 343 341 340 337 339 339 337 324 323 324 327 333 338 337 337 340 344
345 346 344 344 343 340 344 346 341 343 345 344 342 343 340 338 339 339 342 343 342 341 344 345 332 344 345 342 341 339 338 336 334 323 324 329 336 338 336 338 343 344 345
345 345 346 343 344 342 346 345 342 342 343 342 343 341 341 336 335 339 341 339 342 341 342 343 336 341 343 342 344 341 338 337 330 324 330 337 337 335 339 342 344 345 345
345 345 344 341 345 344 346 348 344 345 346 343 344 344 344 344 339 335 342 336 341 344 341 343 341 345 344 344 342 340 341 339 337 333 338 335 334 338 341 343 345 344 345
346 346 344 341 342 345 346 346 345 345 343 341 342 343 344 344 341 339 343 341 342 344 343 342 343 343 342 342 344 343 341 341 340 339 334 333 337 340 342 343 344 345 345
346 344 342 341 343 345 346 345 344 345 345 343 340 343 343 346 346 343 345 346 340 342 344 344 346 344 343 343 344 344 342 342 342 345 346 342 340 341 343 342 342 341 341
344 342 342 339 342 343 343 344 345 345 347 346 342 342 343 347 346 344 342 343 345 346 345 344 345 346 344 346 345 344 343 340 345 346 347 348 347 342 346 344 347 347 343
343 339 343 342 341 341 342 345 345 344 345 345 347 344 344 343 345 344 346 346 347 345 346 345 344 344 344 345 345 344 344 345 345 345 345 347 347 348 348 350 352 350 349
341 343 344 344 342 343 346 347 346 347 344 347 347 347 343 346 344 348 346 345 345 346 345 344 343 345 345 345 346 344 345 345 344 344 340 344 346 347 347 348 347 350 351
340 344 345 343 342 341 346 348 347 344 346 348 348 346 344 347 347 347 343 338 347 345 344 340 345 344 343 343 344 344 345 344 344 345 345 343 344 347 347 347 345 344 352
340 344 344 344 342 342 344 346 346 345 347 346 347 347 345 346 347 347 344 345 347 345 341 346 350 350 343 342 348 348 343 343 345 344 344 345 343 345 346 347 345 349 350
341 346 344 343 341 343 347 348 347 346 348 347 346 345 346 346 345 346 348 347 347 348 343 347 347 349 342 345 345 347 349 349 347 345 344 344 343 345 348 346 347 349 351
343 341 345 344 342 343 348 348 347 347 347 347 348 346 346 345 345 346 346 347 345 348 348 347 348 350 350 350 347 348 345 345 342 342 344 344 343 345 346 345 342 344 342
345 343 343 343 343 345 347 348 348 347 349 348 347 347 347 347 347 346 345 346 345 348 345 347 346 345 350 349 347 349 347 345 344 336 337 339 342 344 342 343 343 339 336
345 343 342 341 343 344 346 348 345 344 349 347 348 345 347 347 349 347 348 346 346 346 348 344 345 343 346 346 347 348 345 344 343 340 335 337 338 341 339 335 334 338 335

GFSSE_850_thetae_114.txt.gz
Theta_e
340 338 337 338 337 337 337 338 337 337 339 333 333 337 327 324 325 335 332 333 333 333 332 332 333 334 335 335 335 336 339 341 342 340 340 340 342 342 337 336 334 334 337
339 338 339 338 337 337 336 336 337 339 338 335 327 338 332 338 337 332 335 336 333 334 335 333 334 338 339 341 340 337 333 335 338 340 340 341 341 339 338 339 339 336 335
339 339 340 335 335 334 336 336 336 339 338 334 326 329 337 336 337 336 336 337 332 328 333 329 329 340 343 343 342 343 342 340 338 333 330 334 336 338 340 338 338 338 336
339 341 337 334 335 334 333 340 337 339 338 331 340 338 338 338 338 339 338 325 328 326 331 330 337 341 341 342 341 342 343 343 339 337 336 337 340 335 331 333 337 336 337
338 332 330 331 332 333 334 334 336 339 338 338 339 337 336 333 336 336 329 335 331 326 327 331 338 339 341 343 341 340 340 337 336 332 333 337 340 342 343 340 337 331 334
335 335 332 335 333 331 331 331 336 339 339 333 333 337 337 336 336 336 333 332 332 330 327 331 335 340 341 340 341 340 339 337 330 327 339 331 330 331 332 330 327 328 338
339 330 331 334 332 333 335 333 338 338 337 336 337 337 336 336 338 338 332 331 330 329 327 326 333 341 341 342 340 340 341 329 324 324 329 328 335 334 327 325 325 325 325
333 329 330 335 334 335 334 337 339 338 338 339 338 337 337 336 337 333 329 327 326 325 325 325 329 341 342 341 340 342 342 330 325 327 334 334 330 326 324 324 324 325 326
334 330 329 334 333 336 336 337 338 338 339 338 336 336 336 334 333 331 331 329 327 325 324 324 329 340 342 343 344 343 340 340 335 324 323 323 323 324 324 326 328 331 334
338 333 330 333 331 334 337 337 338 334 338 338 334 333 334 334 330 328 327 325 325 324 329 333 331 336 342 342 344 344 342 339 337 323 323 323 324 325 328 333 336 337 337
340 338 333 335 332 337 338 339 337 334 334 328 330 334 334 335 337 338 335 338 340 339 336 336 337 338 339 339 340 342 341 339 337 324 324 324 326 330 336 337 337 338 341
343 343 339 336 335 335 338 338 337 338 340 336 337 338 335 336 338 338 338 339 342 344 345 343 341 339 337 338 339 339 339 338 333 324 324 326 332 337 336 338 343 344 345
343 343 339 334 337 336 338 342 343 338 337 344 344 339 337 339 339 340 338 339 342 339 341 338 344 344 341 339 337 337 337 337 329 323 325 333 337 335 340 343 344 345 346
343 342 342 341 342 346 341 342 343 341 344 344 342 338 338 338 339 341 341 336 338 341 340 339 342 344 343 343 341 339 338 337 324 326 333 336 335 340 342 344 345 346 346
346 342 343 343 343 346 344 341 344 342 344 343 339 337 333 338 336 338 337 338 341 343 342 341 343 344 343 343 341 339 341 336 330 336 335 335 339 342 344 345 345 346 344
344 341 344 344 344 345 344 343 344 345 344 342 342 342 342 338 338 339 335 339 342 343 345 343 344 345 344 343 343 340 339 338 339 334 334 338 341 342 344 344 344 344 344
342 341 343 343 343 344 345 345 344 343 341 340 343 344 344 340 342 343 343 343 341 340 343 345 345 344 341 343 344 342 339 341 343 344 345 343 342 342 345 346 342 342 341
344 343 341 340 343 345 345 345 343 343 344 342 340 342 345 343 344 343 343 343 343 344 344 345 345 344 343 343 344 343 343 339 343 345 346 347 346 346 346 349 349 348 346
343 342 341 340 343 343 345 345 345 343 345 345 343 340 342 342 342 344 345 344 342 345 345 344 345 344 344 344 345 344 344 345 343 340 342 344 347 346 347 348 348 350 350
341 342 341 340 342 342 344 344 345 345 344 346 346 345 342 342 344 344 340 342 346 344 345 345 346 347 345 345 345 345 344 344 344 338 342 344 346 347 347 347 345 346 351
340 343 339 341 340 341 345 346 344 345 345 347 347 346 342 343 346 348 344 342 344 344 345 345 347 343 342 344 346 345 344 344 344 344 345 346 343 344 346 346 346 348 348
342 342 339 342 341 345 345 347 346 346 345 347 347 346 345 345 346 345 340 344 345 340 343 347 349 345 343 345 348 345 342 343 344 345 345 346 345 344 344 345 346 346 348
341 344 343 340 340 340 346 347 346 344 345 346 345 346 344 345 345 346 342 344 344 340 344 348 349 346 347 345 347 347 349 348 346 344 345 344 344 343 344 345 343 344 346
342 343 343 342 341 342 345 346 347 346 347 345 345 344 346 345 344 345 346 344 344 346 343 345 347 350 349 349 348 345 344 344 343 345 344 343 342 343 343 343 340 337 338
342 341 342 342 341 342 346 347 347 347 346 347 345 344 346 346 346 345 345 345 343 348 347 344 345 346 349 347 347 345 344 344 339 343 337 337 342 341 341 341 335 334 338
343 340 343 342 343 341 344 348 346 348 346 347 347 346 346 346 346 347 347 347 345 341 344 344 345 343 347 345 349 347 343 342 342 341 337 336 336 339 337 339 340 341 337

GFSSE_850_thetae_117.txt.gz
Theta_e
335 335 337 338 339 340 341 339 339 332 333 335 335 324 325 333 333 335 335 337 338 336 339 341 341 343 342 339 339 340 340 340 340 340 338 338 336 333 332 333 332 335 327
335 337 338 338 339 339 336 337 339 339 329 338 335 325 329 337 335 336 336 337 337 341 341 341 341 338 337 337 339 341 342 342 341 341 342 340 336 335 335 339 336 333 333
337 338 338 338 339 336 336 337 338 336 325 330 333 335 336 334 335 338 334 338 340 334 333 337 340 342 341 341 340 337 336 333 333 338 340 338 337 339 341 335 337 338 335
338 339 335 341 335 337 337 336 338 333 327 328 334 339 336 336 337 339 330 324 330 333 327 336 342 342 342 342 342 342 342 336 335 331 331 332 335 335 335 342 340 337 339
339 338 333 334 333 332 334 336 338 333 334 338 337 339 339 334 332 327 336 340 329 330 332 340 340 341 341 340 339 338 336 333 332 333 338 340 340 338 337 333 331 336 340
339 333 332 332 331 331 332 336 338 337 337 338 336 336 335 336 338 333 332 330 326 328 333 339 339 342 342 339 337 334 330 330 329 338 339 336 340 339 332 328 328 338 335
332 332 332 339 331 338 333 337 338 338 334 336 339 340 335 335 334 332 331 330 331 328 331 337 341 341 341 340 340 338 326 325 324 330 327 327 329 326 325 325 325 325 325
335 331 334 334 332 334 333 338 338 337 336 337 337 334 335 334 339 328 327 327 329 328 327 338 341 342 341 340 341 337 330 325 326 333 339 333 331 324 324 324 325 326 328
329 330 333 337 336 334 337 339 338 338 338 336 336 336 333 331 329 329 327 326 325 325 326 335 341 342 342 343 342 341 339 338 328 323 324 324 324 324 325 328 331 334 335
329 329 334 335 336 337 339 338 338 338 337 335 333 331 331 330 329 327 325 325 325 325 324 330 341 341 343 341 341 342 341 339 331 323 323 324 324 327 332 335 336 336 338
334 330 334 333 336 337 338 338 334 336 334 332 333 334 332 333 333 330 331 332 330 334 335 333 336 340 341 340 340 340 339 339 335 324 324 324 328 334 336 337 341 343 344
333 333 335 331 337 337 338 335 334 330 329 332 333 335 337 338 335 338 342 342 342 341 338 337 337 338 338 339 339 339 338 338 329 324 324 328 335 336 340 343 344 345 345
340 339 335 335 337 338 337 336 339 339 335 335 335 335 337 338 337 338 341 341 342 340 339 343 341 340 340 340 339 337 337 335 323 324 328 335 336 341 343 344 345 346 346
340 334 334 335 335 338 341 340 338 340 343 339 336 337 338 339 340 340 340 338 338 341 339 342 343 344 342 340 338 338 337 330 324 329 335 336 340 342 344 345 345 345 345
341 338 339 345 342 341 342 342 342 343 340 339 337 337 337 337 338 338 335 339 341 342 341 341 343 344 343 341 339 341 338 334 334 335 335 339 342 343 345 345 345 345 344
342 342 341 343 345 343 341 343 342 343 340 340 341 338 341 337 338 335 340 340 341 341 343 344 344 344 344 343 341 340 339 338 335 335 339 341 342 343 343 342 342 342 343
342 343 342 343 343 344 342 343 344 342 342 342 343 342 342 338 342 341 341 339 339 340 344 345 344 342 341 344 342 341 340 342 343 343 344 343 343 346 347 348 347 345 344
341 342 343 343 343 344 344 344 343 341 341 340 342 341 341 343 342 338 339 340 344 344 344 344 344 343 342 343 343 342 341 341 343 344 346 346 345 346 346 347 350 349 349
341 342 343 342 344 345 344 344 343 343 344 341 342 341 342 341 343 339 341 341 341 345 344 344 344 343 344 344 344 343 343 343 343 344 344 345 346 347 345 344 344 348 350
343 342 340 342 342 343 344 345 345 345 345 344 344 342 343 342 340 343 341 341 342 347 344 346 346 345 344 344 344 344 344 343 345 345 343 344 345 346 345 345 345 346 346
343 341 340 341 341 343 344 344 344 343 344 345 345 345 343 341 345 343 343 342 345 345 343 348 347 342 343 344 346 344 344 344 343 344 344 344 344 343 343 344 344 345 347
341 341 340 341 341 341 343 344 343 343 344 346 344 344 343 343 343 345 341 341 344 341 342 346 347 342 343 345 346 344 343 344 344 344 345 345 345 345 342 344 344 343 344
341 341 339 339 339 339 345 346 344 346 345 346 347 346 345 343 343 344 341 343 344 340 340 347 348 344 341 346 346 348 346 345 344 344 345 345 344 343 342 344 342 338 340
342 341 338 339 338 344 345 346 346 345 345 344 345 345 345 343 343 345 342 342 344 343 341 343 347 349 348 345 346 345 343 344 344 344 343 343 343 341 341 342 339 336 334
343 342 340 339 340 340 345 346 345 346 345 345 343 344 345 345 345 345 344 345 343 347 344 344 345 347 347 345 345 345 344 343 339 341 339 339 336 340 338 339 339 341 338
343 343 343 342 342 340 342 345 345 346 346 346 345 345 345 346 345 346 345 344 344 343 346 344 343 343 346 346 347 345 342 342 341 339 338 341 341 340 340 343 342 341 339

GFSSE_850_thetae_120.txt.gz
Theta_e
338 336 336 339 337 339 339 337 333 336 338 330 323 323 335 337 337 334 335 336 337 338 338 341 339 339 339 339 339 341 341 340 338 338 338 336 332 332 335 333 331 328 331
335 338 338 339 340 339 337 339 333 332 335 325 322 329 330 333 337 337 337 338 339 340 341 342 341 338 339 340 342 343 341 341 342 342 339 336 335 337 341 336 333 333 333
336 338 338 338 338 338 339 338 333 328 336 326 326 332 333 336 337 337 338 339 340 336 338 339 339 338 338 337 337 335 335 338 340 341 340 340 341 342 336 338 337 337 334
337 338 338 339 337 336 338 338 335 325 333 332 336 335 333 335 337 339 335 338 339 333 340 342 341 341 341 341 341 339 336 333 331 331 333 337 335 335 343 341 336 339 342
338 336 340 336 336 336 337 339 330 332 330 336 337 336 337 337 335 332 335 332 331 329 341 340 341 341 339 338 337 335 332 333 334 338 339 339 340 338 333 330 334 339 338
338 333 336 337 336 334 337 337 332 337 336 337 336 334 332 329 329 339 330 327 329 337 339 338 341 340 336 337 332 327 329 328 338 335 331 337 338 331 327 326 331 334 332
337 331 332 336 332 334 335 337 337 339 336 336 336 335 335 336 335 334 333 331 331 332 337 340 340 339 339 339 333 326 325 325 329 334 332 335 327 325 324 324 324 325 325
331 330 336 336 336 331 337 338 336 335 338 338 338 336 339 340 336 338 333 337 337 328 336 340 341 340 340 340 340 337 332 326 326 325 331 327 324 324 325 326 329 331 334
333 331 335 336 337 340 340 337 336 336 336 338 336 337 339 334 330 329 327 327 327 326 335 340 341 342 343 341 340 340 338 332 323 323 323 324 325 327 331 334 336 336 337
331 333 335 340 339 341 339 338 338 337 335 335 336 336 337 332 335 329 327 326 324 325 331 341 341 342 342 341 341 339 338 331 324 323 324 325 330 334 335 336 340 343 344
329 333 334 338 336 337 338 338 338 338 333 333 333 333 330 329 326 326 326 330 333 329 330 337 341 342 340 339 338 337 336 329 324 324 326 331 334 336 340 343 344 345 345
330 333 333 335 337 337 338 335 336 337 332 333 333 333 334 333 337 339 338 339 339 337 337 337 338 338 338 338 338 337 334 324 325 327 330 334 336 341 343 344 344 344 344
331 335 332 337 337 338 335 333 331 329 332 333 334 336 336 335 338 341 342 342 341 342 341 340 338 338 338 337 337 337 333 324 327 332 334 336 341 343 344 344 344 344 344
336 335 333 336 338 338 336 339 338 336 334 334 334 336 337 338 339 339 339 337 339 339 342 344 344 343 340 339 339 339 334 326 331 334 336 340 342 343 344 344 343 344 344
337 334 334 335 337 339 339 338 340 340 336 335 336 338 339 339 338 338 335 340 341 341 341 342 343 343 342 340 340 338 335 332 334 336 339 342 343 344 344 344 343 344 344
334 338 342 337 341 342 342 341 342 339 337 336 336 336 336 336 338 337 339 341 341 342 343 343 343 343 343 342 340 339 334 335 336 339 341 342 343 344 344 343 343 343 342
338 341 344 342 341 341 341 341 341 339 339 342 339 341 337 338 339 341 340 340 340 343 343 343 343 340 342 343 341 339 342 344 345 343 343 344 345 346 347 348 348 348 347
341 340 342 344 344 341 341 341 342 340 342 343 341 341 340 341 339 338 339 340 342 344 344 344 343 342 342 342 342 341 340 342 344 344 344 345 345 345 345 345 346 348 350
340 340 342 342 343 344 343 343 341 342 341 341 341 340 341 343 341 338 341 342 344 343 344 344 343 343 344 343 343 343 342 342 343 343 343 345 346 345 344 344 344 344 346
340 341 342 343 344 344 344 344 342 344 343 342 342 342 341 341 340 340 340 340 343 343 344 345 344 344 344 344 344 344 343 344 344 344 342 344 344 345 345 344 344 345 347
341 343 341 342 344 344 344 343 344 344 344 344 345 344 342 342 344 342 341 341 342 344 343 346 343 343 343 344 344 344 343 344 343 344 344 344 344 345 343 343 344 344 346
342 343 341 342 342 342 343 342 343 344 344 345 344 343 343 342 343 346 341 341 344 341 342 345 345 342 342 344 346 344 343 343 343 343 344 344 344 345 344 343 343 340 341
343 343 341 340 342 341 342 342 344 343 343 345 345 345 345 344 344 344 344 343 342 343 339 344 346 343 341 345 345 346 345 344 343 343 343 344 344 342 342 343 342 338 338
343 342 341 340 342 341 343 343 343 343 343 344 345 344 343 343 344 346 342 341 344 343 338 342 347 345 345 344 345 344 343 343 344 344 343 343 343 342 341 340 339 341 340
343 340 341 339 340 340 339 345 344 345 343 344 344 344 345 342 343 342 343 344 343 344 344 342 343 346 347 345 344 344 344 342 341 338 340 337 336 335 338 342 338 336 336
343 341 340 339 338 339 343 345 345 345 344 344 344 343 342 344 343 344 344 343 343 343 346 345 343 344 345 346 345 345 342 341 340 340 340 343 342 342 341 343 343 343 345

GFSSE_850_thetae_123.txt.gz
Theta_e
338 337 337 336 337 339 339 338 339 339 330 328 335 337 338 336 335 334 335 337 336 338 339 341 337 337 338 340 341 341 339 340 338 338 332 332 334 334 335 330 334 337 334
336 337 336 336 337 339 339 332 338 334 325 336 340 336 336 336 337 337 337 337 339 340 341 340 338 338 341 342 342 341 342 342 341 340 338 338 342 339 334 334 335 335 333
337 337 339 338 338 339 340 334 338 337 327 337 336 335 336 337 337 337 339 339 339 338 338 338 338 338 339 337 334 336 340 341 340 339 342 344 341 340 340 334 335 333 333
338 338 339 338 338 339 339 332 338 333 334 332 333 336 338 337 338 337 339 338 336 340 341 341 341 341 340 340 336 334 332 331 332 335 340 344 343 341 337 336 340 341 338
338 337 338 337 337 338 339 329 333 332 336 335 335 336 338 332 331 336 332 331 337 341 340 341 339 338 337 335 332 331 332 333 338 339 342 341 345 333 330 333 337 340 332
337 338 335 335 337 337 339 331 337 335 337 337 339 335 331 335 339 336 333 331 336 339 339 340 336 337 335 328 326 326 331 334 328 328 330 332 336 326 325 325 328 327 327
335 335 342 335 334 336 339 334 338 336 335 335 336 336 337 335 333 334 335 334 337 337 339 339 338 338 335 330 325 325 327 332 336 335 336 326 324 324 324 326 327 329 332
333 332 337 333 331 336 338 337 338 335 337 336 336 337 336 332 335 336 339 338 331 335 339 339 339 339 339 339 336 330 325 324 324 327 325 335 325 327 330 334 335 335 336
331 332 337 334 337 338 338 336 336 339 338 338 337 338 338 336 335 331 330 328 326 336 339 340 342 340 340 339 338 335 329 324 323 323 324 326 331 334 335 336 339 343 345
330 332 336 336 339 343 340 338 337 335 337 335 337 337 334 336 337 332 326 324 325 335 339 341 341 339 339 338 337 337 335 326 324 325 328 333 334 336 340 343 344 344 343
330 333 339 338 339 341 339 338 337 335 336 334 334 335 329 326 329 341 331 331 327 330 338 341 340 339 338 337 338 337 334 330 325 330 333 335 339 342 343 343 343 343 344
330 335 338 336 337 338 339 338 337 338 334 331 331 329 330 335 337 337 338 339 337 336 336 339 338 338 338 339 340 338 332 326 331 334 336 340 342 343 343 344 344 344 344
331 335 335 336 337 337 335 335 335 332 332 333 333 334 338 340 341 342 341 341 341 342 338 337 337 338 338 338 338 337 327 330 333 335 340 341 342 343 344 344 343 344 344
332 334 335 337 338 336 334 330 329 332 333 335 336 335 335 339 339 338 337 339 339 341 342 343 342 342 340 340 339 337 329 332 334 338 340 342 343 344 343 343 343 343 343
335 333 336 338 337 336 338 339 338 335 334 334 336 337 339 339 338 335 340 341 341 341 342 343 343 343 341 340 338 334 333 334 337 340 342 343 343 342 342 342 341 342 341
337 334 335 337 337 337 337 339 340 338 336 336 337 338 338 337 336 338 340 340 341 342 342 343 343 343 342 340 338 334 336 338 340 341 342 342 343 344 344 345 346 346 345
333 335 335 337 340 340 339 341 339 337 336 337 338 338 337 338 341 340 340 340 342 343 342 343 341 341 342 340 339 342 341 341 341 342 344 346 346 346 347 347 347 348 349
340 343 339 340 341 341 339 341 338 338 342 342 340 338 340 340 340 339 338 341 343 344 344 344 342 341 342 341 338 340 342 344 343 343 344 345 345 345 343 344 344 345 346
338 344 344 343 342 340 341 341 340 341 342 342 341 341 342 341 338 341 342 342 343 344 344 343 343 343 343 343 342 339 338 341 342 343 343 344 345 344 344 345 345 345 345
341 339 343 343 343 342 342 342 341 342 340 341 341 339 340 341 339 342 341 342 343 342 344 344 343 344 344 344 344 344 343 343 343 342 343 343 344 343 343 343 343 344 345
342 342 342 343 343 343 343 343 342 344 342 342 342 341 340 342 343 340 341 340 343 342 342 345 343 344 343 345 344 344 343 343 343 343 344 344 344 344 344 344 344 339 341
340 341 342 343 343 344 343 342 343 343 344 344 344 344 341 341 344 344 341 342 343 342 342 343 344 342 343 344 345 343 347 343 342 343 343 343 344 344 342 342 343 341 338
341 340 342 341 344 344 344 343 343 344 343 345 344 342 342 343 341 344 343 342 343 342 339 342 345 343 342 345 345 348 347 346 343 343 343 343 343 343 341 341 340 339 340
342 342 342 341 342 343 343 343 343 342 344 343 343 343 344 344 343 346 341 343 343 343 341 340 347 346 344 344 344 344 343 343 347 347 341 339 339 339 338 339 339 338 337
342 342 343 342 341 342 342 343 342 343 341 342 344 344 342 342 344 346 343 343 342 344 343 340 343 347 347 345 344 344 343 342 341 340 342 340 340 337 342 340 339 342 344
342 342 343 342 341 341 342 341 344 345 343 344 344 344 344 343 342 343 343 343 343 342 343 344 342 344 345 346 346 345 342 341 340 340 342 343 342 342 343 343 344 344 345

GFSSE_850_thetae_126.txt.gz
Theta_e
337 337 336 337 334 335 335 337 340 334 337 334 335 334 335 336 335 335 337 337 340 341 340 337 338 339 341 340 336 339 337 336 334 333 333 336 334 333 331 339 343 343 338
337 336 336 337 337 333 333 337 333 334 336 338 339 338 335 336 335 336 337 338 340 341 340 338 340 342 342 341 341 341 341 340 338 338 341 338 336 334 337 337 339 335 330
337 337 337 337 338 338 335 338 334 333 337 333 335 336 336 336 337 338 340 339 338 338 338 339 340 338 338 338 339 340 340 338 340 343 346 346 344 340 333 333 334 333 332
343 344 342 339 339 339 333 339 334 336 337 337 338 339 337 338 338 338 336 339 341 341 341 341 341 340 337 337 332 332 332 334 337 344 344 346 346 335 337 340 341 335 333
345 345 339 338 339 340 329 339 334 336 337 337 336 337 330 334 334 331 331 340 341 341 339 338 337 335 333 331 332 332 337 338 344 348 348 347 343 330 333 340 341 334 338
345 345 337 337 338 338 329 330 338 338 338 339 338 334 338 339 334 329 329 338 339 340 336 336 334 329 326 326 328 334 329 330 343 343 342 340 337 325 325 326 326 327 328
345 344 344 335 336 338 335 338 336 337 337 337 337 337 336 336 331 338 334 337 337 339 337 337 332 332 328 325 326 330 332 335 343 344 343 341 327 326 328 330 332 334 335
343 344 341 333 336 339 336 339 336 337 336 337 337 337 335 335 336 336 334 334 337 339 339 338 338 338 336 333 328 325 324 339 343 343 345 341 331 333 334 335 336 340 343
342 343 343 342 341 339 338 336 338 338 337 338 339 338 338 339 334 334 328 329 336 338 340 340 339 340 339 338 337 332 324 330 338 341 341 339 334 335 339 343 344 344 343
340 342 343 345 347 348 344 338 338 337 336 337 337 333 334 334 328 326 326 326 337 339 341 340 339 339 338 338 336 329 329 338 336 337 338 335 339 342 343 343 343 343 343
342 344 344 346 344 342 344 339 337 336 335 337 337 336 342 342 343 343 329 326 333 338 340 339 338 338 340 337 333 330 343 342 338 337 338 340 342 342 342 343 343 343 344
342 344 344 346 347 347 344 342 344 345 346 344 343 343 342 344 344 344 338 336 333 336 339 339 338 338 344 343 344 344 343 342 340 339 340 342 342 342 342 342 342 343 344
343 344 346 346 347 347 347 347 344 344 343 342 341 345 346 346 348 347 346 344 344 339 342 342 343 344 345 345 344 342 340 342 341 339 341 341 341 341 342 342 342 343 344
343 344 345 345 347 346 345 343 343 344 343 341 344 343 343 345 343 343 343 344 345 346 344 347 345 346 348 346 345 343 340 339 339 339 340 340 341 341 341 341 342 341 342
342 344 345 346 347 345 345 341 342 342 342 342 344 343 346 344 338 343 341 346 346 348 348 348 349 348 347 343 343 343 341 341 340 340 342 341 340 341 342 343 344 344 343
342 344 345 346 345 346 347 346 344 344 344 343 344 345 338 342 336 345 345 346 348 349 348 349 349 347 344 341 341 342 341 342 339 341 342 343 344 346 347 347 348 348 349
343 344 345 346 346 346 345 342 345 345 343 343 345 337 337 341 341 342 347 348 349 347 344 346 348 346 343 340 343 345 344 343 342 343 345 345 346 345 343 343 344 345 345
342 344 344 344 345 347 348 346 345 345 346 345 345 345 338 340 340 343 347 349 350 352 352 349 346 345 344 341 344 343 344 344 345 345 346 346 347 346 348 344 344 344 345
344 347 345 346 347 347 345 346 347 344 347 346 346 346 340 340 338 347 349 349 348 353 352 347 347 345 345 343 341 343 345 345 345 345 347 345 349 349 347 347 343 344 343
345 348 348 348 348 348 346 346 347 346 347 346 345 347 342 346 343 347 348 347 351 352 351 351 350 350 348 346 342 343 345 345 345 345 345 347 349 348 350 344 350 351 340
345 346 348 349 348 347 347 347 346 346 346 345 345 344 343 349 345 341 349 347 350 351 349 353 349 350 350 350 348 346 346 346 345 346 347 347 349 349 346 347 348 347 347
346 346 348 348 347 345 349 348 348 347 347 346 347 347 348 347 344 343 341 347 346 351 348 346 348 350 351 351 352 347 346 346 344 346 348 349 350 349 348 347 344 344 341
346 347 348 349 348 342 350 349 348 348 347 346 348 347 347 346 349 344 341 346 345 348 350 350 350 345 349 350 347 353 348 347 347 349 349 349 347 348 347 347 345 343 341
346 347 348 347 344 343 343 349 349 347 346 347 349 348 349 349 351 350 342 342 342 349 346 349 351 349 348 350 350 349 345 345 347 345 347 346 346 345 344 346 346 345 338
347 348 348 348 341 348 347 344 346 346 347 348 348 349 349 348 349 351 342 341 341 349 349 345 350 346 352 351 349 350 347 347 344 346 343 344 347 345 347 348 349 350 350
347 348 348 349 341 341 341 341 343 348 348 347 349 349 348 347 348 348 350 343 348 349 346 349 349 345 347 350 351 349 348 347 347 345 345 346 345 347 348 349 349 347 348